<?xml version="1.0" encoding="UTF-8" standalone="no" ?>
<gpx xmlns="http://www.topografix.com/GPX/1/1" xmlns:xsi="http://www.w3.org/2001/XMLSchema-instance" xsi:schemaLocation="http://www.topografix.com/GPX/1/1 http://www.topografix.com/GPX/1/1/gpx.xsd" version="1.1" creator="VisuGPX - https://www.visugpx.com">
  <metadata>
    <name>Ventoux</name>
    <desc><![CDATA[Départ Rémuzat Col d\'EY, col de Fontaube, col des Aires, Ventoux par Sault, descente sur Malaucène, Vaison la Romaine, dernier col de la croix rouge par Chateauneuf de la Bordette.]]></desc>
  </metadata>
  <trk>
    <name><![CDATA[ACTIVE LOG160608]]></name>
    <trkseg>
      <trkpt lat="44.17371" lon="5.27902">
        <ele>1903.426</ele>
        <time>2013-05-06T14:06:08Z</time>
      </trkpt>
      <trkpt lat="44.17377" lon="5.27908">
        <ele>1901.162</ele>
        <time>2013-05-06T14:06:10Z</time>
      </trkpt>
      <trkpt lat="44.17384" lon="5.27919">
        <ele>1900.369</ele>
        <time>2013-05-06T14:06:13Z</time>
      </trkpt>
      <trkpt lat="44.17399" lon="5.27935">
        <ele>1896.137</ele>
        <time>2013-05-06T14:06:17Z</time>
      </trkpt>
      <trkpt lat="44.17426" lon="5.27962">
        <ele>1892.813</ele>
        <time>2013-05-06T14:06:22Z</time>
      </trkpt>
      <trkpt lat="44.17431" lon="5.27968">
        <ele>1896.652</ele>
        <time>2013-05-06T14:06:23Z</time>
      </trkpt>
      <trkpt lat="44.17436" lon="5.27974">
        <ele>1893.186</ele>
        <time>2013-05-06T14:06:24Z</time>
      </trkpt>
      <trkpt lat="44.17452" lon="5.28">
        <ele>1893.173</ele>
        <time>2013-05-06T14:06:28Z</time>
      </trkpt>
      <trkpt lat="44.17471" lon="5.28038">
        <ele>1890.234</ele>
        <time>2013-05-06T14:06:36Z</time>
      </trkpt>
      <trkpt lat="44.17471" lon="5.28038">
        <ele>1894.06</ele>
        <time>2013-05-06T14:06:38Z</time>
      </trkpt>
      <trkpt lat="44.17471" lon="5.28038">
        <ele>1890.965</ele>
        <time>2013-05-06T14:06:42Z</time>
      </trkpt>
      <trkpt lat="44.17471" lon="5.28038">
        <ele>1890.554</ele>
        <time>2013-05-06T14:06:43Z</time>
      </trkpt>
      <trkpt lat="44.17475" lon="5.28045">
        <ele>1888.466</ele>
        <time>2013-05-06T14:06:45Z</time>
      </trkpt>
      <trkpt lat="44.17478" lon="5.28048">
        <ele>1885.387</ele>
        <time>2013-05-06T14:06:52Z</time>
      </trkpt>
      <trkpt lat="44.17481" lon="5.28051">
        <ele>1886.405</ele>
        <time>2013-05-06T14:06:53Z</time>
      </trkpt>
      <trkpt lat="44.17494" lon="5.28043">
        <ele>1888.041</ele>
        <time>2013-05-06T14:06:59Z</time>
      </trkpt>
      <trkpt lat="44.17497" lon="5.28037">
        <ele>1889.571</ele>
        <time>2013-05-06T14:07:01Z</time>
      </trkpt>
      <trkpt lat="44.17505" lon="5.28021">
        <ele>1887.341</ele>
        <time>2013-05-06T14:07:05Z</time>
      </trkpt>
      <trkpt lat="44.17507" lon="5.28009">
        <ele>1883.61</ele>
        <time>2013-05-06T14:07:07Z</time>
      </trkpt>
      <trkpt lat="44.17508" lon="5.28003">
        <ele>1884.47</ele>
        <time>2013-05-06T14:07:08Z</time>
      </trkpt>
      <trkpt lat="44.17513" lon="5.2798">
        <ele>1879.831</ele>
        <time>2013-05-06T14:07:11Z</time>
      </trkpt>
      <trkpt lat="44.17522" lon="5.27928">
        <ele>1874.536</ele>
        <time>2013-05-06T14:07:17Z</time>
      </trkpt>
      <trkpt lat="44.17523" lon="5.27919">
        <ele>1874.275</ele>
        <time>2013-05-06T14:07:18Z</time>
      </trkpt>
      <trkpt lat="44.17522" lon="5.27863">
        <ele>1871.131</ele>
        <time>2013-05-06T14:07:24Z</time>
      </trkpt>
      <trkpt lat="44.17518" lon="5.27833">
        <ele>1868.076</ele>
        <time>2013-05-06T14:07:27Z</time>
      </trkpt>
      <trkpt lat="44.17503" lon="5.27795">
        <ele>1864.449</ele>
        <time>2013-05-06T14:07:31Z</time>
      </trkpt>
      <trkpt lat="44.17485" lon="5.27757">
        <ele>1861.427</ele>
        <time>2013-05-06T14:07:35Z</time>
      </trkpt>
      <trkpt lat="44.17462" lon="5.27726">
        <ele>1859.054</ele>
        <time>2013-05-06T14:07:39Z</time>
      </trkpt>
      <trkpt lat="44.17441" lon="5.27706">
        <ele>1857.621</ele>
        <time>2013-05-06T14:07:42Z</time>
      </trkpt>
      <trkpt lat="44.17424" lon="5.27687">
        <ele>1855.935</ele>
        <time>2013-05-06T14:07:45Z</time>
      </trkpt>
      <trkpt lat="44.17402" lon="5.27648">
        <ele>1852.441</ele>
        <time>2013-05-06T14:07:50Z</time>
      </trkpt>
      <trkpt lat="44.17385" lon="5.27611">
        <ele>1849.52</ele>
        <time>2013-05-06T14:07:54Z</time>
      </trkpt>
      <trkpt lat="44.1737" lon="5.27571">
        <ele>1846.96</ele>
        <time>2013-05-06T14:07:59Z</time>
      </trkpt>
      <trkpt lat="44.17362" lon="5.27538">
        <ele>1844.785</ele>
        <time>2013-05-06T14:08:02Z</time>
      </trkpt>
      <trkpt lat="44.17357" lon="5.27506">
        <ele>1841.729</ele>
        <time>2013-05-06T14:08:05Z</time>
      </trkpt>
      <trkpt lat="44.17356" lon="5.27495">
        <ele>1841.095</ele>
        <time>2013-05-06T14:08:06Z</time>
      </trkpt>
      <trkpt lat="44.17353" lon="5.27433">
        <ele>1835.979</ele>
        <time>2013-05-06T14:08:11Z</time>
      </trkpt>
      <trkpt lat="44.1735" lon="5.27375">
        <ele>1832.75</ele>
        <time>2013-05-06T14:08:15Z</time>
      </trkpt>
      <trkpt lat="44.17349" lon="5.27344">
        <ele>1832.04</ele>
        <time>2013-05-06T14:08:17Z</time>
      </trkpt>
      <trkpt lat="44.17345" lon="5.27276">
        <ele>1830.734</ele>
        <time>2013-05-06T14:08:22Z</time>
      </trkpt>
      <trkpt lat="44.17347" lon="5.27267">
        <ele>1828.878</ele>
        <time>2013-05-06T14:08:23Z</time>
      </trkpt>
      <trkpt lat="44.17359" lon="5.27244">
        <ele>1826.388</ele>
        <time>2013-05-06T14:08:27Z</time>
      </trkpt>
      <trkpt lat="44.17372" lon="5.27242">
        <ele>1825.168</ele>
        <time>2013-05-06T14:08:30Z</time>
      </trkpt>
      <trkpt lat="44.17378" lon="5.27248">
        <ele>1826.526</ele>
        <time>2013-05-06T14:08:32Z</time>
      </trkpt>
      <trkpt lat="44.17379" lon="5.27249">
        <ele>1826.064</ele>
        <time>2013-05-06T14:08:37Z</time>
      </trkpt>
      <trkpt lat="44.17379" lon="5.27249">
        <ele>1826.925</ele>
        <time>2013-05-06T14:09:06Z</time>
      </trkpt>
      <trkpt lat="44.17384" lon="5.27265">
        <ele>1826.094</ele>
        <time>2013-05-06T14:09:12Z</time>
      </trkpt>
      <trkpt lat="44.17383" lon="5.27306">
        <ele>1823.519</ele>
        <time>2013-05-06T14:09:17Z</time>
      </trkpt>
      <trkpt lat="44.17381" lon="5.27367">
        <ele>1821.025</ele>
        <time>2013-05-06T14:09:23Z</time>
      </trkpt>
      <trkpt lat="44.17381" lon="5.274">
        <ele>1819.455</ele>
        <time>2013-05-06T14:09:26Z</time>
      </trkpt>
      <trkpt lat="44.1738" lon="5.27423">
        <ele>1815.838</ele>
        <time>2013-05-06T14:09:28Z</time>
      </trkpt>
      <trkpt lat="44.17382" lon="5.27458">
        <ele>1812.383</ele>
        <time>2013-05-06T14:09:31Z</time>
      </trkpt>
      <trkpt lat="44.17394" lon="5.27491">
        <ele>1807.713</ele>
        <time>2013-05-06T14:09:34Z</time>
      </trkpt>
      <trkpt lat="44.17407" lon="5.27511">
        <ele>1804.59</ele>
        <time>2013-05-06T14:09:36Z</time>
      </trkpt>
      <trkpt lat="44.17415" lon="5.27522">
        <ele>1803.274</ele>
        <time>2013-05-06T14:09:37Z</time>
      </trkpt>
      <trkpt lat="44.17448" lon="5.27564">
        <ele>1796.221</ele>
        <time>2013-05-06T14:09:41Z</time>
      </trkpt>
      <trkpt lat="44.17465" lon="5.27587">
        <ele>1791.91</ele>
        <time>2013-05-06T14:09:43Z</time>
      </trkpt>
      <trkpt lat="44.17475" lon="5.27596">
        <ele>1789.034</ele>
        <time>2013-05-06T14:09:44Z</time>
      </trkpt>
      <trkpt lat="44.17517" lon="5.27615">
        <ele>1785.676</ele>
        <time>2013-05-06T14:09:48Z</time>
      </trkpt>
      <trkpt lat="44.17559" lon="5.27626">
        <ele>1781.807</ele>
        <time>2013-05-06T14:09:52Z</time>
      </trkpt>
      <trkpt lat="44.1757" lon="5.2763">
        <ele>1782.648</ele>
        <time>2013-05-06T14:09:53Z</time>
      </trkpt>
      <trkpt lat="44.17614" lon="5.27655">
        <ele>1778.708</ele>
        <time>2013-05-06T14:09:58Z</time>
      </trkpt>
      <trkpt lat="44.17649" lon="5.27691">
        <ele>1775.517</ele>
        <time>2013-05-06T14:10:03Z</time>
      </trkpt>
      <trkpt lat="44.17655" lon="5.27699">
        <ele>1775.959</ele>
        <time>2013-05-06T14:10:04Z</time>
      </trkpt>
      <trkpt lat="44.1766" lon="5.27707">
        <ele>1774.663</ele>
        <time>2013-05-06T14:10:05Z</time>
      </trkpt>
      <trkpt lat="44.17677" lon="5.2774">
        <ele>1772.981</ele>
        <time>2013-05-06T14:10:09Z</time>
      </trkpt>
      <trkpt lat="44.17697" lon="5.27789">
        <ele>1769.778</ele>
        <time>2013-05-06T14:10:15Z</time>
      </trkpt>
      <trkpt lat="44.17711" lon="5.27827">
        <ele>1766.246</ele>
        <time>2013-05-06T14:10:19Z</time>
      </trkpt>
      <trkpt lat="44.17718" lon="5.27847">
        <ele>1763.744</ele>
        <time>2013-05-06T14:10:21Z</time>
      </trkpt>
      <trkpt lat="44.17729" lon="5.27887">
        <ele>1761.435</ele>
        <time>2013-05-06T14:10:25Z</time>
      </trkpt>
      <trkpt lat="44.17736" lon="5.27946">
        <ele>1758.206</ele>
        <time>2013-05-06T14:10:31Z</time>
      </trkpt>
      <trkpt lat="44.1774" lon="5.27974">
        <ele>1755.519</ele>
        <time>2013-05-06T14:10:34Z</time>
      </trkpt>
      <trkpt lat="44.17736" lon="5.28023">
        <ele>1752.059</ele>
        <time>2013-05-06T14:10:40Z</time>
      </trkpt>
      <trkpt lat="44.17744" lon="5.28038">
        <ele>1751.852</ele>
        <time>2013-05-06T14:10:44Z</time>
      </trkpt>
      <trkpt lat="44.1775" lon="5.28041">
        <ele>1749.022</ele>
        <time>2013-05-06T14:10:47Z</time>
      </trkpt>
      <trkpt lat="44.17761" lon="5.2802">
        <ele>1746.17</ele>
        <time>2013-05-06T14:10:50Z</time>
      </trkpt>
      <trkpt lat="44.17761" lon="5.28001">
        <ele>1744.949</ele>
        <time>2013-05-06T14:10:52Z</time>
      </trkpt>
      <trkpt lat="44.17762" lon="5.27992">
        <ele>1743.504</ele>
        <time>2013-05-06T14:10:53Z</time>
      </trkpt>
      <trkpt lat="44.17764" lon="5.27971">
        <ele>1742.124</ele>
        <time>2013-05-06T14:10:55Z</time>
      </trkpt>
      <trkpt lat="44.17767" lon="5.27948">
        <ele>1737.857</ele>
        <time>2013-05-06T14:10:57Z</time>
      </trkpt>
      <trkpt lat="44.1777" lon="5.27923">
        <ele>1734.406</ele>
        <time>2013-05-06T14:10:59Z</time>
      </trkpt>
      <trkpt lat="44.1777" lon="5.27909">
        <ele>1734.677</ele>
        <time>2013-05-06T14:11:00Z</time>
      </trkpt>
      <trkpt lat="44.17772" lon="5.27871">
        <ele>1731.464</ele>
        <time>2013-05-06T14:11:03Z</time>
      </trkpt>
      <trkpt lat="44.17773" lon="5.27832">
        <ele>1728.334</ele>
        <time>2013-05-06T14:11:06Z</time>
      </trkpt>
      <trkpt lat="44.17774" lon="5.27781">
        <ele>1723.867</ele>
        <time>2013-05-06T14:11:10Z</time>
      </trkpt>
      <trkpt lat="44.17774" lon="5.27717">
        <ele>1721.826</ele>
        <time>2013-05-06T14:11:15Z</time>
      </trkpt>
      <trkpt lat="44.17773" lon="5.27668">
        <ele>1716.849</ele>
        <time>2013-05-06T14:11:19Z</time>
      </trkpt>
      <trkpt lat="44.17766" lon="5.27646">
        <ele>1716.228</ele>
        <time>2013-05-06T14:11:21Z</time>
      </trkpt>
      <trkpt lat="44.1776" lon="5.27623">
        <ele>1714.163</ele>
        <time>2013-05-06T14:11:23Z</time>
      </trkpt>
      <trkpt lat="44.1775" lon="5.27589">
        <ele>1712.555</ele>
        <time>2013-05-06T14:11:26Z</time>
      </trkpt>
      <trkpt lat="44.17739" lon="5.27556">
        <ele>1709.526</ele>
        <time>2013-05-06T14:11:29Z</time>
      </trkpt>
      <trkpt lat="44.17726" lon="5.27525">
        <ele>1705.066</ele>
        <time>2013-05-06T14:11:32Z</time>
      </trkpt>
      <trkpt lat="44.17696" lon="5.27481">
        <ele>1703.122</ele>
        <time>2013-05-06T14:11:37Z</time>
      </trkpt>
      <trkpt lat="44.17661" lon="5.2746">
        <ele>1701.451</ele>
        <time>2013-05-06T14:11:42Z</time>
      </trkpt>
      <trkpt lat="44.1764" lon="5.27449">
        <ele>1699.599</ele>
        <time>2013-05-06T14:11:45Z</time>
      </trkpt>
      <trkpt lat="44.17616" lon="5.27431">
        <ele>1696.02</ele>
        <time>2013-05-06T14:11:49Z</time>
      </trkpt>
      <trkpt lat="44.17611" lon="5.27408">
        <ele>1693.736</ele>
        <time>2013-05-06T14:11:52Z</time>
      </trkpt>
      <trkpt lat="44.1762" lon="5.27381">
        <ele>1690.316</ele>
        <time>2013-05-06T14:11:55Z</time>
      </trkpt>
      <trkpt lat="44.17646" lon="5.27327">
        <ele>1684.674</ele>
        <time>2013-05-06T14:12:00Z</time>
      </trkpt>
      <trkpt lat="44.17651" lon="5.27317">
        <ele>1684.989</ele>
        <time>2013-05-06T14:12:01Z</time>
      </trkpt>
      <trkpt lat="44.17672" lon="5.27293">
        <ele>1682.234</ele>
        <time>2013-05-06T14:12:04Z</time>
      </trkpt>
      <trkpt lat="44.17699" lon="5.27269">
        <ele>1680.718</ele>
        <time>2013-05-06T14:12:08Z</time>
      </trkpt>
      <trkpt lat="44.17719" lon="5.27238">
        <ele>1677.469</ele>
        <time>2013-05-06T14:12:12Z</time>
      </trkpt>
      <trkpt lat="44.17725" lon="5.27203">
        <ele>1674.012</ele>
        <time>2013-05-06T14:12:15Z</time>
      </trkpt>
      <trkpt lat="44.17729" lon="5.27179">
        <ele>1671.32</ele>
        <time>2013-05-06T14:12:17Z</time>
      </trkpt>
      <trkpt lat="44.17731" lon="5.27167">
        <ele>1671.18</ele>
        <time>2013-05-06T14:12:18Z</time>
      </trkpt>
      <trkpt lat="44.17741" lon="5.2711">
        <ele>1667.786</ele>
        <time>2013-05-06T14:12:23Z</time>
      </trkpt>
      <trkpt lat="44.17748" lon="5.2707">
        <ele>1664.489</ele>
        <time>2013-05-06T14:12:26Z</time>
      </trkpt>
      <trkpt lat="44.17753" lon="5.27026">
        <ele>1660.287</ele>
        <time>2013-05-06T14:12:29Z</time>
      </trkpt>
      <trkpt lat="44.17758" lon="5.26981">
        <ele>1658.524</ele>
        <time>2013-05-06T14:12:32Z</time>
      </trkpt>
      <trkpt lat="44.17766" lon="5.26907">
        <ele>1654.14</ele>
        <time>2013-05-06T14:12:37Z</time>
      </trkpt>
      <trkpt lat="44.17766" lon="5.26876">
        <ele>1651.346</ele>
        <time>2013-05-06T14:12:39Z</time>
      </trkpt>
      <trkpt lat="44.17767" lon="5.26831">
        <ele>1648.248</ele>
        <time>2013-05-06T14:12:42Z</time>
      </trkpt>
      <trkpt lat="44.17768" lon="5.26817">
        <ele>1648.586</ele>
        <time>2013-05-06T14:12:43Z</time>
      </trkpt>
      <trkpt lat="44.17769" lon="5.26746">
        <ele>1642.488</ele>
        <time>2013-05-06T14:12:48Z</time>
      </trkpt>
      <trkpt lat="44.1777" lon="5.26732">
        <ele>1642.196</ele>
        <time>2013-05-06T14:12:49Z</time>
      </trkpt>
      <trkpt lat="44.17766" lon="5.26665">
        <ele>1638.923</ele>
        <time>2013-05-06T14:12:54Z</time>
      </trkpt>
      <trkpt lat="44.17765" lon="5.26652">
        <ele>1638.748</ele>
        <time>2013-05-06T14:12:55Z</time>
      </trkpt>
      <trkpt lat="44.17763" lon="5.26616">
        <ele>1636.204</ele>
        <time>2013-05-06T14:12:58Z</time>
      </trkpt>
      <trkpt lat="44.17762" lon="5.26594">
        <ele>1634.985</ele>
        <time>2013-05-06T14:13:00Z</time>
      </trkpt>
      <trkpt lat="44.17768" lon="5.26572">
        <ele>1632.564</ele>
        <time>2013-05-06T14:13:02Z</time>
      </trkpt>
      <trkpt lat="44.17774" lon="5.2655">
        <ele>1631.684</ele>
        <time>2013-05-06T14:13:04Z</time>
      </trkpt>
      <trkpt lat="44.1778" lon="5.26514">
        <ele>1628.646</ele>
        <time>2013-05-06T14:13:07Z</time>
      </trkpt>
      <trkpt lat="44.17782" lon="5.26487">
        <ele>1624.753</ele>
        <time>2013-05-06T14:13:09Z</time>
      </trkpt>
      <trkpt lat="44.17785" lon="5.26458">
        <ele>1621.629</ele>
        <time>2013-05-06T14:13:11Z</time>
      </trkpt>
      <trkpt lat="44.17786" lon="5.26443">
        <ele>1621.737</ele>
        <time>2013-05-06T14:13:12Z</time>
      </trkpt>
      <trkpt lat="44.17786" lon="5.26399">
        <ele>1618.444</ele>
        <time>2013-05-06T14:13:15Z</time>
      </trkpt>
      <trkpt lat="44.17786" lon="5.26384">
        <ele>1618.632</ele>
        <time>2013-05-06T14:13:16Z</time>
      </trkpt>
      <trkpt lat="44.17785" lon="5.26353">
        <ele>1615.706</ele>
        <time>2013-05-06T14:13:18Z</time>
      </trkpt>
      <trkpt lat="44.17784" lon="5.26293">
        <ele>1611.564</ele>
        <time>2013-05-06T14:13:22Z</time>
      </trkpt>
      <trkpt lat="44.17784" lon="5.26231">
        <ele>1608.415</ele>
        <time>2013-05-06T14:13:26Z</time>
      </trkpt>
      <trkpt lat="44.17785" lon="5.262">
        <ele>1605.41</ele>
        <time>2013-05-06T14:13:28Z</time>
      </trkpt>
      <trkpt lat="44.17786" lon="5.26169">
        <ele>1602.61</ele>
        <time>2013-05-06T14:13:30Z</time>
      </trkpt>
      <trkpt lat="44.17788" lon="5.2612">
        <ele>1600.992</ele>
        <time>2013-05-06T14:13:33Z</time>
      </trkpt>
      <trkpt lat="44.17791" lon="5.26044">
        <ele>1596.657</ele>
        <time>2013-05-06T14:13:38Z</time>
      </trkpt>
      <trkpt lat="44.17789" lon="5.26012">
        <ele>1595.406</ele>
        <time>2013-05-06T14:13:40Z</time>
      </trkpt>
      <trkpt lat="44.17785" lon="5.2596">
        <ele>1593.448</ele>
        <time>2013-05-06T14:13:44Z</time>
      </trkpt>
      <trkpt lat="44.17775" lon="5.25908">
        <ele>1589.01</ele>
        <time>2013-05-06T14:13:49Z</time>
      </trkpt>
      <trkpt lat="44.1778" lon="5.25885">
        <ele>1585.758</ele>
        <time>2013-05-06T14:13:51Z</time>
      </trkpt>
      <trkpt lat="44.17782" lon="5.25873">
        <ele>1585.152</ele>
        <time>2013-05-06T14:13:52Z</time>
      </trkpt>
      <trkpt lat="44.1779" lon="5.25836">
        <ele>1581.453</ele>
        <time>2013-05-06T14:13:55Z</time>
      </trkpt>
      <trkpt lat="44.178" lon="5.25749">
        <ele>1576.219</ele>
        <time>2013-05-06T14:14:01Z</time>
      </trkpt>
      <trkpt lat="44.178" lon="5.25704">
        <ele>1573.177</ele>
        <time>2013-05-06T14:14:04Z</time>
      </trkpt>
      <trkpt lat="44.17796" lon="5.25646">
        <ele>1570.009</ele>
        <time>2013-05-06T14:14:08Z</time>
      </trkpt>
      <trkpt lat="44.17791" lon="5.25618">
        <ele>1569.95</ele>
        <time>2013-05-06T14:14:10Z</time>
      </trkpt>
      <trkpt lat="44.17777" lon="5.25569">
        <ele>1569.051</ele>
        <time>2013-05-06T14:14:14Z</time>
      </trkpt>
      <trkpt lat="44.17773" lon="5.25524">
        <ele>1567.441</ele>
        <time>2013-05-06T14:14:18Z</time>
      </trkpt>
      <trkpt lat="44.17775" lon="5.25512">
        <ele>1566.748</ele>
        <time>2013-05-06T14:14:19Z</time>
      </trkpt>
      <trkpt lat="44.17779" lon="5.25486">
        <ele>1565.042</ele>
        <time>2013-05-06T14:14:21Z</time>
      </trkpt>
      <trkpt lat="44.17781" lon="5.25432">
        <ele>1561.285</ele>
        <time>2013-05-06T14:14:25Z</time>
      </trkpt>
      <trkpt lat="44.17776" lon="5.25351">
        <ele>1556.765</ele>
        <time>2013-05-06T14:14:31Z</time>
      </trkpt>
      <trkpt lat="44.17773" lon="5.25311">
        <ele>1555.231</ele>
        <time>2013-05-06T14:14:34Z</time>
      </trkpt>
      <trkpt lat="44.1777" lon="5.25259">
        <ele>1554.56</ele>
        <time>2013-05-06T14:14:38Z</time>
      </trkpt>
      <trkpt lat="44.17762" lon="5.25142">
        <ele>1552.35</ele>
        <time>2013-05-06T14:14:47Z</time>
      </trkpt>
      <trkpt lat="44.17756" lon="5.2506">
        <ele>1548.573</ele>
        <time>2013-05-06T14:14:53Z</time>
      </trkpt>
      <trkpt lat="44.17745" lon="5.25003">
        <ele>1546.645</ele>
        <time>2013-05-06T14:14:57Z</time>
      </trkpt>
      <trkpt lat="44.17738" lon="5.24961">
        <ele>1543.47</ele>
        <time>2013-05-06T14:15:00Z</time>
      </trkpt>
      <trkpt lat="44.17726" lon="5.24892">
        <ele>1540.684</ele>
        <time>2013-05-06T14:15:05Z</time>
      </trkpt>
      <trkpt lat="44.1772" lon="5.24864">
        <ele>1539.129</ele>
        <time>2013-05-06T14:15:07Z</time>
      </trkpt>
      <trkpt lat="44.17709" lon="5.24827">
        <ele>1537.445</ele>
        <time>2013-05-06T14:15:10Z</time>
      </trkpt>
      <trkpt lat="44.17701" lon="5.24796">
        <ele>1534.797</ele>
        <time>2013-05-06T14:15:13Z</time>
      </trkpt>
      <trkpt lat="44.17691" lon="5.24758">
        <ele>1534.205</ele>
        <time>2013-05-06T14:15:18Z</time>
      </trkpt>
      <trkpt lat="44.17685" lon="5.24737">
        <ele>1534.069</ele>
        <time>2013-05-06T14:15:23Z</time>
      </trkpt>
      <trkpt lat="44.1768" lon="5.24726">
        <ele>1534.518</ele>
        <time>2013-05-06T14:15:29Z</time>
      </trkpt>
      <trkpt lat="44.1768" lon="5.24726">
        <ele>1534.446</ele>
        <time>2013-05-06T14:15:36Z</time>
      </trkpt>
      <trkpt lat="44.1768" lon="5.24726">
        <ele>1533.733</ele>
        <time>2013-05-06T14:15:43Z</time>
      </trkpt>
      <trkpt lat="44.17675" lon="5.24713">
        <ele>1533.254</ele>
        <time>2013-05-06T14:15:49Z</time>
      </trkpt>
      <trkpt lat="44.17672" lon="5.24704">
        <ele>1530.994</ele>
        <time>2013-05-06T14:15:51Z</time>
      </trkpt>
      <trkpt lat="44.17664" lon="5.2467">
        <ele>1529.988</ele>
        <time>2013-05-06T14:15:57Z</time>
      </trkpt>
      <trkpt lat="44.17676" lon="5.2467">
        <ele>1528.541</ele>
        <time>2013-05-06T14:16:00Z</time>
      </trkpt>
      <trkpt lat="44.17681" lon="5.24685">
        <ele>1526.066</ele>
        <time>2013-05-06T14:16:02Z</time>
      </trkpt>
      <trkpt lat="44.17704" lon="5.24734">
        <ele>1519.436</ele>
        <time>2013-05-06T14:16:07Z</time>
      </trkpt>
      <trkpt lat="44.17725" lon="5.24766">
        <ele>1514.631</ele>
        <time>2013-05-06T14:16:10Z</time>
      </trkpt>
      <trkpt lat="44.17749" lon="5.24804">
        <ele>1509.545</ele>
        <time>2013-05-06T14:16:13Z</time>
      </trkpt>
      <trkpt lat="44.17767" lon="5.24832">
        <ele>1505.313</ele>
        <time>2013-05-06T14:16:15Z</time>
      </trkpt>
      <trkpt lat="44.17786" lon="5.24861">
        <ele>1501.882</ele>
        <time>2013-05-06T14:16:17Z</time>
      </trkpt>
      <trkpt lat="44.17818" lon="5.24911">
        <ele>1498.675</ele>
        <time>2013-05-06T14:16:21Z</time>
      </trkpt>
      <trkpt lat="44.17832" lon="5.24932">
        <ele>1498.002</ele>
        <time>2013-05-06T14:16:23Z</time>
      </trkpt>
      <trkpt lat="44.17837" lon="5.24942">
        <ele>1497.209</ele>
        <time>2013-05-06T14:16:24Z</time>
      </trkpt>
      <trkpt lat="44.1787" lon="5.25014">
        <ele>1492.839</ele>
        <time>2013-05-06T14:16:31Z</time>
      </trkpt>
      <trkpt lat="44.17884" lon="5.25044">
        <ele>1489.257</ele>
        <time>2013-05-06T14:16:34Z</time>
      </trkpt>
      <trkpt lat="44.17897" lon="5.25085">
        <ele>1485.836</ele>
        <time>2013-05-06T14:16:38Z</time>
      </trkpt>
      <trkpt lat="44.17899" lon="5.25126">
        <ele>1482.78</ele>
        <time>2013-05-06T14:16:42Z</time>
      </trkpt>
      <trkpt lat="44.17887" lon="5.25185">
        <ele>1478.263</ele>
        <time>2013-05-06T14:16:48Z</time>
      </trkpt>
      <trkpt lat="44.17892" lon="5.25203">
        <ele>1474.353</ele>
        <time>2013-05-06T14:16:50Z</time>
      </trkpt>
      <trkpt lat="44.17914" lon="5.25272">
        <ele>1473.632</ele>
        <time>2013-05-06T14:16:56Z</time>
      </trkpt>
      <trkpt lat="44.17922" lon="5.25311">
        <ele>1464.753</ele>
        <time>2013-05-06T14:16:59Z</time>
      </trkpt>
      <trkpt lat="44.17925" lon="5.25324">
        <ele>1464.753</ele>
        <time>2013-05-06T14:17:00Z</time>
      </trkpt>
      <trkpt lat="44.17931" lon="5.2535">
        <ele>1460.774</ele>
        <time>2013-05-06T14:17:02Z</time>
      </trkpt>
      <trkpt lat="44.17938" lon="5.25374">
        <ele>1459.559</ele>
        <time>2013-05-06T14:17:04Z</time>
      </trkpt>
      <trkpt lat="44.1795" lon="5.25408">
        <ele>1457.478</ele>
        <time>2013-05-06T14:17:07Z</time>
      </trkpt>
      <trkpt lat="44.17957" lon="5.25431">
        <ele>1453.795</ele>
        <time>2013-05-06T14:17:09Z</time>
      </trkpt>
      <trkpt lat="44.17975" lon="5.25486">
        <ele>1450.873</ele>
        <time>2013-05-06T14:17:14Z</time>
      </trkpt>
      <trkpt lat="44.17978" lon="5.25493">
        <ele>1448.503</ele>
        <time>2013-05-06T14:17:15Z</time>
      </trkpt>
      <trkpt lat="44.18008" lon="5.25522">
        <ele>1443.934</ele>
        <time>2013-05-06T14:17:20Z</time>
      </trkpt>
      <trkpt lat="44.18043" lon="5.25548">
        <ele>1443.082</ele>
        <time>2013-05-06T14:17:25Z</time>
      </trkpt>
      <trkpt lat="44.18055" lon="5.25557">
        <ele>1441.578</ele>
        <time>2013-05-06T14:17:27Z</time>
      </trkpt>
      <trkpt lat="44.1808" lon="5.25595">
        <ele>1438.421</ele>
        <time>2013-05-06T14:17:33Z</time>
      </trkpt>
      <trkpt lat="44.18088" lon="5.25627">
        <ele>1438.425</ele>
        <time>2013-05-06T14:17:37Z</time>
      </trkpt>
      <trkpt lat="44.18088" lon="5.2565">
        <ele>1438.866</ele>
        <time>2013-05-06T14:17:40Z</time>
      </trkpt>
      <trkpt lat="44.18088" lon="5.25713">
        <ele>1441.184</ele>
        <time>2013-05-06T14:17:50Z</time>
      </trkpt>
      <trkpt lat="44.18088" lon="5.25755">
        <ele>1440.053</ele>
        <time>2013-05-06T14:17:56Z</time>
      </trkpt>
      <trkpt lat="44.18088" lon="5.25793">
        <ele>1439.381</ele>
        <time>2013-05-06T14:18:01Z</time>
      </trkpt>
      <trkpt lat="44.18088" lon="5.25809">
        <ele>1438.756</ele>
        <time>2013-05-06T14:18:03Z</time>
      </trkpt>
      <trkpt lat="44.1809" lon="5.2583">
        <ele>1439.299</ele>
        <time>2013-05-06T14:18:06Z</time>
      </trkpt>
      <trkpt lat="44.181" lon="5.25846">
        <ele>1438.431</ele>
        <time>2013-05-06T14:18:10Z</time>
      </trkpt>
      <trkpt lat="44.1811" lon="5.25837">
        <ele>1435.439</ele>
        <time>2013-05-06T14:18:13Z</time>
      </trkpt>
      <trkpt lat="44.18111" lon="5.25828">
        <ele>1435.484</ele>
        <time>2013-05-06T14:18:14Z</time>
      </trkpt>
      <trkpt lat="44.18112" lon="5.25818">
        <ele>1435.474</ele>
        <time>2013-05-06T14:18:15Z</time>
      </trkpt>
      <trkpt lat="44.18113" lon="5.2578">
        <ele>1432.058</ele>
        <time>2013-05-06T14:18:19Z</time>
      </trkpt>
      <trkpt lat="44.18111" lon="5.25705">
        <ele>1430.73</ele>
        <time>2013-05-06T14:18:27Z</time>
      </trkpt>
      <trkpt lat="44.18111" lon="5.25686">
        <ele>1429.128</ele>
        <time>2013-05-06T14:18:29Z</time>
      </trkpt>
      <trkpt lat="44.18109" lon="5.25594">
        <ele>1427.937</ele>
        <time>2013-05-06T14:18:38Z</time>
      </trkpt>
      <trkpt lat="44.18109" lon="5.25541">
        <ele>1426.762</ele>
        <time>2013-05-06T14:18:43Z</time>
      </trkpt>
      <trkpt lat="44.18109" lon="5.25537">
        <ele>1426.258</ele>
        <time>2013-05-06T14:18:44Z</time>
      </trkpt>
      <trkpt lat="44.18092" lon="5.25495">
        <ele>1427.497</ele>
        <time>2013-05-06T14:18:48Z</time>
      </trkpt>
      <trkpt lat="44.18088" lon="5.2549">
        <ele>1427.582</ele>
        <time>2013-05-06T14:18:49Z</time>
      </trkpt>
      <trkpt lat="44.18036" lon="5.25467">
        <ele>1426.755</ele>
        <time>2013-05-06T14:18:57Z</time>
      </trkpt>
      <trkpt lat="44.18012" lon="5.25434">
        <ele>1425.47</ele>
        <time>2013-05-06T14:19:02Z</time>
      </trkpt>
      <trkpt lat="44.17988" lon="5.2532">
        <ele>1423.194</ele>
        <time>2013-05-06T14:19:14Z</time>
      </trkpt>
      <trkpt lat="44.17986" lon="5.25257">
        <ele>1423.053</ele>
        <time>2013-05-06T14:19:20Z</time>
      </trkpt>
      <trkpt lat="44.17987" lon="5.25235">
        <ele>1421.558</ele>
        <time>2013-05-06T14:19:22Z</time>
      </trkpt>
      <trkpt lat="44.1799" lon="5.25212">
        <ele>1421.656</ele>
        <time>2013-05-06T14:19:24Z</time>
      </trkpt>
      <trkpt lat="44.17998" lon="5.25193">
        <ele>1420.314</ele>
        <time>2013-05-06T14:19:26Z</time>
      </trkpt>
      <trkpt lat="44.1802" lon="5.25175">
        <ele>1416.821</ele>
        <time>2013-05-06T14:19:29Z</time>
      </trkpt>
      <trkpt lat="44.18026" lon="5.25165">
        <ele>1417.705</ele>
        <time>2013-05-06T14:19:30Z</time>
      </trkpt>
      <trkpt lat="44.18033" lon="5.25144">
        <ele>1418.677</ele>
        <time>2013-05-06T14:19:32Z</time>
      </trkpt>
      <trkpt lat="44.18042" lon="5.25111">
        <ele>1415.146</ele>
        <time>2013-05-06T14:19:35Z</time>
      </trkpt>
      <trkpt lat="44.18051" lon="5.25006">
        <ele>1414.379</ele>
        <time>2013-05-06T14:19:44Z</time>
      </trkpt>
      <trkpt lat="44.18053" lon="5.24936">
        <ele>1413.162</ele>
        <time>2013-05-06T14:19:50Z</time>
      </trkpt>
      <trkpt lat="44.18047" lon="5.249">
        <ele>1411.208</ele>
        <time>2013-05-06T14:19:53Z</time>
      </trkpt>
      <trkpt lat="44.18038" lon="5.24851">
        <ele>1407.786</ele>
        <time>2013-05-06T14:19:57Z</time>
      </trkpt>
      <trkpt lat="44.18013" lon="5.24772">
        <ele>1406.353</ele>
        <time>2013-05-06T14:20:04Z</time>
      </trkpt>
      <trkpt lat="44.17991" lon="5.24726">
        <ele>1403.146</ele>
        <time>2013-05-06T14:20:08Z</time>
      </trkpt>
      <trkpt lat="44.17977" lon="5.24702">
        <ele>1399.742</ele>
        <time>2013-05-06T14:20:10Z</time>
      </trkpt>
      <trkpt lat="44.17955" lon="5.24666">
        <ele>1396.065</ele>
        <time>2013-05-06T14:20:13Z</time>
      </trkpt>
      <trkpt lat="44.17936" lon="5.24643">
        <ele>1392.159</ele>
        <time>2013-05-06T14:20:15Z</time>
      </trkpt>
      <trkpt lat="44.17915" lon="5.24619">
        <ele>1388.339</ele>
        <time>2013-05-06T14:20:17Z</time>
      </trkpt>
      <trkpt lat="44.17904" lon="5.24606">
        <ele>1383.497</ele>
        <time>2013-05-06T14:20:18Z</time>
      </trkpt>
      <trkpt lat="44.17893" lon="5.24594">
        <ele>1385.044</ele>
        <time>2013-05-06T14:20:19Z</time>
      </trkpt>
      <trkpt lat="44.17872" lon="5.24569">
        <ele>1386.57</ele>
        <time>2013-05-06T14:20:21Z</time>
      </trkpt>
      <trkpt lat="44.17847" lon="5.24513">
        <ele>1381.643</ele>
        <time>2013-05-06T14:20:25Z</time>
      </trkpt>
      <trkpt lat="44.17847" lon="5.24496">
        <ele>1381.294</ele>
        <time>2013-05-06T14:20:26Z</time>
      </trkpt>
      <trkpt lat="44.17847" lon="5.24445">
        <ele>1379.592</ele>
        <time>2013-05-06T14:20:29Z</time>
      </trkpt>
      <trkpt lat="44.17838" lon="5.24398">
        <ele>1377.727</ele>
        <time>2013-05-06T14:20:32Z</time>
      </trkpt>
      <trkpt lat="44.17816" lon="5.24324">
        <ele>1374.574</ele>
        <time>2013-05-06T14:20:37Z</time>
      </trkpt>
      <trkpt lat="44.17795" lon="5.24267">
        <ele>1370.507</ele>
        <time>2013-05-06T14:20:41Z</time>
      </trkpt>
      <trkpt lat="44.17783" lon="5.24238">
        <ele>1367.497</ele>
        <time>2013-05-06T14:20:43Z</time>
      </trkpt>
      <trkpt lat="44.17742" lon="5.24174">
        <ele>1366.16</ele>
        <time>2013-05-06T14:20:48Z</time>
      </trkpt>
      <trkpt lat="44.17733" lon="5.24162">
        <ele>1365.991</ele>
        <time>2013-05-06T14:20:49Z</time>
      </trkpt>
      <trkpt lat="44.17665" lon="5.24097">
        <ele>1365.539</ele>
        <time>2013-05-06T14:20:56Z</time>
      </trkpt>
      <trkpt lat="44.17656" lon="5.24088">
        <ele>1365.868</ele>
        <time>2013-05-06T14:20:57Z</time>
      </trkpt>
      <trkpt lat="44.17646" lon="5.24038">
        <ele>1362.247</ele>
        <time>2013-05-06T14:21:01Z</time>
      </trkpt>
      <trkpt lat="44.17649" lon="5.24024">
        <ele>1361.352</ele>
        <time>2013-05-06T14:21:02Z</time>
      </trkpt>
      <trkpt lat="44.1766" lon="5.23978">
        <ele>1355.119</ele>
        <time>2013-05-06T14:21:05Z</time>
      </trkpt>
      <trkpt lat="44.17677" lon="5.23933">
        <ele>1351.178</ele>
        <time>2013-05-06T14:21:08Z</time>
      </trkpt>
      <trkpt lat="44.17683" lon="5.23918">
        <ele>1351.164</ele>
        <time>2013-05-06T14:21:09Z</time>
      </trkpt>
      <trkpt lat="44.17691" lon="5.23865">
        <ele>1347.558</ele>
        <time>2013-05-06T14:21:12Z</time>
      </trkpt>
      <trkpt lat="44.17683" lon="5.2383">
        <ele>1340.974</ele>
        <time>2013-05-06T14:21:14Z</time>
      </trkpt>
      <trkpt lat="44.17671" lon="5.23796">
        <ele>1339.004</ele>
        <time>2013-05-06T14:21:16Z</time>
      </trkpt>
      <trkpt lat="44.17664" lon="5.23779">
        <ele>1337.087</ele>
        <time>2013-05-06T14:21:17Z</time>
      </trkpt>
      <trkpt lat="44.17631" lon="5.23713">
        <ele>1325.515</ele>
        <time>2013-05-06T14:21:21Z</time>
      </trkpt>
      <trkpt lat="44.17599" lon="5.23667">
        <ele>1320.101</ele>
        <time>2013-05-06T14:21:24Z</time>
      </trkpt>
      <trkpt lat="44.17589" lon="5.23652">
        <ele>1321.512</ele>
        <time>2013-05-06T14:21:25Z</time>
      </trkpt>
      <trkpt lat="44.17563" lon="5.23606">
        <ele>1320.194</ele>
        <time>2013-05-06T14:21:28Z</time>
      </trkpt>
      <trkpt lat="44.17551" lon="5.23558">
        <ele>1316.839</ele>
        <time>2013-05-06T14:21:31Z</time>
      </trkpt>
      <trkpt lat="44.17553" lon="5.23524">
        <ele>1312.191</ele>
        <time>2013-05-06T14:21:33Z</time>
      </trkpt>
      <trkpt lat="44.17558" lon="5.23506">
        <ele>1309.701</ele>
        <time>2013-05-06T14:21:34Z</time>
      </trkpt>
      <trkpt lat="44.17568" lon="5.23448">
        <ele>1304.754</ele>
        <time>2013-05-06T14:21:37Z</time>
      </trkpt>
      <trkpt lat="44.17568" lon="5.23427">
        <ele>1301.573</ele>
        <time>2013-05-06T14:21:38Z</time>
      </trkpt>
      <trkpt lat="44.17568" lon="5.23406">
        <ele>1299.273</ele>
        <time>2013-05-06T14:21:39Z</time>
      </trkpt>
      <trkpt lat="44.17564" lon="5.23325">
        <ele>1292.89</ele>
        <time>2013-05-06T14:21:43Z</time>
      </trkpt>
      <trkpt lat="44.1756" lon="5.23285">
        <ele>1288.878</ele>
        <time>2013-05-06T14:21:45Z</time>
      </trkpt>
      <trkpt lat="44.17552" lon="5.23245">
        <ele>1285.413</ele>
        <time>2013-05-06T14:21:47Z</time>
      </trkpt>
      <trkpt lat="44.17547" lon="5.23225">
        <ele>1282.333</ele>
        <time>2013-05-06T14:21:48Z</time>
      </trkpt>
      <trkpt lat="44.17538" lon="5.23185">
        <ele>1277.55</ele>
        <time>2013-05-06T14:21:50Z</time>
      </trkpt>
      <trkpt lat="44.17534" lon="5.23165">
        <ele>1280.196</ele>
        <time>2013-05-06T14:21:51Z</time>
      </trkpt>
      <trkpt lat="44.17529" lon="5.23146">
        <ele>1276.812</ele>
        <time>2013-05-06T14:21:52Z</time>
      </trkpt>
      <trkpt lat="44.17516" lon="5.2311">
        <ele>1273.74</ele>
        <time>2013-05-06T14:21:54Z</time>
      </trkpt>
      <trkpt lat="44.17501" lon="5.23075">
        <ele>1268.011</ele>
        <time>2013-05-06T14:21:56Z</time>
      </trkpt>
      <trkpt lat="44.17471" lon="5.23024">
        <ele>1263.682</ele>
        <time>2013-05-06T14:21:59Z</time>
      </trkpt>
      <trkpt lat="44.17461" lon="5.23006">
        <ele>1259.944</ele>
        <time>2013-05-06T14:22:00Z</time>
      </trkpt>
      <trkpt lat="44.17431" lon="5.22946">
        <ele>1253.869</ele>
        <time>2013-05-06T14:22:03Z</time>
      </trkpt>
      <trkpt lat="44.17404" lon="5.22886">
        <ele>1249.193</ele>
        <time>2013-05-06T14:22:06Z</time>
      </trkpt>
      <trkpt lat="44.17387" lon="5.22846">
        <ele>1245.751</ele>
        <time>2013-05-06T14:22:08Z</time>
      </trkpt>
      <trkpt lat="44.17372" lon="5.22805">
        <ele>1238.073</ele>
        <time>2013-05-06T14:22:10Z</time>
      </trkpt>
      <trkpt lat="44.17365" lon="5.22784">
        <ele>1237.779</ele>
        <time>2013-05-06T14:22:11Z</time>
      </trkpt>
      <trkpt lat="44.1735" lon="5.22742">
        <ele>1234.392</ele>
        <time>2013-05-06T14:22:13Z</time>
      </trkpt>
      <trkpt lat="44.17345" lon="5.22721">
        <ele>1235.153</ele>
        <time>2013-05-06T14:22:14Z</time>
      </trkpt>
      <trkpt lat="44.1734" lon="5.227">
        <ele>1231.262</ele>
        <time>2013-05-06T14:22:15Z</time>
      </trkpt>
      <trkpt lat="44.17326" lon="5.22637">
        <ele>1224.947</ele>
        <time>2013-05-06T14:22:18Z</time>
      </trkpt>
      <trkpt lat="44.17316" lon="5.22594">
        <ele>1220.653</ele>
        <time>2013-05-06T14:22:20Z</time>
      </trkpt>
      <trkpt lat="44.17303" lon="5.22534">
        <ele>1214.614</ele>
        <time>2013-05-06T14:22:23Z</time>
      </trkpt>
      <trkpt lat="44.17293" lon="5.22493">
        <ele>1209.766</ele>
        <time>2013-05-06T14:22:25Z</time>
      </trkpt>
      <trkpt lat="44.17268" lon="5.22436">
        <ele>1204.674</ele>
        <time>2013-05-06T14:22:28Z</time>
      </trkpt>
      <trkpt lat="44.17259" lon="5.22416">
        <ele>1201.405</ele>
        <time>2013-05-06T14:22:29Z</time>
      </trkpt>
      <trkpt lat="44.17241" lon="5.22376">
        <ele>1197.179</ele>
        <time>2013-05-06T14:22:31Z</time>
      </trkpt>
      <trkpt lat="44.17228" lon="5.22332">
        <ele>1194.144</ele>
        <time>2013-05-06T14:22:33Z</time>
      </trkpt>
      <trkpt lat="44.17214" lon="5.22287">
        <ele>1188.309</ele>
        <time>2013-05-06T14:22:35Z</time>
      </trkpt>
      <trkpt lat="44.17207" lon="5.22265">
        <ele>1185.239</ele>
        <time>2013-05-06T14:22:36Z</time>
      </trkpt>
      <trkpt lat="44.172" lon="5.22243">
        <ele>1185.207</ele>
        <time>2013-05-06T14:22:37Z</time>
      </trkpt>
      <trkpt lat="44.17169" lon="5.22172">
        <ele>1183.301</ele>
        <time>2013-05-06T14:22:41Z</time>
      </trkpt>
      <trkpt lat="44.17157" lon="5.22143">
        <ele>1178.683</ele>
        <time>2013-05-06T14:22:43Z</time>
      </trkpt>
      <trkpt lat="44.1715" lon="5.22129">
        <ele>1178.632</ele>
        <time>2013-05-06T14:22:44Z</time>
      </trkpt>
      <trkpt lat="44.17133" lon="5.22089">
        <ele>1178.933</ele>
        <time>2013-05-06T14:22:47Z</time>
      </trkpt>
      <trkpt lat="44.17135" lon="5.22061">
        <ele>1178.109</ele>
        <time>2013-05-06T14:22:51Z</time>
      </trkpt>
      <trkpt lat="44.17146" lon="5.22069">
        <ele>1177.211</ele>
        <time>2013-05-06T14:22:53Z</time>
      </trkpt>
      <trkpt lat="44.17152" lon="5.22077">
        <ele>1176.294</ele>
        <time>2013-05-06T14:22:54Z</time>
      </trkpt>
      <trkpt lat="44.1718" lon="5.22109">
        <ele>1173.437</ele>
        <time>2013-05-06T14:22:58Z</time>
      </trkpt>
      <trkpt lat="44.17205" lon="5.22135">
        <ele>1168.84</ele>
        <time>2013-05-06T14:23:01Z</time>
      </trkpt>
      <trkpt lat="44.17222" lon="5.22148">
        <ele>1166.081</ele>
        <time>2013-05-06T14:23:03Z</time>
      </trkpt>
      <trkpt lat="44.17261" lon="5.22166">
        <ele>1162.046</ele>
        <time>2013-05-06T14:23:06Z</time>
      </trkpt>
      <trkpt lat="44.17273" lon="5.22168">
        <ele>1161.423</ele>
        <time>2013-05-06T14:23:07Z</time>
      </trkpt>
      <trkpt lat="44.17312" lon="5.22168">
        <ele>1158.753</ele>
        <time>2013-05-06T14:23:10Z</time>
      </trkpt>
      <trkpt lat="44.1734" lon="5.22143">
        <ele>1154.458</ele>
        <time>2013-05-06T14:23:14Z</time>
      </trkpt>
      <trkpt lat="44.17345" lon="5.22116">
        <ele>1148.818</ele>
        <time>2013-05-06T14:23:16Z</time>
      </trkpt>
      <trkpt lat="44.1734" lon="5.22085">
        <ele>1146.267</ele>
        <time>2013-05-06T14:23:18Z</time>
      </trkpt>
      <trkpt lat="44.17324" lon="5.22056">
        <ele>1142.919</ele>
        <time>2013-05-06T14:23:20Z</time>
      </trkpt>
      <trkpt lat="44.17318" lon="5.22022">
        <ele>1139.311</ele>
        <time>2013-05-06T14:23:22Z</time>
      </trkpt>
      <trkpt lat="44.17316" lon="5.21985">
        <ele>1137.027</ele>
        <time>2013-05-06T14:23:24Z</time>
      </trkpt>
      <trkpt lat="44.17325" lon="5.21864">
        <ele>1127.691</ele>
        <time>2013-05-06T14:23:30Z</time>
      </trkpt>
      <trkpt lat="44.1733" lon="5.21844">
        <ele>1128.534</ele>
        <time>2013-05-06T14:23:31Z</time>
      </trkpt>
      <trkpt lat="44.17349" lon="5.21792">
        <ele>1122.442</ele>
        <time>2013-05-06T14:23:34Z</time>
      </trkpt>
      <trkpt lat="44.17358" lon="5.21778">
        <ele>1121.51</ele>
        <time>2013-05-06T14:23:35Z</time>
      </trkpt>
      <trkpt lat="44.17373" lon="5.21748">
        <ele>1122.136</ele>
        <time>2013-05-06T14:23:37Z</time>
      </trkpt>
      <trkpt lat="44.17384" lon="5.21695">
        <ele>1116.299</ele>
        <time>2013-05-06T14:23:40Z</time>
      </trkpt>
      <trkpt lat="44.17376" lon="5.21658">
        <ele>1112.017</ele>
        <time>2013-05-06T14:23:42Z</time>
      </trkpt>
      <trkpt lat="44.17361" lon="5.216">
        <ele>1102.181</ele>
        <time>2013-05-06T14:23:45Z</time>
      </trkpt>
      <trkpt lat="44.1735" lon="5.2156">
        <ele>1097.208</ele>
        <time>2013-05-06T14:23:47Z</time>
      </trkpt>
      <trkpt lat="44.17333" lon="5.21499">
        <ele>1092.633</ele>
        <time>2013-05-06T14:23:50Z</time>
      </trkpt>
      <trkpt lat="44.17321" lon="5.21456">
        <ele>1088.914</ele>
        <time>2013-05-06T14:23:52Z</time>
      </trkpt>
      <trkpt lat="44.1731" lon="5.21413">
        <ele>1083.446</ele>
        <time>2013-05-06T14:23:54Z</time>
      </trkpt>
      <trkpt lat="44.17298" lon="5.21369">
        <ele>1080.028</ele>
        <time>2013-05-06T14:23:56Z</time>
      </trkpt>
      <trkpt lat="44.17291" lon="5.21346">
        <ele>1076.961</ele>
        <time>2013-05-06T14:23:57Z</time>
      </trkpt>
      <trkpt lat="44.17273" lon="5.21276">
        <ele>1072.765</ele>
        <time>2013-05-06T14:24:00Z</time>
      </trkpt>
      <trkpt lat="44.17263" lon="5.21227">
        <ele>1067.719</ele>
        <time>2013-05-06T14:24:02Z</time>
      </trkpt>
      <trkpt lat="44.17256" lon="5.21177">
        <ele>1064.04</ele>
        <time>2013-05-06T14:24:04Z</time>
      </trkpt>
      <trkpt lat="44.17252" lon="5.21153">
        <ele>1065.105</ele>
        <time>2013-05-06T14:24:05Z</time>
      </trkpt>
      <trkpt lat="44.17248" lon="5.21127">
        <ele>1058.746</ele>
        <time>2013-05-06T14:24:06Z</time>
      </trkpt>
      <trkpt lat="44.17241" lon="5.21078">
        <ele>1053.674</ele>
        <time>2013-05-06T14:24:08Z</time>
      </trkpt>
      <trkpt lat="44.1723" lon="5.21004">
        <ele>1050.217</ele>
        <time>2013-05-06T14:24:11Z</time>
      </trkpt>
      <trkpt lat="44.17226" lon="5.20979">
        <ele>1046.671</ele>
        <time>2013-05-06T14:24:12Z</time>
      </trkpt>
      <trkpt lat="44.17214" lon="5.20905">
        <ele>1041.722</ele>
        <time>2013-05-06T14:24:15Z</time>
      </trkpt>
      <trkpt lat="44.17209" lon="5.20881">
        <ele>1038.253</ele>
        <time>2013-05-06T14:24:16Z</time>
      </trkpt>
      <trkpt lat="44.17198" lon="5.20831">
        <ele>1031.352</ele>
        <time>2013-05-06T14:24:18Z</time>
      </trkpt>
      <trkpt lat="44.17193" lon="5.20807">
        <ele>1031.051</ele>
        <time>2013-05-06T14:24:19Z</time>
      </trkpt>
      <trkpt lat="44.1718" lon="5.20758">
        <ele>1026.581</ele>
        <time>2013-05-06T14:24:21Z</time>
      </trkpt>
      <trkpt lat="44.17165" lon="5.20711">
        <ele>1023.535</ele>
        <time>2013-05-06T14:24:23Z</time>
      </trkpt>
      <trkpt lat="44.17157" lon="5.20687">
        <ele>1023.376</ele>
        <time>2013-05-06T14:24:24Z</time>
      </trkpt>
      <trkpt lat="44.17142" lon="5.2064">
        <ele>1019.147</ele>
        <time>2013-05-06T14:24:26Z</time>
      </trkpt>
      <trkpt lat="44.17127" lon="5.20593">
        <ele>1013.505</ele>
        <time>2013-05-06T14:24:28Z</time>
      </trkpt>
      <trkpt lat="44.1711" lon="5.2055">
        <ele>1010.293</ele>
        <time>2013-05-06T14:24:30Z</time>
      </trkpt>
      <trkpt lat="44.17076" lon="5.20481">
        <ele>1008.924</ele>
        <time>2013-05-06T14:24:34Z</time>
      </trkpt>
      <trkpt lat="44.17066" lon="5.20446">
        <ele>1007.334</ele>
        <time>2013-05-06T14:24:36Z</time>
      </trkpt>
      <trkpt lat="44.17067" lon="5.20407">
        <ele>1003.287</ele>
        <time>2013-05-06T14:24:38Z</time>
      </trkpt>
      <trkpt lat="44.17069" lon="5.20387">
        <ele>998.305</ele>
        <time>2013-05-06T14:24:39Z</time>
      </trkpt>
      <trkpt lat="44.17077" lon="5.20347">
        <ele>995.714</ele>
        <time>2013-05-06T14:24:41Z</time>
      </trkpt>
      <trkpt lat="44.17087" lon="5.20307">
        <ele>992.029</ele>
        <time>2013-05-06T14:24:43Z</time>
      </trkpt>
      <trkpt lat="44.17095" lon="5.20223">
        <ele>987.671</ele>
        <time>2013-05-06T14:24:47Z</time>
      </trkpt>
      <trkpt lat="44.17083" lon="5.20186">
        <ele>984.551</ele>
        <time>2013-05-06T14:24:49Z</time>
      </trkpt>
      <trkpt lat="44.17065" lon="5.20155">
        <ele>983.808</ele>
        <time>2013-05-06T14:24:51Z</time>
      </trkpt>
      <trkpt lat="44.17027" lon="5.20132">
        <ele>983.59</ele>
        <time>2013-05-06T14:24:54Z</time>
      </trkpt>
      <trkpt lat="44.16963" lon="5.20102">
        <ele>980.84</ele>
        <time>2013-05-06T14:24:59Z</time>
      </trkpt>
      <trkpt lat="44.16916" lon="5.20055">
        <ele>975.46</ele>
        <time>2013-05-06T14:25:03Z</time>
      </trkpt>
      <trkpt lat="44.16896" lon="5.20022">
        <ele>971.253</ele>
        <time>2013-05-06T14:25:05Z</time>
      </trkpt>
      <trkpt lat="44.16879" lon="5.19985">
        <ele>969.775</ele>
        <time>2013-05-06T14:25:07Z</time>
      </trkpt>
      <trkpt lat="44.16866" lon="5.19944">
        <ele>966.43</ele>
        <time>2013-05-06T14:25:09Z</time>
      </trkpt>
      <trkpt lat="44.16864" lon="5.19902">
        <ele>962.567</ele>
        <time>2013-05-06T14:25:11Z</time>
      </trkpt>
      <trkpt lat="44.16866" lon="5.19883">
        <ele>958.001</ele>
        <time>2013-05-06T14:25:12Z</time>
      </trkpt>
      <trkpt lat="44.16885" lon="5.19832">
        <ele>953.483</ele>
        <time>2013-05-06T14:25:15Z</time>
      </trkpt>
      <trkpt lat="44.16923" lon="5.19768">
        <ele>949.96</ele>
        <time>2013-05-06T14:25:19Z</time>
      </trkpt>
      <trkpt lat="44.16961" lon="5.19705">
        <ele>947.417</ele>
        <time>2013-05-06T14:25:23Z</time>
      </trkpt>
      <trkpt lat="44.16976" lon="5.19641">
        <ele>946.431</ele>
        <time>2013-05-06T14:25:27Z</time>
      </trkpt>
      <trkpt lat="44.1696" lon="5.19614">
        <ele>943.092</ele>
        <time>2013-05-06T14:25:29Z</time>
      </trkpt>
      <trkpt lat="44.16938" lon="5.19595">
        <ele>938.713</ele>
        <time>2013-05-06T14:25:31Z</time>
      </trkpt>
      <trkpt lat="44.16913" lon="5.19579">
        <ele>937.831</ele>
        <time>2013-05-06T14:25:33Z</time>
      </trkpt>
      <trkpt lat="44.16853" lon="5.19545">
        <ele>936.845</ele>
        <time>2013-05-06T14:25:38Z</time>
      </trkpt>
      <trkpt lat="44.16782" lon="5.19517">
        <ele>934.826</ele>
        <time>2013-05-06T14:25:44Z</time>
      </trkpt>
      <trkpt lat="44.16759" lon="5.19508">
        <ele>931.599</ele>
        <time>2013-05-06T14:25:46Z</time>
      </trkpt>
      <trkpt lat="44.16748" lon="5.19502">
        <ele>933.106</ele>
        <time>2013-05-06T14:25:47Z</time>
      </trkpt>
      <trkpt lat="44.16726" lon="5.19491">
        <ele>929.499</ele>
        <time>2013-05-06T14:25:49Z</time>
      </trkpt>
      <trkpt lat="44.16716" lon="5.19485">
        <ele>929.854</ele>
        <time>2013-05-06T14:25:50Z</time>
      </trkpt>
      <trkpt lat="44.16675" lon="5.19462">
        <ele>927.327</ele>
        <time>2013-05-06T14:25:54Z</time>
      </trkpt>
      <trkpt lat="44.16655" lon="5.19434">
        <ele>923.767</ele>
        <time>2013-05-06T14:25:57Z</time>
      </trkpt>
      <trkpt lat="44.16652" lon="5.1942">
        <ele>923.758</ele>
        <time>2013-05-06T14:25:58Z</time>
      </trkpt>
      <trkpt lat="44.16654" lon="5.19381">
        <ele>923.164</ele>
        <time>2013-05-06T14:26:01Z</time>
      </trkpt>
      <trkpt lat="44.16658" lon="5.19367">
        <ele>923.18</ele>
        <time>2013-05-06T14:26:02Z</time>
      </trkpt>
      <trkpt lat="44.16679" lon="5.1931">
        <ele>917.314</ele>
        <time>2013-05-06T14:26:06Z</time>
      </trkpt>
      <trkpt lat="44.16685" lon="5.19294">
        <ele>917.676</ele>
        <time>2013-05-06T14:26:07Z</time>
      </trkpt>
      <trkpt lat="44.16696" lon="5.19264">
        <ele>913.668</ele>
        <time>2013-05-06T14:26:09Z</time>
      </trkpt>
      <trkpt lat="44.16701" lon="5.19249">
        <ele>911.999</ele>
        <time>2013-05-06T14:26:10Z</time>
      </trkpt>
      <trkpt lat="44.16716" lon="5.19223">
        <ele>909.09</ele>
        <time>2013-05-06T14:26:12Z</time>
      </trkpt>
      <trkpt lat="44.16726" lon="5.19214">
        <ele>912.173</ele>
        <time>2013-05-06T14:26:13Z</time>
      </trkpt>
      <trkpt lat="44.16757" lon="5.19192">
        <ele>908.704</ele>
        <time>2013-05-06T14:26:16Z</time>
      </trkpt>
      <trkpt lat="44.16768" lon="5.19188">
        <ele>905.824</ele>
        <time>2013-05-06T14:26:17Z</time>
      </trkpt>
      <trkpt lat="44.16814" lon="5.19174">
        <ele>901.585</ele>
        <time>2013-05-06T14:26:21Z</time>
      </trkpt>
      <trkpt lat="44.16876" lon="5.19152">
        <ele>900.929</ele>
        <time>2013-05-06T14:26:27Z</time>
      </trkpt>
      <trkpt lat="44.16896" lon="5.19143">
        <ele>905.953</ele>
        <time>2013-05-06T14:26:29Z</time>
      </trkpt>
      <trkpt lat="44.16906" lon="5.19139">
        <ele>904.012</ele>
        <time>2013-05-06T14:26:30Z</time>
      </trkpt>
      <trkpt lat="44.16914" lon="5.19131">
        <ele>902.579</ele>
        <time>2013-05-06T14:26:31Z</time>
      </trkpt>
      <trkpt lat="44.16936" lon="5.19089">
        <ele>903.253</ele>
        <time>2013-05-06T14:26:35Z</time>
      </trkpt>
      <trkpt lat="44.16929" lon="5.19057">
        <ele>902.793</ele>
        <time>2013-05-06T14:26:38Z</time>
      </trkpt>
      <trkpt lat="44.16921" lon="5.19048">
        <ele>902.726</ele>
        <time>2013-05-06T14:26:39Z</time>
      </trkpt>
      <trkpt lat="44.16876" lon="5.18995">
        <ele>899.599</ele>
        <time>2013-05-06T14:26:45Z</time>
      </trkpt>
      <trkpt lat="44.16869" lon="5.18986">
        <ele>899.598</ele>
        <time>2013-05-06T14:26:46Z</time>
      </trkpt>
      <trkpt lat="44.16838" lon="5.1895">
        <ele>897.658</ele>
        <time>2013-05-06T14:26:50Z</time>
      </trkpt>
      <trkpt lat="44.16818" lon="5.18917">
        <ele>891.691</ele>
        <time>2013-05-06T14:26:53Z</time>
      </trkpt>
      <trkpt lat="44.16817" lon="5.18901">
        <ele>891.62</ele>
        <time>2013-05-06T14:26:54Z</time>
      </trkpt>
      <trkpt lat="44.16823" lon="5.18873">
        <ele>888.309</ele>
        <time>2013-05-06T14:26:56Z</time>
      </trkpt>
      <trkpt lat="44.16829" lon="5.18863">
        <ele>885.199</ele>
        <time>2013-05-06T14:26:57Z</time>
      </trkpt>
      <trkpt lat="44.16834" lon="5.1885">
        <ele>885.883</ele>
        <time>2013-05-06T14:26:58Z</time>
      </trkpt>
      <trkpt lat="44.16839" lon="5.18838">
        <ele>889.221</ele>
        <time>2013-05-06T14:26:59Z</time>
      </trkpt>
      <trkpt lat="44.16851" lon="5.18811">
        <ele>882.835</ele>
        <time>2013-05-06T14:27:01Z</time>
      </trkpt>
      <trkpt lat="44.16891" lon="5.18716">
        <ele>880.346</ele>
        <time>2013-05-06T14:27:08Z</time>
      </trkpt>
      <trkpt lat="44.16892" lon="5.18659">
        <ele>879.449</ele>
        <time>2013-05-06T14:27:12Z</time>
      </trkpt>
      <trkpt lat="44.16876" lon="5.1862">
        <ele>877.432</ele>
        <time>2013-05-06T14:27:15Z</time>
      </trkpt>
      <trkpt lat="44.16844" lon="5.18577">
        <ele>873.531</ele>
        <time>2013-05-06T14:27:19Z</time>
      </trkpt>
      <trkpt lat="44.16836" lon="5.18566">
        <ele>872.299</ele>
        <time>2013-05-06T14:27:20Z</time>
      </trkpt>
      <trkpt lat="44.1682" lon="5.18505">
        <ele>873.291</ele>
        <time>2013-05-06T14:27:24Z</time>
      </trkpt>
      <trkpt lat="44.1681" lon="5.18458">
        <ele>867.074</ele>
        <time>2013-05-06T14:27:27Z</time>
      </trkpt>
      <trkpt lat="44.16797" lon="5.18393">
        <ele>863.482</ele>
        <time>2013-05-06T14:27:31Z</time>
      </trkpt>
      <trkpt lat="44.1679" lon="5.1836">
        <ele>861.756</ele>
        <time>2013-05-06T14:27:33Z</time>
      </trkpt>
      <trkpt lat="44.16761" lon="5.18245">
        <ele>858.758</ele>
        <time>2013-05-06T14:27:40Z</time>
      </trkpt>
      <trkpt lat="44.16749" lon="5.18215">
        <ele>854.788</ele>
        <time>2013-05-06T14:27:42Z</time>
      </trkpt>
      <trkpt lat="44.16724" lon="5.18156">
        <ele>851.296</ele>
        <time>2013-05-06T14:27:46Z</time>
      </trkpt>
      <trkpt lat="44.16717" lon="5.18141">
        <ele>851.494</ele>
        <time>2013-05-06T14:27:47Z</time>
      </trkpt>
      <trkpt lat="44.16692" lon="5.18083">
        <ele>843.977</ele>
        <time>2013-05-06T14:27:51Z</time>
      </trkpt>
      <trkpt lat="44.16686" lon="5.18069">
        <ele>843.135</ele>
        <time>2013-05-06T14:27:52Z</time>
      </trkpt>
      <trkpt lat="44.16676" lon="5.18018">
        <ele>840.054</ele>
        <time>2013-05-06T14:27:55Z</time>
      </trkpt>
      <trkpt lat="44.16683" lon="5.17963">
        <ele>837.331</ele>
        <time>2013-05-06T14:27:58Z</time>
      </trkpt>
      <trkpt lat="44.1669" lon="5.17924">
        <ele>829.988</ele>
        <time>2013-05-06T14:28:00Z</time>
      </trkpt>
      <trkpt lat="44.16697" lon="5.17887">
        <ele>826.745</ele>
        <time>2013-05-06T14:28:02Z</time>
      </trkpt>
      <trkpt lat="44.16704" lon="5.17849">
        <ele>820.297</ele>
        <time>2013-05-06T14:28:04Z</time>
      </trkpt>
      <trkpt lat="44.16725" lon="5.17797">
        <ele>817.864</ele>
        <time>2013-05-06T14:28:07Z</time>
      </trkpt>
      <trkpt lat="44.1674" lon="5.17763">
        <ele>814.545</ele>
        <time>2013-05-06T14:28:09Z</time>
      </trkpt>
      <trkpt lat="44.16745" lon="5.17744">
        <ele>810.902</ele>
        <time>2013-05-06T14:28:10Z</time>
      </trkpt>
      <trkpt lat="44.16748" lon="5.17649">
        <ele>810.771</ele>
        <time>2013-05-06T14:28:15Z</time>
      </trkpt>
      <trkpt lat="44.16742" lon="5.17613">
        <ele>808.958</ele>
        <time>2013-05-06T14:28:17Z</time>
      </trkpt>
      <trkpt lat="44.16733" lon="5.17578">
        <ele>806.015</ele>
        <time>2013-05-06T14:28:19Z</time>
      </trkpt>
      <trkpt lat="44.16728" lon="5.17561">
        <ele>806.296</ele>
        <time>2013-05-06T14:28:20Z</time>
      </trkpt>
      <trkpt lat="44.1672" lon="5.17471">
        <ele>802.983</ele>
        <time>2013-05-06T14:28:25Z</time>
      </trkpt>
      <trkpt lat="44.16719" lon="5.17377">
        <ele>797.878</ele>
        <time>2013-05-06T14:28:30Z</time>
      </trkpt>
      <trkpt lat="44.16719" lon="5.17338">
        <ele>794.216</ele>
        <time>2013-05-06T14:28:32Z</time>
      </trkpt>
      <trkpt lat="44.16719" lon="5.17299">
        <ele>790.535</ele>
        <time>2013-05-06T14:28:34Z</time>
      </trkpt>
      <trkpt lat="44.16719" lon="5.17279">
        <ele>786.186</ele>
        <time>2013-05-06T14:28:35Z</time>
      </trkpt>
      <trkpt lat="44.16719" lon="5.17239">
        <ele>782.673</ele>
        <time>2013-05-06T14:28:37Z</time>
      </trkpt>
      <trkpt lat="44.16719" lon="5.17218">
        <ele>782.416</ele>
        <time>2013-05-06T14:28:38Z</time>
      </trkpt>
      <trkpt lat="44.16719" lon="5.17134">
        <ele>779.073</ele>
        <time>2013-05-06T14:28:42Z</time>
      </trkpt>
      <trkpt lat="44.1672" lon="5.17112">
        <ele>775.599</ele>
        <time>2013-05-06T14:28:43Z</time>
      </trkpt>
      <trkpt lat="44.16722" lon="5.1709">
        <ele>776.471</ele>
        <time>2013-05-06T14:28:44Z</time>
      </trkpt>
      <trkpt lat="44.16727" lon="5.17002">
        <ele>772.165</ele>
        <time>2013-05-06T14:28:48Z</time>
      </trkpt>
      <trkpt lat="44.16715" lon="5.16919">
        <ele>775.468</ele>
        <time>2013-05-06T14:28:52Z</time>
      </trkpt>
      <trkpt lat="44.16697" lon="5.16857">
        <ele>770.714</ele>
        <time>2013-05-06T14:28:55Z</time>
      </trkpt>
      <trkpt lat="44.16682" lon="5.16819">
        <ele>768.45</ele>
        <time>2013-05-06T14:28:57Z</time>
      </trkpt>
      <trkpt lat="44.16674" lon="5.16801">
        <ele>764.304</ele>
        <time>2013-05-06T14:28:58Z</time>
      </trkpt>
      <trkpt lat="44.16666" lon="5.16784">
        <ele>764.168</ele>
        <time>2013-05-06T14:28:59Z</time>
      </trkpt>
      <trkpt lat="44.16641" lon="5.16735">
        <ele>761.176</ele>
        <time>2013-05-06T14:29:02Z</time>
      </trkpt>
      <trkpt lat="44.16623" lon="5.16662">
        <ele>759.751</ele>
        <time>2013-05-06T14:29:06Z</time>
      </trkpt>
      <trkpt lat="44.16615" lon="5.16625">
        <ele>758.419</ele>
        <time>2013-05-06T14:29:08Z</time>
      </trkpt>
      <trkpt lat="44.16605" lon="5.1657">
        <ele>756.959</ele>
        <time>2013-05-06T14:29:11Z</time>
      </trkpt>
      <trkpt lat="44.166" lon="5.16533">
        <ele>753.635</ele>
        <time>2013-05-06T14:29:13Z</time>
      </trkpt>
      <trkpt lat="44.16592" lon="5.16456">
        <ele>750.063</ele>
        <time>2013-05-06T14:29:17Z</time>
      </trkpt>
      <trkpt lat="44.16588" lon="5.16417">
        <ele>749.224</ele>
        <time>2013-05-06T14:29:19Z</time>
      </trkpt>
      <trkpt lat="44.16572" lon="5.1634">
        <ele>745.842</ele>
        <time>2013-05-06T14:29:23Z</time>
      </trkpt>
      <trkpt lat="44.16548" lon="5.1629">
        <ele>740.727</ele>
        <time>2013-05-06T14:29:26Z</time>
      </trkpt>
      <trkpt lat="44.1651" lon="5.16231">
        <ele>736.237</ele>
        <time>2013-05-06T14:29:30Z</time>
      </trkpt>
      <trkpt lat="44.16489" lon="5.16158">
        <ele>731.166</ele>
        <time>2013-05-06T14:29:34Z</time>
      </trkpt>
      <trkpt lat="44.16474" lon="5.16082">
        <ele>727.08</ele>
        <time>2013-05-06T14:29:38Z</time>
      </trkpt>
      <trkpt lat="44.16456" lon="5.16028">
        <ele>723.427</ele>
        <time>2013-05-06T14:29:41Z</time>
      </trkpt>
      <trkpt lat="44.16442" lon="5.15992">
        <ele>722.195</ele>
        <time>2013-05-06T14:29:43Z</time>
      </trkpt>
      <trkpt lat="44.16423" lon="5.15963">
        <ele>720.437</ele>
        <time>2013-05-06T14:29:45Z</time>
      </trkpt>
      <trkpt lat="44.16385" lon="5.15935">
        <ele>717.768</ele>
        <time>2013-05-06T14:29:48Z</time>
      </trkpt>
      <trkpt lat="44.1637" lon="5.15932">
        <ele>720.025</ele>
        <time>2013-05-06T14:29:49Z</time>
      </trkpt>
      <trkpt lat="44.16343" lon="5.15927">
        <ele>719.406</ele>
        <time>2013-05-06T14:29:51Z</time>
      </trkpt>
      <trkpt lat="44.16285" lon="5.15895">
        <ele>719.976</ele>
        <time>2013-05-06T14:29:56Z</time>
      </trkpt>
      <trkpt lat="44.16266" lon="5.15878">
        <ele>720.952</ele>
        <time>2013-05-06T14:29:58Z</time>
      </trkpt>
      <trkpt lat="44.1625" lon="5.15831">
        <ele>720.137</ele>
        <time>2013-05-06T14:30:02Z</time>
      </trkpt>
      <trkpt lat="44.16244" lon="5.15777">
        <ele>717.019</ele>
        <time>2013-05-06T14:30:06Z</time>
      </trkpt>
      <trkpt lat="44.16243" lon="5.15764">
        <ele>716.864</ele>
        <time>2013-05-06T14:30:07Z</time>
      </trkpt>
      <trkpt lat="44.16235" lon="5.15697">
        <ele>718.694</ele>
        <time>2013-05-06T14:30:12Z</time>
      </trkpt>
      <trkpt lat="44.16231" lon="5.1567">
        <ele>714.514</ele>
        <time>2013-05-06T14:30:14Z</time>
      </trkpt>
      <trkpt lat="44.16228" lon="5.15657">
        <ele>714.269</ele>
        <time>2013-05-06T14:30:15Z</time>
      </trkpt>
      <trkpt lat="44.16203" lon="5.15582">
        <ele>709.917</ele>
        <time>2013-05-06T14:30:21Z</time>
      </trkpt>
      <trkpt lat="44.16186" lon="5.15548">
        <ele>708.026</ele>
        <time>2013-05-06T14:30:24Z</time>
      </trkpt>
      <trkpt lat="44.16157" lon="5.15509">
        <ele>706.039</ele>
        <time>2013-05-06T14:30:28Z</time>
      </trkpt>
      <trkpt lat="44.16084" lon="5.15447">
        <ele>702.612</ele>
        <time>2013-05-06T14:30:36Z</time>
      </trkpt>
      <trkpt lat="44.16045" lon="5.15416">
        <ele>698.914</ele>
        <time>2013-05-06T14:30:40Z</time>
      </trkpt>
      <trkpt lat="44.15999" lon="5.15401">
        <ele>694.516</ele>
        <time>2013-05-06T14:30:44Z</time>
      </trkpt>
      <trkpt lat="44.15987" lon="5.15399">
        <ele>692.829</ele>
        <time>2013-05-06T14:30:45Z</time>
      </trkpt>
      <trkpt lat="44.15961" lon="5.15393">
        <ele>691.395</ele>
        <time>2013-05-06T14:30:47Z</time>
      </trkpt>
      <trkpt lat="44.15924" lon="5.15399">
        <ele>688.811</ele>
        <time>2013-05-06T14:30:50Z</time>
      </trkpt>
      <trkpt lat="44.15901" lon="5.15403">
        <ele>686.409</ele>
        <time>2013-05-06T14:30:52Z</time>
      </trkpt>
      <trkpt lat="44.15865" lon="5.15376">
        <ele>680.426</ele>
        <time>2013-05-06T14:30:56Z</time>
      </trkpt>
      <trkpt lat="44.15857" lon="5.15362">
        <ele>678.011</ele>
        <time>2013-05-06T14:30:57Z</time>
      </trkpt>
      <trkpt lat="44.15842" lon="5.15333">
        <ele>676.017</ele>
        <time>2013-05-06T14:30:59Z</time>
      </trkpt>
      <trkpt lat="44.15832" lon="5.15319">
        <ele>676.339</ele>
        <time>2013-05-06T14:31:00Z</time>
      </trkpt>
      <trkpt lat="44.15822" lon="5.15307">
        <ele>672.74</ele>
        <time>2013-05-06T14:31:01Z</time>
      </trkpt>
      <trkpt lat="44.15801" lon="5.15281">
        <ele>672.13</ele>
        <time>2013-05-06T14:31:03Z</time>
      </trkpt>
      <trkpt lat="44.15781" lon="5.15252">
        <ele>667.192</ele>
        <time>2013-05-06T14:31:05Z</time>
      </trkpt>
      <trkpt lat="44.15763" lon="5.1522">
        <ele>662.741</ele>
        <time>2013-05-06T14:31:07Z</time>
      </trkpt>
      <trkpt lat="44.15745" lon="5.15162">
        <ele>657.428</ele>
        <time>2013-05-06T14:31:10Z</time>
      </trkpt>
      <trkpt lat="44.15734" lon="5.15123">
        <ele>654.084</ele>
        <time>2013-05-06T14:31:12Z</time>
      </trkpt>
      <trkpt lat="44.15728" lon="5.15104">
        <ele>652.07</ele>
        <time>2013-05-06T14:31:13Z</time>
      </trkpt>
      <trkpt lat="44.15725" lon="5.15045">
        <ele>650.062</ele>
        <time>2013-05-06T14:31:16Z</time>
      </trkpt>
      <trkpt lat="44.15726" lon="5.15024">
        <ele>647.188</ele>
        <time>2013-05-06T14:31:17Z</time>
      </trkpt>
      <trkpt lat="44.15717" lon="5.14944">
        <ele>641.391</ele>
        <time>2013-05-06T14:31:21Z</time>
      </trkpt>
      <trkpt lat="44.15705" lon="5.14907">
        <ele>637.206</ele>
        <time>2013-05-06T14:31:23Z</time>
      </trkpt>
      <trkpt lat="44.15687" lon="5.14875">
        <ele>633.666</ele>
        <time>2013-05-06T14:31:25Z</time>
      </trkpt>
      <trkpt lat="44.15644" lon="5.1482">
        <ele>630.704</ele>
        <time>2013-05-06T14:31:29Z</time>
      </trkpt>
      <trkpt lat="44.15633" lon="5.14808">
        <ele>630.605</ele>
        <time>2013-05-06T14:31:30Z</time>
      </trkpt>
      <trkpt lat="44.15613" lon="5.14788">
        <ele>631.333</ele>
        <time>2013-05-06T14:31:32Z</time>
      </trkpt>
      <trkpt lat="44.15597" lon="5.14754">
        <ele>627.526</ele>
        <time>2013-05-06T14:31:36Z</time>
      </trkpt>
      <trkpt lat="44.156" lon="5.14747">
        <ele>623.319</ele>
        <time>2013-05-06T14:31:37Z</time>
      </trkpt>
      <trkpt lat="44.15623" lon="5.14732">
        <ele>620.418</ele>
        <time>2013-05-06T14:31:40Z</time>
      </trkpt>
      <trkpt lat="44.15632" lon="5.14729">
        <ele>618.646</ele>
        <time>2013-05-06T14:31:41Z</time>
      </trkpt>
      <trkpt lat="44.15675" lon="5.14716">
        <ele>615.018</ele>
        <time>2013-05-06T14:31:45Z</time>
      </trkpt>
      <trkpt lat="44.15724" lon="5.14716">
        <ele>610.405</ele>
        <time>2013-05-06T14:31:49Z</time>
      </trkpt>
      <trkpt lat="44.15763" lon="5.14732">
        <ele>606.16</ele>
        <time>2013-05-06T14:31:52Z</time>
      </trkpt>
      <trkpt lat="44.15776" lon="5.14738">
        <ele>600.876</ele>
        <time>2013-05-06T14:31:53Z</time>
      </trkpt>
      <trkpt lat="44.15788" lon="5.14742">
        <ele>596.555</ele>
        <time>2013-05-06T14:31:54Z</time>
      </trkpt>
      <trkpt lat="44.15801" lon="5.14746">
        <ele>599.177</ele>
        <time>2013-05-06T14:31:55Z</time>
      </trkpt>
      <trkpt lat="44.15839" lon="5.14757">
        <ele>596.148</ele>
        <time>2013-05-06T14:31:58Z</time>
      </trkpt>
      <trkpt lat="44.15852" lon="5.14761">
        <ele>594.462</ele>
        <time>2013-05-06T14:31:59Z</time>
      </trkpt>
      <trkpt lat="44.15876" lon="5.14773">
        <ele>592.387</ele>
        <time>2013-05-06T14:32:01Z</time>
      </trkpt>
      <trkpt lat="44.15901" lon="5.14812">
        <ele>592.981</ele>
        <time>2013-05-06T14:32:04Z</time>
      </trkpt>
      <trkpt lat="44.15913" lon="5.14845">
        <ele>590.138</ele>
        <time>2013-05-06T14:32:06Z</time>
      </trkpt>
      <trkpt lat="44.15959" lon="5.14902">
        <ele>587.465</ele>
        <time>2013-05-06T14:32:11Z</time>
      </trkpt>
      <trkpt lat="44.15988" lon="5.14911">
        <ele>585.461</ele>
        <time>2013-05-06T14:32:14Z</time>
      </trkpt>
      <trkpt lat="44.16005" lon="5.14846">
        <ele>582.065</ele>
        <time>2013-05-06T14:32:36Z</time>
      </trkpt>
      <trkpt lat="44.1601" lon="5.14814">
        <ele>575.185</ele>
        <time>2013-05-06T14:32:22Z</time>
      </trkpt>
      <trkpt lat="44.16048" lon="5.1474">
        <ele>570.982</ele>
        <time>2013-05-06T14:32:28Z</time>
      </trkpt>
      <trkpt lat="44.16053" lon="5.14725">
        <ele>570.982</ele>
        <time>2013-05-06T14:32:29Z</time>
      </trkpt>
      <trkpt lat="44.16057" lon="5.14711">
        <ele>564.461</ele>
        <time>2013-05-06T14:32:30Z</time>
      </trkpt>
      <trkpt lat="44.16061" lon="5.14699">
        <ele>565.83</ele>
        <time>2013-05-06T14:32:31Z</time>
      </trkpt>
      <trkpt lat="44.16087" lon="5.14686">
        <ele>565.555</ele>
        <time>2013-05-06T14:32:34Z</time>
      </trkpt>
      <trkpt lat="44.16109" lon="5.14697">
        <ele>562.164</ele>
        <time>2013-05-06T14:32:36Z</time>
      </trkpt>
      <trkpt lat="44.16138" lon="5.14702">
        <ele>559.306</ele>
        <time>2013-05-06T14:32:39Z</time>
      </trkpt>
      <trkpt lat="44.16147" lon="5.14689">
        <ele>557.09</ele>
        <time>2013-05-06T14:32:41Z</time>
      </trkpt>
      <trkpt lat="44.16144" lon="5.14666">
        <ele>552.738</ele>
        <time>2013-05-06T14:32:43Z</time>
      </trkpt>
      <trkpt lat="44.16132" lon="5.14591">
        <ele>544.926</ele>
        <time>2013-05-06T14:32:48Z</time>
      </trkpt>
      <trkpt lat="44.16122" lon="5.14562">
        <ele>542.859</ele>
        <time>2013-05-06T14:32:50Z</time>
      </trkpt>
      <trkpt lat="44.16118" lon="5.1453">
        <ele>541.809</ele>
        <time>2013-05-06T14:32:52Z</time>
      </trkpt>
      <trkpt lat="44.16105" lon="5.14469">
        <ele>535.261</ele>
        <time>2013-05-06T14:32:56Z</time>
      </trkpt>
      <trkpt lat="44.16088" lon="5.14442">
        <ele>530.322</ele>
        <time>2013-05-06T14:32:58Z</time>
      </trkpt>
      <trkpt lat="44.16079" lon="5.14428">
        <ele>529.513</ele>
        <time>2013-05-06T14:32:59Z</time>
      </trkpt>
      <trkpt lat="44.16037" lon="5.14377">
        <ele>524.134</ele>
        <time>2013-05-06T14:33:03Z</time>
      </trkpt>
      <trkpt lat="44.16016" lon="5.14352">
        <ele>520.613</ele>
        <time>2013-05-06T14:33:05Z</time>
      </trkpt>
      <trkpt lat="44.16006" lon="5.1434">
        <ele>518.885</ele>
        <time>2013-05-06T14:33:06Z</time>
      </trkpt>
      <trkpt lat="44.15976" lon="5.14293">
        <ele>513.282</ele>
        <time>2013-05-06T14:33:10Z</time>
      </trkpt>
      <trkpt lat="44.15977" lon="5.14265">
        <ele>511.161</ele>
        <time>2013-05-06T14:33:12Z</time>
      </trkpt>
      <trkpt lat="44.15994" lon="5.14222">
        <ele>506.401</ele>
        <time>2013-05-06T14:33:15Z</time>
      </trkpt>
      <trkpt lat="44.1601" lon="5.14194">
        <ele>501.699</ele>
        <time>2013-05-06T14:33:17Z</time>
      </trkpt>
      <trkpt lat="44.16031" lon="5.14172">
        <ele>499.565</ele>
        <time>2013-05-06T14:33:19Z</time>
      </trkpt>
      <trkpt lat="44.16079" lon="5.14141">
        <ele>495.159</ele>
        <time>2013-05-06T14:33:23Z</time>
      </trkpt>
      <trkpt lat="44.1609" lon="5.14139">
        <ele>493.452</ele>
        <time>2013-05-06T14:33:24Z</time>
      </trkpt>
      <trkpt lat="44.16143" lon="5.14139">
        <ele>486.871</ele>
        <time>2013-05-06T14:33:28Z</time>
      </trkpt>
      <trkpt lat="44.16156" lon="5.14139">
        <ele>486.848</ele>
        <time>2013-05-06T14:33:29Z</time>
      </trkpt>
      <trkpt lat="44.16194" lon="5.1413">
        <ele>483.028</ele>
        <time>2013-05-06T14:33:32Z</time>
      </trkpt>
      <trkpt lat="44.16207" lon="5.14126">
        <ele>484.133</ele>
        <time>2013-05-06T14:33:33Z</time>
      </trkpt>
      <trkpt lat="44.16219" lon="5.14122">
        <ele>479.682</ele>
        <time>2013-05-06T14:33:34Z</time>
      </trkpt>
      <trkpt lat="44.1627" lon="5.14122">
        <ele>476.624</ele>
        <time>2013-05-06T14:33:38Z</time>
      </trkpt>
      <trkpt lat="44.16293" lon="5.14122">
        <ele>473.197</ele>
        <time>2013-05-06T14:33:40Z</time>
      </trkpt>
      <trkpt lat="44.16318" lon="5.14122">
        <ele>472.35</ele>
        <time>2013-05-06T14:33:42Z</time>
      </trkpt>
      <trkpt lat="44.16331" lon="5.14123">
        <ele>471.641</ele>
        <time>2013-05-06T14:33:43Z</time>
      </trkpt>
      <trkpt lat="44.16368" lon="5.1414">
        <ele>466.766</ele>
        <time>2013-05-06T14:33:46Z</time>
      </trkpt>
      <trkpt lat="44.16395" lon="5.14176">
        <ele>465.589</ele>
        <time>2013-05-06T14:33:49Z</time>
      </trkpt>
      <trkpt lat="44.1643" lon="5.14225">
        <ele>463.538</ele>
        <time>2013-05-06T14:33:53Z</time>
      </trkpt>
      <trkpt lat="44.16456" lon="5.14257">
        <ele>459.299</ele>
        <time>2013-05-06T14:33:56Z</time>
      </trkpt>
      <trkpt lat="44.16464" lon="5.1427">
        <ele>457.979</ele>
        <time>2013-05-06T14:33:57Z</time>
      </trkpt>
      <trkpt lat="44.16489" lon="5.14327">
        <ele>455.843</ele>
        <time>2013-05-06T14:34:01Z</time>
      </trkpt>
      <trkpt lat="44.16503" lon="5.14389">
        <ele>451.857</ele>
        <time>2013-05-06T14:34:05Z</time>
      </trkpt>
      <trkpt lat="44.165" lon="5.14425">
        <ele>448.645</ele>
        <time>2013-05-06T14:34:07Z</time>
      </trkpt>
      <trkpt lat="44.16511" lon="5.14487">
        <ele>444.592</ele>
        <time>2013-05-06T14:34:11Z</time>
      </trkpt>
      <trkpt lat="44.16529" lon="5.14513">
        <ele>437.665</ele>
        <time>2013-05-06T14:34:14Z</time>
      </trkpt>
      <trkpt lat="44.16538" lon="5.14524">
        <ele>439.432</ele>
        <time>2013-05-06T14:34:15Z</time>
      </trkpt>
      <trkpt lat="44.16553" lon="5.14581">
        <ele>436.418</ele>
        <time>2013-05-06T14:34:18Z</time>
      </trkpt>
      <trkpt lat="44.16549" lon="5.14626">
        <ele>430.687</ele>
        <time>2013-05-06T14:34:21Z</time>
      </trkpt>
      <trkpt lat="44.1656" lon="5.14723">
        <ele>427.383</ele>
        <time>2013-05-06T14:34:28Z</time>
      </trkpt>
      <trkpt lat="44.16566" lon="5.14729">
        <ele>426.5</ele>
        <time>2013-05-06T14:34:29Z</time>
      </trkpt>
      <trkpt lat="44.16593" lon="5.14739">
        <ele>421.696</ele>
        <time>2013-05-06T14:34:32Z</time>
      </trkpt>
      <trkpt lat="44.16605" lon="5.14743">
        <ele>423.151</ele>
        <time>2013-05-06T14:34:33Z</time>
      </trkpt>
      <trkpt lat="44.16623" lon="5.1477">
        <ele>426.336</ele>
        <time>2013-05-06T14:34:35Z</time>
      </trkpt>
      <trkpt lat="44.16645" lon="5.14832">
        <ele>421.135</ele>
        <time>2013-05-06T14:34:39Z</time>
      </trkpt>
      <trkpt lat="44.1666" lon="5.14857">
        <ele>419.183</ele>
        <time>2013-05-06T14:34:41Z</time>
      </trkpt>
      <trkpt lat="44.16688" lon="5.14873">
        <ele>416.766</ele>
        <time>2013-05-06T14:34:44Z</time>
      </trkpt>
      <trkpt lat="44.16707" lon="5.14869">
        <ele>420.67</ele>
        <time>2013-05-06T14:34:46Z</time>
      </trkpt>
      <trkpt lat="44.16727" lon="5.14843">
        <ele>422.965</ele>
        <time>2013-05-06T14:34:49Z</time>
      </trkpt>
      <trkpt lat="44.16752" lon="5.14787">
        <ele>415.272</ele>
        <time>2013-05-06T14:34:54Z</time>
      </trkpt>
      <trkpt lat="44.16789" lon="5.14673">
        <ele>413.417</ele>
        <time>2013-05-06T14:35:04Z</time>
      </trkpt>
      <trkpt lat="44.168" lon="5.1464">
        <ele>411.761</ele>
        <time>2013-05-06T14:35:07Z</time>
      </trkpt>
      <trkpt lat="44.16825" lon="5.14541">
        <ele>414.296</ele>
        <time>2013-05-06T14:35:16Z</time>
      </trkpt>
      <trkpt lat="44.16827" lon="5.14531">
        <ele>414.495</ele>
        <time>2013-05-06T14:35:17Z</time>
      </trkpt>
      <trkpt lat="44.16833" lon="5.14502">
        <ele>410.623</ele>
        <time>2013-05-06T14:35:20Z</time>
      </trkpt>
      <trkpt lat="44.16834" lon="5.14492">
        <ele>410.668</ele>
        <time>2013-05-06T14:35:21Z</time>
      </trkpt>
      <trkpt lat="44.16838" lon="5.14474">
        <ele>412.468</ele>
        <time>2013-05-06T14:35:23Z</time>
      </trkpt>
      <trkpt lat="44.16846" lon="5.14434">
        <ele>408.631</ele>
        <time>2013-05-06T14:35:27Z</time>
      </trkpt>
      <trkpt lat="44.1685" lon="5.14414">
        <ele>404.931</ele>
        <time>2013-05-06T14:35:29Z</time>
      </trkpt>
      <trkpt lat="44.16853" lon="5.14404">
        <ele>405.336</ele>
        <time>2013-05-06T14:35:30Z</time>
      </trkpt>
      <trkpt lat="44.16871" lon="5.14346">
        <ele>404.767</ele>
        <time>2013-05-06T14:35:36Z</time>
      </trkpt>
      <trkpt lat="44.16887" lon="5.14317">
        <ele>400.988</ele>
        <time>2013-05-06T14:35:39Z</time>
      </trkpt>
      <trkpt lat="44.16909" lon="5.14278">
        <ele>404.1</ele>
        <time>2013-05-06T14:35:43Z</time>
      </trkpt>
      <trkpt lat="44.16926" lon="5.14245">
        <ele>399.075</ele>
        <time>2013-05-06T14:35:46Z</time>
      </trkpt>
      <trkpt lat="44.16939" lon="5.14224">
        <ele>397.958</ele>
        <time>2013-05-06T14:35:48Z</time>
      </trkpt>
      <trkpt lat="44.16946" lon="5.14214">
        <ele>394.345</ele>
        <time>2013-05-06T14:35:49Z</time>
      </trkpt>
      <trkpt lat="44.16952" lon="5.14204">
        <ele>394.499</ele>
        <time>2013-05-06T14:35:50Z</time>
      </trkpt>
      <trkpt lat="44.16972" lon="5.14175">
        <ele>394.772</ele>
        <time>2013-05-06T14:35:53Z</time>
      </trkpt>
      <trkpt lat="44.17005" lon="5.14125">
        <ele>387.734</ele>
        <time>2013-05-06T14:35:58Z</time>
      </trkpt>
      <trkpt lat="44.17011" lon="5.14115">
        <ele>388.345</ele>
        <time>2013-05-06T14:35:59Z</time>
      </trkpt>
      <trkpt lat="44.17036" lon="5.14077">
        <ele>386.482</ele>
        <time>2013-05-06T14:36:03Z</time>
      </trkpt>
      <trkpt lat="44.17048" lon="5.14058">
        <ele>386.834</ele>
        <time>2013-05-06T14:36:05Z</time>
      </trkpt>
      <trkpt lat="44.17059" lon="5.14039">
        <ele>385.759</ele>
        <time>2013-05-06T14:36:07Z</time>
      </trkpt>
      <trkpt lat="44.17068" lon="5.14015">
        <ele>384.114</ele>
        <time>2013-05-06T14:36:09Z</time>
      </trkpt>
      <trkpt lat="44.1708" lon="5.13981">
        <ele>385.159</ele>
        <time>2013-05-06T14:36:12Z</time>
      </trkpt>
      <trkpt lat="44.17099" lon="5.13955">
        <ele>378.862</ele>
        <time>2013-05-06T14:36:15Z</time>
      </trkpt>
      <trkpt lat="44.17121" lon="5.13925">
        <ele>377.275</ele>
        <time>2013-05-06T14:36:18Z</time>
      </trkpt>
      <trkpt lat="44.17135" lon="5.13903">
        <ele>373.59</ele>
        <time>2013-05-06T14:36:22Z</time>
      </trkpt>
      <trkpt lat="44.17169" lon="5.13831">
        <ele>372.313</ele>
        <time>2013-05-06T14:36:26Z</time>
      </trkpt>
      <trkpt lat="44.17197" lon="5.13784">
        <ele>366.607</ele>
        <time>2013-05-06T14:36:30Z</time>
      </trkpt>
      <trkpt lat="44.17221" lon="5.1375">
        <ele>363.833</ele>
        <time>2013-05-06T14:36:33Z</time>
      </trkpt>
      <trkpt lat="44.17264" lon="5.13702">
        <ele>362.795</ele>
        <time>2013-05-06T14:36:38Z</time>
      </trkpt>
      <trkpt lat="44.17291" lon="5.13658">
        <ele>360.923</ele>
        <time>2013-05-06T14:36:42Z</time>
      </trkpt>
      <trkpt lat="44.17306" lon="5.13586">
        <ele>355.936</ele>
        <time>2013-05-06T14:36:47Z</time>
      </trkpt>
      <trkpt lat="44.17308" lon="5.1355">
        <ele>358.482</ele>
        <time>2013-05-06T14:36:50Z</time>
      </trkpt>
      <trkpt lat="44.17309" lon="5.13534">
        <ele>357.299</ele>
        <time>2013-05-06T14:36:52Z</time>
      </trkpt>
      <trkpt lat="44.17311" lon="5.13497">
        <ele>356.717</ele>
        <time>2013-05-06T14:36:57Z</time>
      </trkpt>
      <trkpt lat="44.17311" lon="5.13492">
        <ele>356.797</ele>
        <time>2013-05-06T14:36:58Z</time>
      </trkpt>
      <trkpt lat="44.17312" lon="5.13481">
        <ele>353.984</ele>
        <time>2013-05-06T14:37:04Z</time>
      </trkpt>
      <trkpt lat="44.17312" lon="5.13476">
        <ele>354.557</ele>
        <time>2013-05-06T14:37:05Z</time>
      </trkpt>
      <trkpt lat="44.17315" lon="5.1344">
        <ele>354.008</ele>
        <time>2013-05-06T14:37:12Z</time>
      </trkpt>
      <trkpt lat="44.17315" lon="5.13438">
        <ele>355.337</ele>
        <time>2013-05-06T14:37:15Z</time>
      </trkpt>
      <trkpt lat="44.17315" lon="5.13438">
        <ele>354.422</ele>
        <time>2013-05-06T14:37:21Z</time>
      </trkpt>
      <trkpt lat="44.17315" lon="5.13438">
        <ele>355.209</ele>
        <time>2013-05-06T14:38:50Z</time>
      </trkpt>
      <trkpt lat="44.17315" lon="5.13438">
        <ele>354.34</ele>
        <time>2013-05-06T14:40:09Z</time>
      </trkpt>
      <trkpt lat="44.17315" lon="5.13438">
        <ele>352.43</ele>
        <time>2013-05-06T14:41:51Z</time>
      </trkpt>
      <trkpt lat="44.17315" lon="5.13438">
        <ele>353.328</ele>
        <time>2013-05-06T14:42:15Z</time>
      </trkpt>
      <trkpt lat="44.17315" lon="5.13438">
        <ele>351.731</ele>
        <time>2013-05-06T14:43:09Z</time>
      </trkpt>
      <trkpt lat="44.17315" lon="5.13438">
        <ele>352.097</ele>
        <time>2013-05-06T14:43:20Z</time>
      </trkpt>
      <trkpt lat="44.17315" lon="5.13428">
        <ele>351.713</ele>
        <time>2013-05-06T14:43:28Z</time>
      </trkpt>
      <trkpt lat="44.17315" lon="5.1341">
        <ele>350.139</ele>
        <time>2013-05-06T14:43:32Z</time>
      </trkpt>
      <trkpt lat="44.17315" lon="5.1338">
        <ele>349.614</ele>
        <time>2013-05-06T14:43:38Z</time>
      </trkpt>
      <trkpt lat="44.17334" lon="5.13366">
        <ele>348.313</ele>
        <time>2013-05-06T14:43:41Z</time>
      </trkpt>
      <trkpt lat="44.17343" lon="5.13365">
        <ele>346.135</ele>
        <time>2013-05-06T14:43:45Z</time>
      </trkpt>
      <trkpt lat="44.17348" lon="5.1336">
        <ele>349.563</ele>
        <time>2013-05-06T14:43:47Z</time>
      </trkpt>
      <trkpt lat="44.17351" lon="5.13358">
        <ele>348.713</ele>
        <time>2013-05-06T14:43:48Z</time>
      </trkpt>
      <trkpt lat="44.17361" lon="5.13349">
        <ele>346.275</ele>
        <time>2013-05-06T14:43:51Z</time>
      </trkpt>
      <trkpt lat="44.17374" lon="5.13337">
        <ele>346.977</ele>
        <time>2013-05-06T14:43:56Z</time>
      </trkpt>
      <trkpt lat="44.17374" lon="5.13337">
        <ele>347.14</ele>
        <time>2013-05-06T14:44:03Z</time>
      </trkpt>
      <trkpt lat="44.17374" lon="5.13337">
        <ele>346.583</ele>
        <time>2013-05-06T14:44:18Z</time>
      </trkpt>
      <trkpt lat="44.17374" lon="5.13337">
        <ele>346.465</ele>
        <time>2013-05-06T14:44:20Z</time>
      </trkpt>
      <trkpt lat="44.17381" lon="5.1333">
        <ele>346.574</ele>
        <time>2013-05-06T14:44:27Z</time>
      </trkpt>
      <trkpt lat="44.17381" lon="5.1333">
        <ele>347</ele>
        <time>2013-05-06T14:44:41Z</time>
      </trkpt>
      <trkpt lat="44.17381" lon="5.1333">
        <ele>347.379</ele>
        <time>2013-05-06T14:45:04Z</time>
      </trkpt>
      <trkpt lat="44.17381" lon="5.1333">
        <ele>344.976</ele>
        <time>2013-05-06T14:45:27Z</time>
      </trkpt>
      <trkpt lat="44.17389" lon="5.13322">
        <ele>345.635</ele>
        <time>2013-05-06T14:45:53Z</time>
      </trkpt>
      <trkpt lat="44.17405" lon="5.13306">
        <ele>343.882</ele>
        <time>2013-05-06T14:46:00Z</time>
      </trkpt>
      <trkpt lat="44.17436" lon="5.13273">
        <ele>342.966</ele>
        <time>2013-05-06T14:46:08Z</time>
      </trkpt>
      <trkpt lat="44.17448" lon="5.13259">
        <ele>341.582</ele>
        <time>2013-05-06T14:46:11Z</time>
      </trkpt>
      <trkpt lat="44.17466" lon="5.13241">
        <ele>340.072</ele>
        <time>2013-05-06T14:46:15Z</time>
      </trkpt>
      <trkpt lat="44.17517" lon="5.13194">
        <ele>337.653</ele>
        <time>2013-05-06T14:46:26Z</time>
      </trkpt>
      <trkpt lat="44.17532" lon="5.13179">
        <ele>340.369</ele>
        <time>2013-05-06T14:46:31Z</time>
      </trkpt>
      <trkpt lat="44.17532" lon="5.13179">
        <ele>339.728</ele>
        <time>2013-05-06T14:46:36Z</time>
      </trkpt>
      <trkpt lat="44.17532" lon="5.13179">
        <ele>340.249</ele>
        <time>2013-05-06T14:46:44Z</time>
      </trkpt>
      <trkpt lat="44.17532" lon="5.13179">
        <ele>339.799</ele>
        <time>2013-05-06T14:47:01Z</time>
      </trkpt>
      <trkpt lat="44.17532" lon="5.13179">
        <ele>340.42</ele>
        <time>2013-05-06T14:47:21Z</time>
      </trkpt>
      <trkpt lat="44.17532" lon="5.13179">
        <ele>340.176</ele>
        <time>2013-05-06T14:47:50Z</time>
      </trkpt>
      <trkpt lat="44.17532" lon="5.13179">
        <ele>339.748</ele>
        <time>2013-05-06T14:48:19Z</time>
      </trkpt>
      <trkpt lat="44.17532" lon="5.13179">
        <ele>339.684</ele>
        <time>2013-05-06T14:48:33Z</time>
      </trkpt>
      <trkpt lat="44.17532" lon="5.13179">
        <ele>339.028</ele>
        <time>2013-05-06T14:49:03Z</time>
      </trkpt>
      <trkpt lat="44.17532" lon="5.13179">
        <ele>338.83</ele>
        <time>2013-05-06T14:49:24Z</time>
      </trkpt>
      <trkpt lat="44.17532" lon="5.13179">
        <ele>339.794</ele>
        <time>2013-05-06T14:50:07Z</time>
      </trkpt>
      <trkpt lat="44.17532" lon="5.13179">
        <ele>338.579</ele>
        <time>2013-05-06T14:50:11Z</time>
      </trkpt>
      <trkpt lat="44.17546" lon="5.13166">
        <ele>337.293</ele>
        <time>2013-05-06T14:50:13Z</time>
      </trkpt>
      <trkpt lat="44.1755" lon="5.13169">
        <ele>337.417</ele>
        <time>2013-05-06T14:50:15Z</time>
      </trkpt>
      <trkpt lat="44.1756" lon="5.13181">
        <ele>338.384</ele>
        <time>2013-05-06T14:50:21Z</time>
      </trkpt>
      <trkpt lat="44.17573" lon="5.13201">
        <ele>338.002</ele>
        <time>2013-05-06T14:50:29Z</time>
      </trkpt>
      <trkpt lat="44.17585" lon="5.13227">
        <ele>339.169</ele>
        <time>2013-05-06T14:50:36Z</time>
      </trkpt>
      <trkpt lat="44.17598" lon="5.13253">
        <ele>340.239</ele>
        <time>2013-05-06T14:50:43Z</time>
      </trkpt>
      <trkpt lat="44.17609" lon="5.13278">
        <ele>340.761</ele>
        <time>2013-05-06T14:50:49Z</time>
      </trkpt>
      <trkpt lat="44.1762" lon="5.13302">
        <ele>342.275</ele>
        <time>2013-05-06T14:50:55Z</time>
      </trkpt>
      <trkpt lat="44.17633" lon="5.13328">
        <ele>341.226</ele>
        <time>2013-05-06T14:51:01Z</time>
      </trkpt>
      <trkpt lat="44.1764" lon="5.13342">
        <ele>342.242</ele>
        <time>2013-05-06T14:51:04Z</time>
      </trkpt>
      <trkpt lat="44.17662" lon="5.13376">
        <ele>342.984</ele>
        <time>2013-05-06T14:51:12Z</time>
      </trkpt>
      <trkpt lat="44.17675" lon="5.13388">
        <ele>342.631</ele>
        <time>2013-05-06T14:51:16Z</time>
      </trkpt>
      <trkpt lat="44.1771" lon="5.13396">
        <ele>343.275</ele>
        <time>2013-05-06T14:51:25Z</time>
      </trkpt>
      <trkpt lat="44.17724" lon="5.13394">
        <ele>343.282</ele>
        <time>2013-05-06T14:51:29Z</time>
      </trkpt>
      <trkpt lat="44.17763" lon="5.13376">
        <ele>342.62</ele>
        <time>2013-05-06T14:51:39Z</time>
      </trkpt>
      <trkpt lat="44.17814" lon="5.13341">
        <ele>342.193</ele>
        <time>2013-05-06T14:51:50Z</time>
      </trkpt>
      <trkpt lat="44.17861" lon="5.13321">
        <ele>340.825</ele>
        <time>2013-05-06T14:51:58Z</time>
      </trkpt>
      <trkpt lat="44.17888" lon="5.13311">
        <ele>337.086</ele>
        <time>2013-05-06T14:52:02Z</time>
      </trkpt>
      <trkpt lat="44.17895" lon="5.13309">
        <ele>337.062</ele>
        <time>2013-05-06T14:52:03Z</time>
      </trkpt>
      <trkpt lat="44.17923" lon="5.13299">
        <ele>337.119</ele>
        <time>2013-05-06T14:52:07Z</time>
      </trkpt>
      <trkpt lat="44.17966" lon="5.13269">
        <ele>337.859</ele>
        <time>2013-05-06T14:52:14Z</time>
      </trkpt>
      <trkpt lat="44.18015" lon="5.13223">
        <ele>337.75</ele>
        <time>2013-05-06T14:52:23Z</time>
      </trkpt>
      <trkpt lat="44.18073" lon="5.13177">
        <ele>339.874</ele>
        <time>2013-05-06T14:52:34Z</time>
      </trkpt>
      <trkpt lat="44.18103" lon="5.13166">
        <ele>339.757</ele>
        <time>2013-05-06T14:52:40Z</time>
      </trkpt>
      <trkpt lat="44.18146" lon="5.13172">
        <ele>341.763</ele>
        <time>2013-05-06T14:52:49Z</time>
      </trkpt>
      <trkpt lat="44.18195" lon="5.13184">
        <ele>343.169</ele>
        <time>2013-05-06T14:53:01Z</time>
      </trkpt>
      <trkpt lat="44.18221" lon="5.13191">
        <ele>344.944</ele>
        <time>2013-05-06T14:53:08Z</time>
      </trkpt>
      <trkpt lat="44.18231" lon="5.13193">
        <ele>346.673</ele>
        <time>2013-05-06T14:53:11Z</time>
      </trkpt>
      <trkpt lat="44.18259" lon="5.13201">
        <ele>346.695</ele>
        <time>2013-05-06T14:53:19Z</time>
      </trkpt>
      <trkpt lat="44.18282" lon="5.13207">
        <ele>348.436</ele>
        <time>2013-05-06T14:53:26Z</time>
      </trkpt>
      <trkpt lat="44.18308" lon="5.13212">
        <ele>350.04</ele>
        <time>2013-05-06T14:53:34Z</time>
      </trkpt>
      <trkpt lat="44.18326" lon="5.13214">
        <ele>351.292</ele>
        <time>2013-05-06T14:53:40Z</time>
      </trkpt>
      <trkpt lat="44.18354" lon="5.13215">
        <ele>352.668</ele>
        <time>2013-05-06T14:53:49Z</time>
      </trkpt>
      <trkpt lat="44.18378" lon="5.13208">
        <ele>353.753</ele>
        <time>2013-05-06T14:53:57Z</time>
      </trkpt>
      <trkpt lat="44.18392" lon="5.13204">
        <ele>352.459</ele>
        <time>2013-05-06T14:54:01Z</time>
      </trkpt>
      <trkpt lat="44.18427" lon="5.13193">
        <ele>353.171</ele>
        <time>2013-05-06T14:54:12Z</time>
      </trkpt>
      <trkpt lat="44.1846" lon="5.13184">
        <ele>353.941</ele>
        <time>2013-05-06T14:54:22Z</time>
      </trkpt>
      <trkpt lat="44.18509" lon="5.13173">
        <ele>354.891</ele>
        <time>2013-05-06T14:54:35Z</time>
      </trkpt>
      <trkpt lat="44.1855" lon="5.13184">
        <ele>357.107</ele>
        <time>2013-05-06T14:54:46Z</time>
      </trkpt>
      <trkpt lat="44.18574" lon="5.13204">
        <ele>358.422</ele>
        <time>2013-05-06T14:54:53Z</time>
      </trkpt>
      <trkpt lat="44.18607" lon="5.13235">
        <ele>354.598</ele>
        <time>2013-05-06T14:55:03Z</time>
      </trkpt>
      <trkpt lat="44.18626" lon="5.13252">
        <ele>355.992</ele>
        <time>2013-05-06T14:55:08Z</time>
      </trkpt>
      <trkpt lat="44.18641" lon="5.13269">
        <ele>354.801</ele>
        <time>2013-05-06T14:55:12Z</time>
      </trkpt>
      <trkpt lat="44.18644" lon="5.13274">
        <ele>351.432</ele>
        <time>2013-05-06T14:55:13Z</time>
      </trkpt>
      <trkpt lat="44.18648" lon="5.13278">
        <ele>353.579</ele>
        <time>2013-05-06T14:55:14Z</time>
      </trkpt>
      <trkpt lat="44.18652" lon="5.13283">
        <ele>356.677</ele>
        <time>2013-05-06T14:55:15Z</time>
      </trkpt>
      <trkpt lat="44.18655" lon="5.13288">
        <ele>356.967</ele>
        <time>2013-05-06T14:55:16Z</time>
      </trkpt>
      <trkpt lat="44.18678" lon="5.13316">
        <ele>353.634</ele>
        <time>2013-05-06T14:55:22Z</time>
      </trkpt>
      <trkpt lat="44.18713" lon="5.13362">
        <ele>355.751</ele>
        <time>2013-05-06T14:55:31Z</time>
      </trkpt>
      <trkpt lat="44.18747" lon="5.13405">
        <ele>353.777</ele>
        <time>2013-05-06T14:55:39Z</time>
      </trkpt>
      <trkpt lat="44.18762" lon="5.13424">
        <ele>352.956</ele>
        <time>2013-05-06T14:55:42Z</time>
      </trkpt>
      <trkpt lat="44.18785" lon="5.13453">
        <ele>346.504</ele>
        <time>2013-05-06T14:55:46Z</time>
      </trkpt>
      <trkpt lat="44.18791" lon="5.1346">
        <ele>346.507</ele>
        <time>2013-05-06T14:55:47Z</time>
      </trkpt>
      <trkpt lat="44.18816" lon="5.1351">
        <ele>342.358</ele>
        <time>2013-05-06T14:55:52Z</time>
      </trkpt>
      <trkpt lat="44.18821" lon="5.1352">
        <ele>342.954</ele>
        <time>2013-05-06T14:55:53Z</time>
      </trkpt>
      <trkpt lat="44.18831" lon="5.13539">
        <ele>339.733</ele>
        <time>2013-05-06T14:55:55Z</time>
      </trkpt>
      <trkpt lat="44.18857" lon="5.13591">
        <ele>341.176</ele>
        <time>2013-05-06T14:56:01Z</time>
      </trkpt>
      <trkpt lat="44.18864" lon="5.1359">
        <ele>336.588</ele>
        <time>2013-05-06T14:56:05Z</time>
      </trkpt>
      <trkpt lat="44.18873" lon="5.13573">
        <ele>335.767</ele>
        <time>2013-05-06T14:56:07Z</time>
      </trkpt>
      <trkpt lat="44.18904" lon="5.13521">
        <ele>331.985</ele>
        <time>2013-05-06T14:56:13Z</time>
      </trkpt>
      <trkpt lat="44.18936" lon="5.13481">
        <ele>331.373</ele>
        <time>2013-05-06T14:56:18Z</time>
      </trkpt>
      <trkpt lat="44.19023" lon="5.13454">
        <ele>327.016</ele>
        <time>2013-05-06T14:56:28Z</time>
      </trkpt>
      <trkpt lat="44.19081" lon="5.1342">
        <ele>325.19</ele>
        <time>2013-05-06T14:56:35Z</time>
      </trkpt>
      <trkpt lat="44.19105" lon="5.13404">
        <ele>323.994</ele>
        <time>2013-05-06T14:56:38Z</time>
      </trkpt>
      <trkpt lat="44.19161" lon="5.13379">
        <ele>323.91</ele>
        <time>2013-05-06T14:56:45Z</time>
      </trkpt>
      <trkpt lat="44.19178" lon="5.13379">
        <ele>323.087</ele>
        <time>2013-05-06T14:56:47Z</time>
      </trkpt>
      <trkpt lat="44.19221" lon="5.13379">
        <ele>321.381</ele>
        <time>2013-05-06T14:56:52Z</time>
      </trkpt>
      <trkpt lat="44.19263" lon="5.13379">
        <ele>318.382</ele>
        <time>2013-05-06T14:56:57Z</time>
      </trkpt>
      <trkpt lat="44.1928" lon="5.13381">
        <ele>320.195</ele>
        <time>2013-05-06T14:56:59Z</time>
      </trkpt>
      <trkpt lat="44.19326" lon="5.134">
        <ele>320.128</ele>
        <time>2013-05-06T14:57:06Z</time>
      </trkpt>
      <trkpt lat="44.19363" lon="5.13422">
        <ele>321.804</ele>
        <time>2013-05-06T14:57:13Z</time>
      </trkpt>
      <trkpt lat="44.19379" lon="5.13422">
        <ele>321.121</ele>
        <time>2013-05-06T14:57:17Z</time>
      </trkpt>
      <trkpt lat="44.19382" lon="5.13418">
        <ele>320.629</ele>
        <time>2013-05-06T14:57:18Z</time>
      </trkpt>
      <trkpt lat="44.19389" lon="5.13407">
        <ele>319.013</ele>
        <time>2013-05-06T14:57:20Z</time>
      </trkpt>
      <trkpt lat="44.19425" lon="5.13351">
        <ele>319.188</ele>
        <time>2013-05-06T14:57:29Z</time>
      </trkpt>
      <trkpt lat="44.19451" lon="5.13311">
        <ele>317.803</ele>
        <time>2013-05-06T14:57:36Z</time>
      </trkpt>
      <trkpt lat="44.19458" lon="5.13301">
        <ele>317.182</ele>
        <time>2013-05-06T14:57:38Z</time>
      </trkpt>
      <trkpt lat="44.1949" lon="5.13251">
        <ele>317.692</ele>
        <time>2013-05-06T14:57:47Z</time>
      </trkpt>
      <trkpt lat="44.19514" lon="5.13213">
        <ele>314.24</ele>
        <time>2013-05-06T14:57:53Z</time>
      </trkpt>
      <trkpt lat="44.19522" lon="5.13201">
        <ele>312.607</ele>
        <time>2013-05-06T14:57:55Z</time>
      </trkpt>
      <trkpt lat="44.19534" lon="5.13182">
        <ele>313.836</ele>
        <time>2013-05-06T14:57:58Z</time>
      </trkpt>
      <trkpt lat="44.19579" lon="5.13113">
        <ele>310.644</ele>
        <time>2013-05-06T14:58:09Z</time>
      </trkpt>
      <trkpt lat="44.19609" lon="5.13066">
        <ele>309.04</ele>
        <time>2013-05-06T14:58:16Z</time>
      </trkpt>
      <trkpt lat="44.1967" lon="5.1299">
        <ele>309.91</ele>
        <time>2013-05-06T14:58:28Z</time>
      </trkpt>
      <trkpt lat="44.1972" lon="5.1295">
        <ele>305.795</ele>
        <time>2013-05-06T14:58:36Z</time>
      </trkpt>
      <trkpt lat="44.19726" lon="5.12946">
        <ele>305.713</ele>
        <time>2013-05-06T14:58:37Z</time>
      </trkpt>
      <trkpt lat="44.19803" lon="5.12885">
        <ele>305.791</ele>
        <time>2013-05-06T14:58:50Z</time>
      </trkpt>
      <trkpt lat="44.19841" lon="5.12845">
        <ele>303.921</ele>
        <time>2013-05-06T14:58:57Z</time>
      </trkpt>
      <trkpt lat="44.1987" lon="5.12785">
        <ele>301.901</ele>
        <time>2013-05-06T14:59:04Z</time>
      </trkpt>
      <trkpt lat="44.19923" lon="5.1273">
        <ele>298.115</ele>
        <time>2013-05-06T14:59:13Z</time>
      </trkpt>
      <trkpt lat="44.1997" lon="5.12686">
        <ele>298.133</ele>
        <time>2013-05-06T14:59:21Z</time>
      </trkpt>
      <trkpt lat="44.20017" lon="5.12642">
        <ele>294.992</ele>
        <time>2013-05-06T14:59:29Z</time>
      </trkpt>
      <trkpt lat="44.20052" lon="5.12608">
        <ele>292.736</ele>
        <time>2013-05-06T14:59:35Z</time>
      </trkpt>
      <trkpt lat="44.20126" lon="5.12538">
        <ele>291.416</ele>
        <time>2013-05-06T14:59:47Z</time>
      </trkpt>
      <trkpt lat="44.20189" lon="5.12478">
        <ele>289.931</ele>
        <time>2013-05-06T14:59:58Z</time>
      </trkpt>
      <trkpt lat="44.20248" lon="5.12422">
        <ele>288.006</ele>
        <time>2013-05-06T15:00:09Z</time>
      </trkpt>
      <trkpt lat="44.20291" lon="5.12381">
        <ele>288.173</ele>
        <time>2013-05-06T15:00:18Z</time>
      </trkpt>
      <trkpt lat="44.20316" lon="5.12359">
        <ele>290.127</ele>
        <time>2013-05-06T15:00:22Z</time>
      </trkpt>
      <trkpt lat="44.20336" lon="5.12374">
        <ele>290.531</ele>
        <time>2013-05-06T15:00:27Z</time>
      </trkpt>
      <trkpt lat="44.20371" lon="5.12396">
        <ele>291.509</ele>
        <time>2013-05-06T15:00:35Z</time>
      </trkpt>
      <trkpt lat="44.20405" lon="5.12396">
        <ele>290.532</ele>
        <time>2013-05-06T15:00:42Z</time>
      </trkpt>
      <trkpt lat="44.20409" lon="5.12396">
        <ele>290.82</ele>
        <time>2013-05-06T15:00:43Z</time>
      </trkpt>
      <trkpt lat="44.20462" lon="5.12356">
        <ele>290.974</ele>
        <time>2013-05-06T15:00:54Z</time>
      </trkpt>
      <trkpt lat="44.20525" lon="5.12308">
        <ele>292.162</ele>
        <time>2013-05-06T15:01:07Z</time>
      </trkpt>
      <trkpt lat="44.20589" lon="5.12259">
        <ele>293.952</ele>
        <time>2013-05-06T15:01:20Z</time>
      </trkpt>
      <trkpt lat="44.20654" lon="5.12211">
        <ele>295.597</ele>
        <time>2013-05-06T15:01:33Z</time>
      </trkpt>
      <trkpt lat="44.20664" lon="5.12205">
        <ele>293.844</ele>
        <time>2013-05-06T15:01:35Z</time>
      </trkpt>
      <trkpt lat="44.20697" lon="5.12198">
        <ele>293.923</ele>
        <time>2013-05-06T15:01:41Z</time>
      </trkpt>
      <trkpt lat="44.20747" lon="5.12195">
        <ele>293.386</ele>
        <time>2013-05-06T15:01:50Z</time>
      </trkpt>
      <trkpt lat="44.20763" lon="5.12197">
        <ele>293.637</ele>
        <time>2013-05-06T15:01:53Z</time>
      </trkpt>
      <trkpt lat="44.20808" lon="5.12211">
        <ele>291.861</ele>
        <time>2013-05-06T15:02:01Z</time>
      </trkpt>
      <trkpt lat="44.20814" lon="5.12213">
        <ele>291.716</ele>
        <time>2013-05-06T15:02:02Z</time>
      </trkpt>
      <trkpt lat="44.20832" lon="5.12221">
        <ele>290.128</ele>
        <time>2013-05-06T15:02:05Z</time>
      </trkpt>
      <trkpt lat="44.20881" lon="5.12244">
        <ele>288.707</ele>
        <time>2013-05-06T15:02:13Z</time>
      </trkpt>
      <trkpt lat="44.20912" lon="5.12263">
        <ele>287.378</ele>
        <time>2013-05-06T15:02:18Z</time>
      </trkpt>
      <trkpt lat="44.20924" lon="5.12272">
        <ele>283.7</ele>
        <time>2013-05-06T15:02:20Z</time>
      </trkpt>
      <trkpt lat="44.20929" lon="5.12278">
        <ele>284.121</ele>
        <time>2013-05-06T15:02:21Z</time>
      </trkpt>
      <trkpt lat="44.20966" lon="5.12332">
        <ele>282.149</ele>
        <time>2013-05-06T15:02:29Z</time>
      </trkpt>
      <trkpt lat="44.20974" lon="5.12347">
        <ele>280.593</ele>
        <time>2013-05-06T15:02:31Z</time>
      </trkpt>
      <trkpt lat="44.21007" lon="5.12399">
        <ele>282.348</ele>
        <time>2013-05-06T15:02:38Z</time>
      </trkpt>
      <trkpt lat="44.2105" lon="5.1247">
        <ele>282.374</ele>
        <time>2013-05-06T15:02:47Z</time>
      </trkpt>
      <trkpt lat="44.21066" lon="5.12487">
        <ele>283.724</ele>
        <time>2013-05-06T15:02:50Z</time>
      </trkpt>
      <trkpt lat="44.21097" lon="5.12493">
        <ele>280.096</ele>
        <time>2013-05-06T15:02:55Z</time>
      </trkpt>
      <trkpt lat="44.21113" lon="5.12491">
        <ele>278.282</ele>
        <time>2013-05-06T15:02:58Z</time>
      </trkpt>
      <trkpt lat="44.21115" lon="5.12477">
        <ele>280.615</ele>
        <time>2013-05-06T15:03:00Z</time>
      </trkpt>
      <trkpt lat="44.21121" lon="5.12415">
        <ele>278.76</ele>
        <time>2013-05-06T15:03:07Z</time>
      </trkpt>
      <trkpt lat="44.21113" lon="5.12377">
        <ele>278.274</ele>
        <time>2013-05-06T15:03:12Z</time>
      </trkpt>
      <trkpt lat="44.21111" lon="5.12368">
        <ele>278.336</ele>
        <time>2013-05-06T15:03:13Z</time>
      </trkpt>
      <trkpt lat="44.211" lon="5.12321">
        <ele>278.793</ele>
        <time>2013-05-06T15:03:18Z</time>
      </trkpt>
      <trkpt lat="44.21101" lon="5.12272">
        <ele>278.649</ele>
        <time>2013-05-06T15:03:23Z</time>
      </trkpt>
      <trkpt lat="44.21112" lon="5.12254">
        <ele>280.108</ele>
        <time>2013-05-06T15:03:26Z</time>
      </trkpt>
      <trkpt lat="44.2113" lon="5.12237">
        <ele>282.548</ele>
        <time>2013-05-06T15:03:32Z</time>
      </trkpt>
      <trkpt lat="44.2113" lon="5.12237">
        <ele>282.261</ele>
        <time>2013-05-06T15:03:35Z</time>
      </trkpt>
      <trkpt lat="44.21148" lon="5.12261">
        <ele>279.618</ele>
        <time>2013-05-06T15:03:40Z</time>
      </trkpt>
      <trkpt lat="44.21154" lon="5.1226">
        <ele>279.452</ele>
        <time>2013-05-06T15:03:42Z</time>
      </trkpt>
      <trkpt lat="44.21158" lon="5.12236">
        <ele>277.702</ele>
        <time>2013-05-06T15:03:44Z</time>
      </trkpt>
      <trkpt lat="44.21195" lon="5.12234">
        <ele>276.566</ele>
        <time>2013-05-06T15:03:50Z</time>
      </trkpt>
      <trkpt lat="44.21224" lon="5.12229">
        <ele>274.246</ele>
        <time>2013-05-06T15:03:55Z</time>
      </trkpt>
      <trkpt lat="44.21256" lon="5.12221">
        <ele>274.773</ele>
        <time>2013-05-06T15:04:01Z</time>
      </trkpt>
      <trkpt lat="44.21287" lon="5.12217">
        <ele>274.359</ele>
        <time>2013-05-06T15:04:07Z</time>
      </trkpt>
      <trkpt lat="44.21331" lon="5.12218">
        <ele>274.319</ele>
        <time>2013-05-06T15:04:14Z</time>
      </trkpt>
      <trkpt lat="44.21345" lon="5.12219">
        <ele>273.144</ele>
        <time>2013-05-06T15:04:16Z</time>
      </trkpt>
      <trkpt lat="44.21376" lon="5.1222">
        <ele>270.856</ele>
        <time>2013-05-06T15:04:20Z</time>
      </trkpt>
      <trkpt lat="44.21418" lon="5.12206">
        <ele>270.284</ele>
        <time>2013-05-06T15:04:27Z</time>
      </trkpt>
      <trkpt lat="44.21431" lon="5.12201">
        <ele>269.412</ele>
        <time>2013-05-06T15:04:29Z</time>
      </trkpt>
      <trkpt lat="44.21438" lon="5.12198">
        <ele>269.548</ele>
        <time>2013-05-06T15:04:30Z</time>
      </trkpt>
      <trkpt lat="44.21465" lon="5.12186">
        <ele>266.068</ele>
        <time>2013-05-06T15:04:34Z</time>
      </trkpt>
      <trkpt lat="44.21473" lon="5.12182">
        <ele>266.396</ele>
        <time>2013-05-06T15:04:35Z</time>
      </trkpt>
      <trkpt lat="44.21496" lon="5.12176">
        <ele>265.493</ele>
        <time>2013-05-06T15:04:38Z</time>
      </trkpt>
      <trkpt lat="44.21533" lon="5.1217">
        <ele>265.85</ele>
        <time>2013-05-06T15:04:43Z</time>
      </trkpt>
      <trkpt lat="44.21577" lon="5.12148">
        <ele>266.258</ele>
        <time>2013-05-06T15:04:50Z</time>
      </trkpt>
      <trkpt lat="44.21614" lon="5.12125">
        <ele>263.856</ele>
        <time>2013-05-06T15:04:56Z</time>
      </trkpt>
      <trkpt lat="44.21634" lon="5.12112">
        <ele>260.565</ele>
        <time>2013-05-06T15:04:59Z</time>
      </trkpt>
      <trkpt lat="44.21641" lon="5.12108">
        <ele>260.669</ele>
        <time>2013-05-06T15:05:00Z</time>
      </trkpt>
      <trkpt lat="44.21664" lon="5.12082">
        <ele>257.811</ele>
        <time>2013-05-06T15:05:04Z</time>
      </trkpt>
      <trkpt lat="44.21705" lon="5.12008">
        <ele>255.836</ele>
        <time>2013-05-06T15:05:13Z</time>
      </trkpt>
      <trkpt lat="44.21743" lon="5.11942">
        <ele>252.396</ele>
        <time>2013-05-06T15:05:21Z</time>
      </trkpt>
      <trkpt lat="44.21747" lon="5.11933">
        <ele>252.602</ele>
        <time>2013-05-06T15:05:22Z</time>
      </trkpt>
      <trkpt lat="44.21784" lon="5.11868">
        <ele>254.088</ele>
        <time>2013-05-06T15:05:30Z</time>
      </trkpt>
      <trkpt lat="44.21797" lon="5.11845">
        <ele>256.24</ele>
        <time>2013-05-06T15:05:33Z</time>
      </trkpt>
      <trkpt lat="44.21812" lon="5.11818">
        <ele>253.784</ele>
        <time>2013-05-06T15:05:37Z</time>
      </trkpt>
      <trkpt lat="44.21833" lon="5.11809">
        <ele>252.682</ele>
        <time>2013-05-06T15:05:41Z</time>
      </trkpt>
      <trkpt lat="44.21839" lon="5.11807">
        <ele>252.054</ele>
        <time>2013-05-06T15:05:42Z</time>
      </trkpt>
      <trkpt lat="44.21869" lon="5.11811">
        <ele>248.537</ele>
        <time>2013-05-06T15:05:46Z</time>
      </trkpt>
      <trkpt lat="44.21889" lon="5.11817">
        <ele>243.095</ele>
        <time>2013-05-06T15:05:48Z</time>
      </trkpt>
      <trkpt lat="44.21899" lon="5.1182">
        <ele>244.955</ele>
        <time>2013-05-06T15:05:49Z</time>
      </trkpt>
      <trkpt lat="44.21937" lon="5.11831">
        <ele>243.132</ele>
        <time>2013-05-06T15:05:53Z</time>
      </trkpt>
      <trkpt lat="44.21956" lon="5.11842">
        <ele>247.135</ele>
        <time>2013-05-06T15:05:56Z</time>
      </trkpt>
      <trkpt lat="44.2196" lon="5.11845">
        <ele>246.75</ele>
        <time>2013-05-06T15:05:57Z</time>
      </trkpt>
      <trkpt lat="44.21982" lon="5.1185">
        <ele>245.949</ele>
        <time>2013-05-06T15:06:02Z</time>
      </trkpt>
      <trkpt lat="44.21987" lon="5.11832">
        <ele>245.605</ele>
        <time>2013-05-06T15:06:07Z</time>
      </trkpt>
      <trkpt lat="44.21989" lon="5.11819">
        <ele>245.666</ele>
        <time>2013-05-06T15:06:11Z</time>
      </trkpt>
      <trkpt lat="44.21989" lon="5.11813">
        <ele>244.51</ele>
        <time>2013-05-06T15:06:13Z</time>
      </trkpt>
      <trkpt lat="44.21989" lon="5.11803">
        <ele>243.734</ele>
        <time>2013-05-06T15:06:15Z</time>
      </trkpt>
      <trkpt lat="44.21982" lon="5.11762">
        <ele>244.852</ele>
        <time>2013-05-06T15:06:22Z</time>
      </trkpt>
      <trkpt lat="44.2197" lon="5.11712">
        <ele>243.646</ele>
        <time>2013-05-06T15:06:29Z</time>
      </trkpt>
      <trkpt lat="44.21956" lon="5.11636">
        <ele>243.777</ele>
        <time>2013-05-06T15:06:38Z</time>
      </trkpt>
      <trkpt lat="44.21955" lon="5.11608">
        <ele>243.129</ele>
        <time>2013-05-06T15:06:41Z</time>
      </trkpt>
      <trkpt lat="44.21956" lon="5.11589">
        <ele>241.809</ele>
        <time>2013-05-06T15:06:43Z</time>
      </trkpt>
      <trkpt lat="44.21963" lon="5.11496">
        <ele>240.852</ele>
        <time>2013-05-06T15:06:53Z</time>
      </trkpt>
      <trkpt lat="44.21959" lon="5.11413">
        <ele>241.818</ele>
        <time>2013-05-06T15:07:02Z</time>
      </trkpt>
      <trkpt lat="44.21943" lon="5.11361">
        <ele>241.551</ele>
        <time>2013-05-06T15:07:08Z</time>
      </trkpt>
      <trkpt lat="44.21911" lon="5.11289">
        <ele>241.789</ele>
        <time>2013-05-06T15:07:17Z</time>
      </trkpt>
      <trkpt lat="44.21891" lon="5.11249">
        <ele>241.007</ele>
        <time>2013-05-06T15:07:22Z</time>
      </trkpt>
      <trkpt lat="44.2186" lon="5.11187">
        <ele>238.869</ele>
        <time>2013-05-06T15:07:30Z</time>
      </trkpt>
      <trkpt lat="44.21849" lon="5.11162">
        <ele>240.249</ele>
        <time>2013-05-06T15:07:33Z</time>
      </trkpt>
      <trkpt lat="44.21837" lon="5.11085">
        <ele>240.041</ele>
        <time>2013-05-06T15:07:41Z</time>
      </trkpt>
      <trkpt lat="44.2183" lon="5.10956">
        <ele>240.06</ele>
        <time>2013-05-06T15:07:54Z</time>
      </trkpt>
      <trkpt lat="44.21825" lon="5.10829">
        <ele>238.539</ele>
        <time>2013-05-06T15:08:07Z</time>
      </trkpt>
      <trkpt lat="44.2184" lon="5.10714">
        <ele>237.392</ele>
        <time>2013-05-06T15:08:18Z</time>
      </trkpt>
      <trkpt lat="44.21862" lon="5.10574">
        <ele>236.191</ele>
        <time>2013-05-06T15:08:31Z</time>
      </trkpt>
      <trkpt lat="44.21864" lon="5.10492">
        <ele>236.257</ele>
        <time>2013-05-06T15:08:39Z</time>
      </trkpt>
      <trkpt lat="44.2187" lon="5.10371">
        <ele>236.821</ele>
        <time>2013-05-06T15:08:51Z</time>
      </trkpt>
      <trkpt lat="44.21872" lon="5.10341">
        <ele>235.575</ele>
        <time>2013-05-06T15:08:54Z</time>
      </trkpt>
      <trkpt lat="44.21875" lon="5.10291">
        <ele>232.393</ele>
        <time>2013-05-06T15:08:59Z</time>
      </trkpt>
      <trkpt lat="44.21876" lon="5.10282">
        <ele>232.412</ele>
        <time>2013-05-06T15:09:00Z</time>
      </trkpt>
      <trkpt lat="44.21876" lon="5.10273">
        <ele>235.674</ele>
        <time>2013-05-06T15:09:01Z</time>
      </trkpt>
      <trkpt lat="44.21877" lon="5.10264">
        <ele>235.059</ele>
        <time>2013-05-06T15:09:02Z</time>
      </trkpt>
      <trkpt lat="44.21887" lon="5.10137">
        <ele>237.557</ele>
        <time>2013-05-06T15:09:17Z</time>
      </trkpt>
      <trkpt lat="44.21897" lon="5.10019">
        <ele>238.663</ele>
        <time>2013-05-06T15:09:31Z</time>
      </trkpt>
      <trkpt lat="44.21906" lon="5.09911">
        <ele>238.766</ele>
        <time>2013-05-06T15:09:44Z</time>
      </trkpt>
      <trkpt lat="44.21913" lon="5.09826">
        <ele>238.125</ele>
        <time>2013-05-06T15:09:54Z</time>
      </trkpt>
      <trkpt lat="44.21916" lon="5.09784">
        <ele>237.904</ele>
        <time>2013-05-06T15:09:59Z</time>
      </trkpt>
      <trkpt lat="44.21917" lon="5.09767">
        <ele>236.269</ele>
        <time>2013-05-06T15:10:01Z</time>
      </trkpt>
      <trkpt lat="44.21918" lon="5.09729">
        <ele>235.074</ele>
        <time>2013-05-06T15:10:07Z</time>
      </trkpt>
      <trkpt lat="44.21937" lon="5.09695">
        <ele>233.051</ele>
        <time>2013-05-06T15:10:10Z</time>
      </trkpt>
      <trkpt lat="44.21974" lon="5.09675">
        <ele>234.639</ele>
        <time>2013-05-06T15:10:17Z</time>
      </trkpt>
      <trkpt lat="44.22024" lon="5.0963">
        <ele>234.219</ele>
        <time>2013-05-06T15:10:27Z</time>
      </trkpt>
      <trkpt lat="44.2209" lon="5.09572">
        <ele>234.086</ele>
        <time>2013-05-06T15:10:40Z</time>
      </trkpt>
      <trkpt lat="44.22159" lon="5.09501">
        <ele>235.224</ele>
        <time>2013-05-06T15:10:54Z</time>
      </trkpt>
      <trkpt lat="44.22212" lon="5.09442">
        <ele>233.419</ele>
        <time>2013-05-06T15:11:05Z</time>
      </trkpt>
      <trkpt lat="44.22231" lon="5.09422">
        <ele>234.163</ele>
        <time>2013-05-06T15:11:09Z</time>
      </trkpt>
      <trkpt lat="44.22303" lon="5.09342">
        <ele>232.572</ele>
        <time>2013-05-06T15:11:24Z</time>
      </trkpt>
      <trkpt lat="44.22335" lon="5.09292">
        <ele>232.996</ele>
        <time>2013-05-06T15:11:32Z</time>
      </trkpt>
      <trkpt lat="44.22366" lon="5.09191">
        <ele>233.684</ele>
        <time>2013-05-06T15:11:45Z</time>
      </trkpt>
      <trkpt lat="44.22376" lon="5.09158">
        <ele>231.726</ele>
        <time>2013-05-06T15:11:49Z</time>
      </trkpt>
      <trkpt lat="44.22392" lon="5.0911">
        <ele>231.798</ele>
        <time>2013-05-06T15:11:55Z</time>
      </trkpt>
      <trkpt lat="44.22407" lon="5.0908">
        <ele>231.78</ele>
        <time>2013-05-06T15:11:59Z</time>
      </trkpt>
      <trkpt lat="44.22446" lon="5.09004">
        <ele>230.957</ele>
        <time>2013-05-06T15:12:09Z</time>
      </trkpt>
      <trkpt lat="44.22507" lon="5.08932">
        <ele>229.49</ele>
        <time>2013-05-06T15:12:20Z</time>
      </trkpt>
      <trkpt lat="44.22552" lon="5.08881">
        <ele>229.163</ele>
        <time>2013-05-06T15:12:28Z</time>
      </trkpt>
      <trkpt lat="44.22614" lon="5.08841">
        <ele>228.13</ele>
        <time>2013-05-06T15:12:37Z</time>
      </trkpt>
      <trkpt lat="44.22669" lon="5.0883">
        <ele>225.153</ele>
        <time>2013-05-06T15:12:44Z</time>
      </trkpt>
      <trkpt lat="44.22748" lon="5.0883">
        <ele>221.522</ele>
        <time>2013-05-06T15:12:54Z</time>
      </trkpt>
      <trkpt lat="44.22776" lon="5.0883">
        <ele>225.916</ele>
        <time>2013-05-06T15:12:58Z</time>
      </trkpt>
      <trkpt lat="44.22797" lon="5.0883">
        <ele>221.635</ele>
        <time>2013-05-06T15:13:01Z</time>
      </trkpt>
      <trkpt lat="44.22803" lon="5.0883">
        <ele>222.045</ele>
        <time>2013-05-06T15:13:02Z</time>
      </trkpt>
      <trkpt lat="44.22865" lon="5.08845">
        <ele>222.754</ele>
        <time>2013-05-06T15:13:12Z</time>
      </trkpt>
      <trkpt lat="44.22871" lon="5.08847">
        <ele>222.624</ele>
        <time>2013-05-06T15:13:13Z</time>
      </trkpt>
      <trkpt lat="44.22935" lon="5.08872">
        <ele>223.191</ele>
        <time>2013-05-06T15:13:23Z</time>
      </trkpt>
      <trkpt lat="44.23014" lon="5.08906">
        <ele>219.149</ele>
        <time>2013-05-06T15:13:35Z</time>
      </trkpt>
      <trkpt lat="44.23039" lon="5.08919">
        <ele>215.732</ele>
        <time>2013-05-06T15:13:39Z</time>
      </trkpt>
      <trkpt lat="44.2305" lon="5.08927">
        <ele>218.834</ele>
        <time>2013-05-06T15:13:41Z</time>
      </trkpt>
      <trkpt lat="44.23115" lon="5.08945">
        <ele>219.599</ele>
        <time>2013-05-06T15:13:52Z</time>
      </trkpt>
      <trkpt lat="44.2319" lon="5.08964">
        <ele>219.463</ele>
        <time>2013-05-06T15:14:04Z</time>
      </trkpt>
      <trkpt lat="44.23248" lon="5.08971">
        <ele>217.921</ele>
        <time>2013-05-06T15:14:13Z</time>
      </trkpt>
      <trkpt lat="44.23293" lon="5.08949">
        <ele>218.051</ele>
        <time>2013-05-06T15:14:21Z</time>
      </trkpt>
      <trkpt lat="44.23352" lon="5.08903">
        <ele>219.402</ele>
        <time>2013-05-06T15:14:32Z</time>
      </trkpt>
      <trkpt lat="44.23399" lon="5.08853">
        <ele>219.242</ele>
        <time>2013-05-06T15:14:41Z</time>
      </trkpt>
      <trkpt lat="44.23456" lon="5.08791">
        <ele>217.476</ele>
        <time>2013-05-06T15:14:52Z</time>
      </trkpt>
      <trkpt lat="44.23519" lon="5.08722">
        <ele>219.154</ele>
        <time>2013-05-06T15:15:04Z</time>
      </trkpt>
      <trkpt lat="44.23576" lon="5.08674">
        <ele>219.698</ele>
        <time>2013-05-06T15:15:14Z</time>
      </trkpt>
      <trkpt lat="44.23589" lon="5.0867">
        <ele>218.682</ele>
        <time>2013-05-06T15:15:16Z</time>
      </trkpt>
      <trkpt lat="44.23648" lon="5.08656">
        <ele>218.537</ele>
        <time>2013-05-06T15:15:25Z</time>
      </trkpt>
      <trkpt lat="44.23673" lon="5.08655">
        <ele>216.65</ele>
        <time>2013-05-06T15:15:29Z</time>
      </trkpt>
      <trkpt lat="44.23756" lon="5.08662">
        <ele>219.279</ele>
        <time>2013-05-06T15:15:42Z</time>
      </trkpt>
      <trkpt lat="44.23844" lon="5.08668">
        <ele>218.468</ele>
        <time>2013-05-06T15:15:56Z</time>
      </trkpt>
      <trkpt lat="44.23902" lon="5.08667">
        <ele>221.539</ele>
        <time>2013-05-06T15:16:07Z</time>
      </trkpt>
      <trkpt lat="44.2395" lon="5.08655">
        <ele>222.434</ele>
        <time>2013-05-06T15:16:17Z</time>
      </trkpt>
      <trkpt lat="44.23994" lon="5.08636">
        <ele>222.016</ele>
        <time>2013-05-06T15:16:26Z</time>
      </trkpt>
      <trkpt lat="44.2403" lon="5.08603">
        <ele>223.679</ele>
        <time>2013-05-06T15:16:34Z</time>
      </trkpt>
      <trkpt lat="44.24071" lon="5.08546">
        <ele>224.681</ele>
        <time>2013-05-06T15:16:45Z</time>
      </trkpt>
      <trkpt lat="44.241" lon="5.0848">
        <ele>225.444</ele>
        <time>2013-05-06T15:16:55Z</time>
      </trkpt>
      <trkpt lat="44.24132" lon="5.08389">
        <ele>227.076</ele>
        <time>2013-05-06T15:17:08Z</time>
      </trkpt>
      <trkpt lat="44.24161" lon="5.08307">
        <ele>227.484</ele>
        <time>2013-05-06T15:17:20Z</time>
      </trkpt>
      <trkpt lat="44.24191" lon="5.08219">
        <ele>229.093</ele>
        <time>2013-05-06T15:17:33Z</time>
      </trkpt>
      <trkpt lat="44.24207" lon="5.08176">
        <ele>230.397</ele>
        <time>2013-05-06T15:17:40Z</time>
      </trkpt>
      <trkpt lat="44.24227" lon="5.08152">
        <ele>229.586</ele>
        <time>2013-05-06T15:17:45Z</time>
      </trkpt>
      <trkpt lat="44.24232" lon="5.08175">
        <ele>230.014</ele>
        <time>2013-05-06T15:17:47Z</time>
      </trkpt>
      <trkpt lat="44.24237" lon="5.08182">
        <ele>230.295</ele>
        <time>2013-05-06T15:17:51Z</time>
      </trkpt>
      <trkpt lat="44.24258" lon="5.08251">
        <ele>228.803</ele>
        <time>2013-05-06T15:18:00Z</time>
      </trkpt>
      <trkpt lat="44.24272" lon="5.08296">
        <ele>228.681</ele>
        <time>2013-05-06T15:18:07Z</time>
      </trkpt>
      <trkpt lat="44.24287" lon="5.08349">
        <ele>227.032</ele>
        <time>2013-05-06T15:18:15Z</time>
      </trkpt>
      <trkpt lat="44.24296" lon="5.08382">
        <ele>228.827</ele>
        <time>2013-05-06T15:18:20Z</time>
      </trkpt>
      <trkpt lat="44.24317" lon="5.08451">
        <ele>228.282</ele>
        <time>2013-05-06T15:18:31Z</time>
      </trkpt>
      <trkpt lat="44.24332" lon="5.08491">
        <ele>228.131</ele>
        <time>2013-05-06T15:18:38Z</time>
      </trkpt>
      <trkpt lat="44.24332" lon="5.08491">
        <ele>229.086</ele>
        <time>2013-05-06T15:18:42Z</time>
      </trkpt>
      <trkpt lat="44.2435" lon="5.08556">
        <ele>228.893</ele>
        <time>2013-05-06T15:18:47Z</time>
      </trkpt>
      <trkpt lat="44.24373" lon="5.08635">
        <ele>231.162</ele>
        <time>2013-05-06T15:18:58Z</time>
      </trkpt>
      <trkpt lat="44.24385" lon="5.08677">
        <ele>230.121</ele>
        <time>2013-05-06T15:19:04Z</time>
      </trkpt>
      <trkpt lat="44.24406" lon="5.08748">
        <ele>232.591</ele>
        <time>2013-05-06T15:19:14Z</time>
      </trkpt>
      <trkpt lat="44.2443" lon="5.08831">
        <ele>233.275</ele>
        <time>2013-05-06T15:19:25Z</time>
      </trkpt>
      <trkpt lat="44.24464" lon="5.0895">
        <ele>235.038</ele>
        <time>2013-05-06T15:19:41Z</time>
      </trkpt>
      <trkpt lat="44.24492" lon="5.0904">
        <ele>237.825</ele>
        <time>2013-05-06T15:19:54Z</time>
      </trkpt>
      <trkpt lat="44.24513" lon="5.09094">
        <ele>236.297</ele>
        <time>2013-05-06T15:20:03Z</time>
      </trkpt>
      <trkpt lat="44.24542" lon="5.09126">
        <ele>236.894</ele>
        <time>2013-05-06T15:20:11Z</time>
      </trkpt>
      <trkpt lat="44.24582" lon="5.09154">
        <ele>238.41</ele>
        <time>2013-05-06T15:20:21Z</time>
      </trkpt>
      <trkpt lat="44.24631" lon="5.09184">
        <ele>239.966</ele>
        <time>2013-05-06T15:20:32Z</time>
      </trkpt>
      <trkpt lat="44.24683" lon="5.09216">
        <ele>241.442</ele>
        <time>2013-05-06T15:20:44Z</time>
      </trkpt>
      <trkpt lat="44.24725" lon="5.09239">
        <ele>242.419</ele>
        <time>2013-05-06T15:20:55Z</time>
      </trkpt>
      <trkpt lat="44.24731" lon="5.09242">
        <ele>242.822</ele>
        <time>2013-05-06T15:21:00Z</time>
      </trkpt>
      <trkpt lat="44.24741" lon="5.09268">
        <ele>242.181</ele>
        <time>2013-05-06T15:21:06Z</time>
      </trkpt>
      <trkpt lat="44.24752" lon="5.09268">
        <ele>242.995</ele>
        <time>2013-05-06T15:21:12Z</time>
      </trkpt>
      <trkpt lat="44.24762" lon="5.0928">
        <ele>243.789</ele>
        <time>2013-05-06T15:21:18Z</time>
      </trkpt>
      <trkpt lat="44.24762" lon="5.0928">
        <ele>244.112</ele>
        <time>2013-05-06T15:21:37Z</time>
      </trkpt>
      <trkpt lat="44.24762" lon="5.0928">
        <ele>243.76</ele>
        <time>2013-05-06T15:21:49Z</time>
      </trkpt>
      <trkpt lat="44.24762" lon="5.0928">
        <ele>243.889</ele>
        <time>2013-05-06T15:23:10Z</time>
      </trkpt>
      <trkpt lat="44.24762" lon="5.0928">
        <ele>243.807</ele>
        <time>2013-05-06T15:23:17Z</time>
      </trkpt>
      <trkpt lat="44.24762" lon="5.0928">
        <ele>243.613</ele>
        <time>2013-05-06T15:23:42Z</time>
      </trkpt>
      <trkpt lat="44.24762" lon="5.0928">
        <ele>242.975</ele>
        <time>2013-05-06T15:24:29Z</time>
      </trkpt>
      <trkpt lat="44.24762" lon="5.0928">
        <ele>242.196</ele>
        <time>2013-05-06T15:25:20Z</time>
      </trkpt>
      <trkpt lat="44.24762" lon="5.0928">
        <ele>242.681</ele>
        <time>2013-05-06T15:25:42Z</time>
      </trkpt>
      <trkpt lat="44.24762" lon="5.0928">
        <ele>242.101</ele>
        <time>2013-05-06T15:25:54Z</time>
      </trkpt>
      <trkpt lat="44.24762" lon="5.0928">
        <ele>243.399</ele>
        <time>2013-05-06T15:26:12Z</time>
      </trkpt>
      <trkpt lat="44.24762" lon="5.0928">
        <ele>243.3</ele>
        <time>2013-05-06T15:26:20Z</time>
      </trkpt>
      <trkpt lat="44.24762" lon="5.0928">
        <ele>242.556</ele>
        <time>2013-05-06T15:26:37Z</time>
      </trkpt>
      <trkpt lat="44.24735" lon="5.09268">
        <ele>242.435</ele>
        <time>2013-05-06T15:26:41Z</time>
      </trkpt>
      <trkpt lat="44.24735" lon="5.09268">
        <ele>241.882</ele>
        <time>2013-05-06T15:26:46Z</time>
      </trkpt>
      <trkpt lat="44.24774" lon="5.09261">
        <ele>242.393</ele>
        <time>2013-05-06T15:26:53Z</time>
      </trkpt>
      <trkpt lat="44.24803" lon="5.09272">
        <ele>241.37</ele>
        <time>2013-05-06T15:27:04Z</time>
      </trkpt>
      <trkpt lat="44.24815" lon="5.09276">
        <ele>242.451</ele>
        <time>2013-05-06T15:27:08Z</time>
      </trkpt>
      <trkpt lat="44.24837" lon="5.09284">
        <ele>243.296</ele>
        <time>2013-05-06T15:27:16Z</time>
      </trkpt>
      <trkpt lat="44.2487" lon="5.09296">
        <ele>243.219</ele>
        <time>2013-05-06T15:27:27Z</time>
      </trkpt>
      <trkpt lat="44.24899" lon="5.09306">
        <ele>245.104</ele>
        <time>2013-05-06T15:27:37Z</time>
      </trkpt>
      <trkpt lat="44.24932" lon="5.09318">
        <ele>245.499</ele>
        <time>2013-05-06T15:27:47Z</time>
      </trkpt>
      <trkpt lat="44.24977" lon="5.09335">
        <ele>246.559</ele>
        <time>2013-05-06T15:28:00Z</time>
      </trkpt>
      <trkpt lat="44.25017" lon="5.09349">
        <ele>247.313</ele>
        <time>2013-05-06T15:28:11Z</time>
      </trkpt>
      <trkpt lat="44.25057" lon="5.09364">
        <ele>247.475</ele>
        <time>2013-05-06T15:28:22Z</time>
      </trkpt>
      <trkpt lat="44.25101" lon="5.0938">
        <ele>248.166</ele>
        <time>2013-05-06T15:28:33Z</time>
      </trkpt>
      <trkpt lat="44.2516" lon="5.09404">
        <ele>247.746</ele>
        <time>2013-05-06T15:28:46Z</time>
      </trkpt>
      <trkpt lat="44.25224" lon="5.09431">
        <ele>248.964</ele>
        <time>2013-05-06T15:29:00Z</time>
      </trkpt>
      <trkpt lat="44.25263" lon="5.09448">
        <ele>247.7</ele>
        <time>2013-05-06T15:29:10Z</time>
      </trkpt>
      <trkpt lat="44.25305" lon="5.09466">
        <ele>250.217</ele>
        <time>2013-05-06T15:29:20Z</time>
      </trkpt>
      <trkpt lat="44.25366" lon="5.09503">
        <ele>251.039</ele>
        <time>2013-05-06T15:29:35Z</time>
      </trkpt>
      <trkpt lat="44.2542" lon="5.09537">
        <ele>252.7</ele>
        <time>2013-05-06T15:29:50Z</time>
      </trkpt>
      <trkpt lat="44.25464" lon="5.09565">
        <ele>256.219</ele>
        <time>2013-05-06T15:30:03Z</time>
      </trkpt>
      <trkpt lat="44.25503" lon="5.09589">
        <ele>257.527</ele>
        <time>2013-05-06T15:30:15Z</time>
      </trkpt>
      <trkpt lat="44.25507" lon="5.09615">
        <ele>257.583</ele>
        <time>2013-05-06T15:30:20Z</time>
      </trkpt>
      <trkpt lat="44.25522" lon="5.09626">
        <ele>258.396</ele>
        <time>2013-05-06T15:30:25Z</time>
      </trkpt>
      <trkpt lat="44.25533" lon="5.0962">
        <ele>260.25</ele>
        <time>2013-05-06T15:30:30Z</time>
      </trkpt>
      <trkpt lat="44.25565" lon="5.09612">
        <ele>260.808</ele>
        <time>2013-05-06T15:30:37Z</time>
      </trkpt>
      <trkpt lat="44.25614" lon="5.0963">
        <ele>261.658</ele>
        <time>2013-05-06T15:30:50Z</time>
      </trkpt>
      <trkpt lat="44.2565" lon="5.09645">
        <ele>263.44</ele>
        <time>2013-05-06T15:31:00Z</time>
      </trkpt>
      <trkpt lat="44.25709" lon="5.09671">
        <ele>266.093</ele>
        <time>2013-05-06T15:31:16Z</time>
      </trkpt>
      <trkpt lat="44.25764" lon="5.09694">
        <ele>267.267</ele>
        <time>2013-05-06T15:31:31Z</time>
      </trkpt>
      <trkpt lat="44.25775" lon="5.09699">
        <ele>268.844</ele>
        <time>2013-05-06T15:31:34Z</time>
      </trkpt>
      <trkpt lat="44.25826" lon="5.09721">
        <ele>270.627</ele>
        <time>2013-05-06T15:31:48Z</time>
      </trkpt>
      <trkpt lat="44.2583" lon="5.09723">
        <ele>270.517</ele>
        <time>2013-05-06T15:31:49Z</time>
      </trkpt>
      <trkpt lat="44.25878" lon="5.0975">
        <ele>271.06</ele>
        <time>2013-05-06T15:32:02Z</time>
      </trkpt>
      <trkpt lat="44.25908" lon="5.09783">
        <ele>271.516</ele>
        <time>2013-05-06T15:32:11Z</time>
      </trkpt>
      <trkpt lat="44.25941" lon="5.09828">
        <ele>273.085</ele>
        <time>2013-05-06T15:32:23Z</time>
      </trkpt>
      <trkpt lat="44.25968" lon="5.0986">
        <ele>273.678</ele>
        <time>2013-05-06T15:32:32Z</time>
      </trkpt>
      <trkpt lat="44.26008" lon="5.09891">
        <ele>273.485</ele>
        <time>2013-05-06T15:32:43Z</time>
      </trkpt>
      <trkpt lat="44.26035" lon="5.09914">
        <ele>272.582</ele>
        <time>2013-05-06T15:32:50Z</time>
      </trkpt>
      <trkpt lat="44.26088" lon="5.09957">
        <ele>274.594</ele>
        <time>2013-05-06T15:33:04Z</time>
      </trkpt>
      <trkpt lat="44.26123" lon="5.09985">
        <ele>277.594</ele>
        <time>2013-05-06T15:33:14Z</time>
      </trkpt>
      <trkpt lat="44.26162" lon="5.10012">
        <ele>279.97</ele>
        <time>2013-05-06T15:33:25Z</time>
      </trkpt>
      <trkpt lat="44.26199" lon="5.10033">
        <ele>281.962</ele>
        <time>2013-05-06T15:33:36Z</time>
      </trkpt>
      <trkpt lat="44.26218" lon="5.10045">
        <ele>283.898</ele>
        <time>2013-05-06T15:33:42Z</time>
      </trkpt>
      <trkpt lat="44.2624" lon="5.10077">
        <ele>285.163</ele>
        <time>2013-05-06T15:33:50Z</time>
      </trkpt>
      <trkpt lat="44.26252" lon="5.10101">
        <ele>285.668</ele>
        <time>2013-05-06T15:33:56Z</time>
      </trkpt>
      <trkpt lat="44.26275" lon="5.10146">
        <ele>286.183</ele>
        <time>2013-05-06T15:34:06Z</time>
      </trkpt>
      <trkpt lat="44.26297" lon="5.10178">
        <ele>286.976</ele>
        <time>2013-05-06T15:34:14Z</time>
      </trkpt>
      <trkpt lat="44.2634" lon="5.10197">
        <ele>286.701</ele>
        <time>2013-05-06T15:34:24Z</time>
      </trkpt>
      <trkpt lat="44.26399" lon="5.10224">
        <ele>286.697</ele>
        <time>2013-05-06T15:34:35Z</time>
      </trkpt>
      <trkpt lat="44.26438" lon="5.10261">
        <ele>287.148</ele>
        <time>2013-05-06T15:34:43Z</time>
      </trkpt>
      <trkpt lat="44.26494" lon="5.10315">
        <ele>287.52</ele>
        <time>2013-05-06T15:34:55Z</time>
      </trkpt>
      <trkpt lat="44.26528" lon="5.10338">
        <ele>287.136</ele>
        <time>2013-05-06T15:35:02Z</time>
      </trkpt>
      <trkpt lat="44.26574" lon="5.10344">
        <ele>287.204</ele>
        <time>2013-05-06T15:35:11Z</time>
      </trkpt>
      <trkpt lat="44.26639" lon="5.10341">
        <ele>287.29</ele>
        <time>2013-05-06T15:35:23Z</time>
      </trkpt>
      <trkpt lat="44.26704" lon="5.10335">
        <ele>288.145</ele>
        <time>2013-05-06T15:35:35Z</time>
      </trkpt>
      <trkpt lat="44.26764" lon="5.10329">
        <ele>287.65</ele>
        <time>2013-05-06T15:35:46Z</time>
      </trkpt>
      <trkpt lat="44.26831" lon="5.10325">
        <ele>288.704</ele>
        <time>2013-05-06T15:35:58Z</time>
      </trkpt>
      <trkpt lat="44.26901" lon="5.10322">
        <ele>288.863</ele>
        <time>2013-05-06T15:36:11Z</time>
      </trkpt>
      <trkpt lat="44.26962" lon="5.10321">
        <ele>291.281</ele>
        <time>2013-05-06T15:36:23Z</time>
      </trkpt>
      <trkpt lat="44.27" lon="5.10334">
        <ele>292.562</ele>
        <time>2013-05-06T15:36:31Z</time>
      </trkpt>
      <trkpt lat="44.27067" lon="5.10358">
        <ele>293.211</ele>
        <time>2013-05-06T15:36:45Z</time>
      </trkpt>
      <trkpt lat="44.2712" lon="5.10376">
        <ele>294.045</ele>
        <time>2013-05-06T15:36:56Z</time>
      </trkpt>
      <trkpt lat="44.27139" lon="5.10383">
        <ele>294.324</ele>
        <time>2013-05-06T15:37:00Z</time>
      </trkpt>
      <trkpt lat="44.27201" lon="5.10407">
        <ele>297.174</ele>
        <time>2013-05-06T15:37:13Z</time>
      </trkpt>
      <trkpt lat="44.27206" lon="5.10409">
        <ele>297.078</ele>
        <time>2013-05-06T15:37:14Z</time>
      </trkpt>
      <trkpt lat="44.27251" lon="5.10435">
        <ele>297.861</ele>
        <time>2013-05-06T15:37:24Z</time>
      </trkpt>
      <trkpt lat="44.27301" lon="5.10484">
        <ele>298.039</ele>
        <time>2013-05-06T15:37:36Z</time>
      </trkpt>
      <trkpt lat="44.27314" lon="5.10502">
        <ele>294.81</ele>
        <time>2013-05-06T15:37:39Z</time>
      </trkpt>
      <trkpt lat="44.27346" lon="5.10549">
        <ele>293.114</ele>
        <time>2013-05-06T15:37:46Z</time>
      </trkpt>
      <trkpt lat="44.27366" lon="5.10579">
        <ele>291.195</ele>
        <time>2013-05-06T15:37:50Z</time>
      </trkpt>
      <trkpt lat="44.27414" lon="5.10646">
        <ele>289.735</ele>
        <time>2013-05-06T15:37:58Z</time>
      </trkpt>
      <trkpt lat="44.27455" lon="5.10695">
        <ele>289.763</ele>
        <time>2013-05-06T15:38:05Z</time>
      </trkpt>
      <trkpt lat="44.27461" lon="5.107">
        <ele>289.607</ele>
        <time>2013-05-06T15:38:06Z</time>
      </trkpt>
      <trkpt lat="44.27481" lon="5.10717">
        <ele>291.929</ele>
        <time>2013-05-06T15:38:10Z</time>
      </trkpt>
      <trkpt lat="44.27524" lon="5.1074">
        <ele>291.784</ele>
        <time>2013-05-06T15:38:18Z</time>
      </trkpt>
      <trkpt lat="44.27587" lon="5.10764">
        <ele>292.977</ele>
        <time>2013-05-06T15:38:30Z</time>
      </trkpt>
      <trkpt lat="44.27592" lon="5.10766">
        <ele>293.841</ele>
        <time>2013-05-06T15:38:31Z</time>
      </trkpt>
      <trkpt lat="44.27602" lon="5.1077">
        <ele>293.984</ele>
        <time>2013-05-06T15:38:35Z</time>
      </trkpt>
      <trkpt lat="44.27616" lon="5.10791">
        <ele>292.445</ele>
        <time>2013-05-06T15:38:37Z</time>
      </trkpt>
      <trkpt lat="44.27624" lon="5.10783">
        <ele>295.274</ele>
        <time>2013-05-06T15:38:41Z</time>
      </trkpt>
      <trkpt lat="44.27653" lon="5.10759">
        <ele>294.299</ele>
        <time>2013-05-06T15:38:46Z</time>
      </trkpt>
      <trkpt lat="44.27682" lon="5.10747">
        <ele>291.816</ele>
        <time>2013-05-06T15:38:52Z</time>
      </trkpt>
      <trkpt lat="44.27724" lon="5.10729">
        <ele>294.313</ele>
        <time>2013-05-06T15:39:01Z</time>
      </trkpt>
      <trkpt lat="44.27763" lon="5.10717">
        <ele>294.977</ele>
        <time>2013-05-06T15:39:09Z</time>
      </trkpt>
      <trkpt lat="44.27798" lon="5.10701">
        <ele>296.035</ele>
        <time>2013-05-06T15:39:18Z</time>
      </trkpt>
      <trkpt lat="44.27821" lon="5.10688">
        <ele>299.142</ele>
        <time>2013-05-06T15:39:24Z</time>
      </trkpt>
      <trkpt lat="44.27825" lon="5.10686">
        <ele>299.437</ele>
        <time>2013-05-06T15:39:25Z</time>
      </trkpt>
      <trkpt lat="44.27856" lon="5.10666">
        <ele>299.718</ele>
        <time>2013-05-06T15:39:33Z</time>
      </trkpt>
      <trkpt lat="44.27898" lon="5.10637">
        <ele>300.222</ele>
        <time>2013-05-06T15:39:44Z</time>
      </trkpt>
      <trkpt lat="44.27909" lon="5.1063">
        <ele>301.534</ele>
        <time>2013-05-06T15:39:47Z</time>
      </trkpt>
      <trkpt lat="44.27962" lon="5.10594">
        <ele>303.496</ele>
        <time>2013-05-06T15:40:00Z</time>
      </trkpt>
      <trkpt lat="44.28014" lon="5.10558">
        <ele>302.84</ele>
        <time>2013-05-06T15:40:13Z</time>
      </trkpt>
      <trkpt lat="44.28027" lon="5.10553">
        <ele>305.101</ele>
        <time>2013-05-06T15:40:16Z</time>
      </trkpt>
      <trkpt lat="44.28071" lon="5.10551">
        <ele>305.123</ele>
        <time>2013-05-06T15:40:25Z</time>
      </trkpt>
      <trkpt lat="44.28114" lon="5.1056">
        <ele>305.5</ele>
        <time>2013-05-06T15:40:34Z</time>
      </trkpt>
      <trkpt lat="44.28169" lon="5.10575">
        <ele>304.08</ele>
        <time>2013-05-06T15:40:45Z</time>
      </trkpt>
      <trkpt lat="44.2822" lon="5.10592">
        <ele>305.272</ele>
        <time>2013-05-06T15:40:55Z</time>
      </trkpt>
      <trkpt lat="44.28285" lon="5.10616">
        <ele>306.473</ele>
        <time>2013-05-06T15:41:08Z</time>
      </trkpt>
      <trkpt lat="44.28342" lon="5.10624">
        <ele>307.192</ele>
        <time>2013-05-06T15:41:20Z</time>
      </trkpt>
      <trkpt lat="44.28387" lon="5.1062">
        <ele>308.098</ele>
        <time>2013-05-06T15:41:31Z</time>
      </trkpt>
      <trkpt lat="44.28411" lon="5.10612">
        <ele>308.665</ele>
        <time>2013-05-06T15:41:35Z</time>
      </trkpt>
      <trkpt lat="44.28464" lon="5.10594">
        <ele>308.65</ele>
        <time>2013-05-06T15:41:45Z</time>
      </trkpt>
      <trkpt lat="44.28528" lon="5.10568">
        <ele>306.858</ele>
        <time>2013-05-06T15:41:56Z</time>
      </trkpt>
      <trkpt lat="44.28594" lon="5.10541">
        <ele>304.176</ele>
        <time>2013-05-06T15:42:06Z</time>
      </trkpt>
      <trkpt lat="44.28629" lon="5.10526">
        <ele>301.612</ele>
        <time>2013-05-06T15:42:11Z</time>
      </trkpt>
      <trkpt lat="44.28683" lon="5.10506">
        <ele>297.938</ele>
        <time>2013-05-06T15:42:18Z</time>
      </trkpt>
      <trkpt lat="44.28776" lon="5.10469">
        <ele>296.225</ele>
        <time>2013-05-06T15:42:30Z</time>
      </trkpt>
      <trkpt lat="44.28806" lon="5.10456">
        <ele>293.207</ele>
        <time>2013-05-06T15:42:34Z</time>
      </trkpt>
      <trkpt lat="44.28814" lon="5.10452">
        <ele>292.972</ele>
        <time>2013-05-06T15:42:35Z</time>
      </trkpt>
      <trkpt lat="44.28837" lon="5.10441">
        <ele>294.839</ele>
        <time>2013-05-06T15:42:38Z</time>
      </trkpt>
      <trkpt lat="44.28859" lon="5.1043">
        <ele>291.83</ele>
        <time>2013-05-06T15:42:41Z</time>
      </trkpt>
      <trkpt lat="44.28867" lon="5.10426">
        <ele>291.652</ele>
        <time>2013-05-06T15:42:42Z</time>
      </trkpt>
      <trkpt lat="44.28897" lon="5.10412">
        <ele>292.812</ele>
        <time>2013-05-06T15:42:46Z</time>
      </trkpt>
      <trkpt lat="44.28954" lon="5.10381">
        <ele>290.341</ele>
        <time>2013-05-06T15:42:54Z</time>
      </trkpt>
      <trkpt lat="44.29047" lon="5.10328">
        <ele>289.611</ele>
        <time>2013-05-06T15:43:07Z</time>
      </trkpt>
      <trkpt lat="44.29098" lon="5.103">
        <ele>286.048</ele>
        <time>2013-05-06T15:43:14Z</time>
      </trkpt>
      <trkpt lat="44.29192" lon="5.10246">
        <ele>282.823</ele>
        <time>2013-05-06T15:43:27Z</time>
      </trkpt>
      <trkpt lat="44.292" lon="5.10242">
        <ele>283.035</ele>
        <time>2013-05-06T15:43:28Z</time>
      </trkpt>
      <trkpt lat="44.29315" lon="5.10177">
        <ele>281.179</ele>
        <time>2013-05-06T15:43:43Z</time>
      </trkpt>
      <trkpt lat="44.29385" lon="5.1014">
        <ele>279.444</ele>
        <time>2013-05-06T15:43:52Z</time>
      </trkpt>
      <trkpt lat="44.29441" lon="5.10122">
        <ele>279.843</ele>
        <time>2013-05-06T15:43:59Z</time>
      </trkpt>
      <trkpt lat="44.29457" lon="5.10121">
        <ele>280.873</ele>
        <time>2013-05-06T15:44:01Z</time>
      </trkpt>
      <trkpt lat="44.29473" lon="5.10121">
        <ele>279.485</ele>
        <time>2013-05-06T15:44:03Z</time>
      </trkpt>
      <trkpt lat="44.29574" lon="5.10119">
        <ele>277.632</ele>
        <time>2013-05-06T15:44:16Z</time>
      </trkpt>
      <trkpt lat="44.29644" lon="5.10132">
        <ele>275.546</ele>
        <time>2013-05-06T15:44:25Z</time>
      </trkpt>
      <trkpt lat="44.29732" lon="5.10162">
        <ele>276.349</ele>
        <time>2013-05-06T15:44:36Z</time>
      </trkpt>
      <trkpt lat="44.29749" lon="5.10168">
        <ele>274.989</ele>
        <time>2013-05-06T15:44:38Z</time>
      </trkpt>
      <trkpt lat="44.29803" lon="5.10175">
        <ele>274.191</ele>
        <time>2013-05-06T15:44:45Z</time>
      </trkpt>
      <trkpt lat="44.2986" lon="5.10173">
        <ele>275.034</ele>
        <time>2013-05-06T15:44:53Z</time>
      </trkpt>
      <trkpt lat="44.2995" lon="5.10161">
        <ele>275.439</ele>
        <time>2013-05-06T15:45:06Z</time>
      </trkpt>
      <trkpt lat="44.29978" lon="5.10157">
        <ele>271.707</ele>
        <time>2013-05-06T15:45:10Z</time>
      </trkpt>
      <trkpt lat="44.29985" lon="5.10156">
        <ele>271.459</ele>
        <time>2013-05-06T15:45:11Z</time>
      </trkpt>
      <trkpt lat="44.30006" lon="5.10153">
        <ele>273.289</ele>
        <time>2013-05-06T15:45:14Z</time>
      </trkpt>
      <trkpt lat="44.30055" lon="5.10146">
        <ele>272.084</ele>
        <time>2013-05-06T15:45:21Z</time>
      </trkpt>
      <trkpt lat="44.30088" lon="5.10142">
        <ele>274.227</ele>
        <time>2013-05-06T15:45:26Z</time>
      </trkpt>
      <trkpt lat="44.30142" lon="5.10127">
        <ele>271.022</ele>
        <time>2013-05-06T15:45:34Z</time>
      </trkpt>
      <trkpt lat="44.30183" lon="5.10113">
        <ele>270.527</ele>
        <time>2013-05-06T15:45:40Z</time>
      </trkpt>
      <trkpt lat="44.30217" lon="5.10102">
        <ele>269.656</ele>
        <time>2013-05-06T15:45:45Z</time>
      </trkpt>
      <trkpt lat="44.30231" lon="5.10097">
        <ele>272.797</ele>
        <time>2013-05-06T15:45:47Z</time>
      </trkpt>
      <trkpt lat="44.30271" lon="5.10085">
        <ele>274.159</ele>
        <time>2013-05-06T15:45:53Z</time>
      </trkpt>
      <trkpt lat="44.30322" lon="5.10072">
        <ele>274.839</ele>
        <time>2013-05-06T15:46:01Z</time>
      </trkpt>
      <trkpt lat="44.30386" lon="5.10055">
        <ele>272.519</ele>
        <time>2013-05-06T15:46:11Z</time>
      </trkpt>
      <trkpt lat="44.30452" lon="5.10037">
        <ele>270.968</ele>
        <time>2013-05-06T15:46:20Z</time>
      </trkpt>
      <trkpt lat="44.30509" lon="5.10022">
        <ele>273.155</ele>
        <time>2013-05-06T15:46:29Z</time>
      </trkpt>
      <trkpt lat="44.30515" lon="5.1002">
        <ele>273.176</ele>
        <time>2013-05-06T15:46:30Z</time>
      </trkpt>
      <trkpt lat="44.30565" lon="5.10004">
        <ele>275.239</ele>
        <time>2013-05-06T15:46:40Z</time>
      </trkpt>
      <trkpt lat="44.30598" lon="5.09993">
        <ele>275.953</ele>
        <time>2013-05-06T15:46:46Z</time>
      </trkpt>
      <trkpt lat="44.30639" lon="5.09976">
        <ele>272.925</ele>
        <time>2013-05-06T15:46:53Z</time>
      </trkpt>
      <trkpt lat="44.307" lon="5.09956">
        <ele>273.166</ele>
        <time>2013-05-06T15:47:03Z</time>
      </trkpt>
      <trkpt lat="44.30739" lon="5.09945">
        <ele>273.803</ele>
        <time>2013-05-06T15:47:10Z</time>
      </trkpt>
      <trkpt lat="44.30753" lon="5.09941">
        <ele>273.905</ele>
        <time>2013-05-06T15:47:15Z</time>
      </trkpt>
      <trkpt lat="44.30778" lon="5.09937">
        <ele>273.376</ele>
        <time>2013-05-06T15:47:21Z</time>
      </trkpt>
      <trkpt lat="44.30805" lon="5.09935">
        <ele>274.842</ele>
        <time>2013-05-06T15:47:26Z</time>
      </trkpt>
      <trkpt lat="44.30837" lon="5.09925">
        <ele>275.084</ele>
        <time>2013-05-06T15:47:33Z</time>
      </trkpt>
      <trkpt lat="44.30845" lon="5.09917">
        <ele>275.472</ele>
        <time>2013-05-06T15:47:35Z</time>
      </trkpt>
      <trkpt lat="44.30866" lon="5.09896">
        <ele>274.123</ele>
        <time>2013-05-06T15:47:40Z</time>
      </trkpt>
      <trkpt lat="44.30876" lon="5.09886">
        <ele>272.8</ele>
        <time>2013-05-06T15:47:42Z</time>
      </trkpt>
      <trkpt lat="44.30904" lon="5.09875">
        <ele>270.969</ele>
        <time>2013-05-06T15:47:46Z</time>
      </trkpt>
      <trkpt lat="44.30961" lon="5.09869">
        <ele>269.628</ele>
        <time>2013-05-06T15:47:54Z</time>
      </trkpt>
      <trkpt lat="44.30984" lon="5.09869">
        <ele>270.175</ele>
        <time>2013-05-06T15:47:58Z</time>
      </trkpt>
      <trkpt lat="44.31027" lon="5.09878">
        <ele>269.101</ele>
        <time>2013-05-06T15:48:04Z</time>
      </trkpt>
      <trkpt lat="44.31032" lon="5.09879">
        <ele>268.766</ele>
        <time>2013-05-06T15:48:05Z</time>
      </trkpt>
      <trkpt lat="44.31064" lon="5.09861">
        <ele>264.116</ele>
        <time>2013-05-06T15:48:10Z</time>
      </trkpt>
      <trkpt lat="44.3107" lon="5.09855">
        <ele>264.293</ele>
        <time>2013-05-06T15:48:11Z</time>
      </trkpt>
      <trkpt lat="44.31093" lon="5.09828">
        <ele>263.835</ele>
        <time>2013-05-06T15:48:15Z</time>
      </trkpt>
      <trkpt lat="44.31116" lon="5.09798">
        <ele>262.42</ele>
        <time>2013-05-06T15:48:19Z</time>
      </trkpt>
      <trkpt lat="44.31138" lon="5.09768">
        <ele>260.25</ele>
        <time>2013-05-06T15:48:23Z</time>
      </trkpt>
      <trkpt lat="44.3116" lon="5.09753">
        <ele>258.288</ele>
        <time>2013-05-06T15:48:26Z</time>
      </trkpt>
      <trkpt lat="44.31201" lon="5.09735">
        <ele>255.149</ele>
        <time>2013-05-06T15:48:31Z</time>
      </trkpt>
      <trkpt lat="44.31234" lon="5.09723">
        <ele>254.01</ele>
        <time>2013-05-06T15:48:35Z</time>
      </trkpt>
      <trkpt lat="44.31243" lon="5.09723">
        <ele>253.834</ele>
        <time>2013-05-06T15:48:36Z</time>
      </trkpt>
      <trkpt lat="44.31298" lon="5.09723">
        <ele>250.628</ele>
        <time>2013-05-06T15:48:42Z</time>
      </trkpt>
      <trkpt lat="44.31336" lon="5.09728">
        <ele>248.378</ele>
        <time>2013-05-06T15:48:46Z</time>
      </trkpt>
      <trkpt lat="44.31384" lon="5.09732">
        <ele>245.827</ele>
        <time>2013-05-06T15:48:51Z</time>
      </trkpt>
      <trkpt lat="44.3141" lon="5.09738">
        <ele>246.144</ele>
        <time>2013-05-06T15:48:54Z</time>
      </trkpt>
      <trkpt lat="44.31456" lon="5.09769">
        <ele>247.622</ele>
        <time>2013-05-06T15:49:00Z</time>
      </trkpt>
      <trkpt lat="44.31486" lon="5.09791">
        <ele>248.302</ele>
        <time>2013-05-06T15:49:07Z</time>
      </trkpt>
      <trkpt lat="44.31525" lon="5.09822">
        <ele>251.06</ele>
        <time>2013-05-06T15:49:13Z</time>
      </trkpt>
      <trkpt lat="44.31537" lon="5.09831">
        <ele>251.909</ele>
        <time>2013-05-06T15:49:16Z</time>
      </trkpt>
      <trkpt lat="44.31549" lon="5.0984">
        <ele>252.033</ele>
        <time>2013-05-06T15:49:19Z</time>
      </trkpt>
      <trkpt lat="44.31557" lon="5.09846">
        <ele>251.97</ele>
        <time>2013-05-06T15:49:21Z</time>
      </trkpt>
      <trkpt lat="44.31578" lon="5.09863">
        <ele>254.106</ele>
        <time>2013-05-06T15:49:27Z</time>
      </trkpt>
      <trkpt lat="44.31594" lon="5.09876">
        <ele>254.756</ele>
        <time>2013-05-06T15:49:34Z</time>
      </trkpt>
      <trkpt lat="44.31616" lon="5.09893">
        <ele>256.17</ele>
        <time>2013-05-06T15:49:42Z</time>
      </trkpt>
      <trkpt lat="44.31629" lon="5.09902">
        <ele>256.348</ele>
        <time>2013-05-06T15:49:48Z</time>
      </trkpt>
      <trkpt lat="44.31634" lon="5.09906">
        <ele>256.765</ele>
        <time>2013-05-06T15:49:50Z</time>
      </trkpt>
      <trkpt lat="44.31636" lon="5.09927">
        <ele>256.52</ele>
        <time>2013-05-06T15:49:57Z</time>
      </trkpt>
      <trkpt lat="44.31636" lon="5.09927">
        <ele>256.574</ele>
        <time>2013-05-06T15:50:11Z</time>
      </trkpt>
      <trkpt lat="44.31636" lon="5.09927">
        <ele>256.812</ele>
        <time>2013-05-06T15:50:22Z</time>
      </trkpt>
      <trkpt lat="44.31636" lon="5.09927">
        <ele>256.986</ele>
        <time>2013-05-06T15:50:40Z</time>
      </trkpt>
      <trkpt lat="44.31636" lon="5.09927">
        <ele>256.403</ele>
        <time>2013-05-06T15:51:05Z</time>
      </trkpt>
      <trkpt lat="44.31636" lon="5.09927">
        <ele>256.486</ele>
        <time>2013-05-06T15:51:42Z</time>
      </trkpt>
      <trkpt lat="44.31642" lon="5.0994">
        <ele>256.714</ele>
        <time>2013-05-06T15:51:46Z</time>
      </trkpt>
      <trkpt lat="44.31649" lon="5.0996">
        <ele>257.153</ele>
        <time>2013-05-06T15:51:55Z</time>
      </trkpt>
      <trkpt lat="44.31658" lon="5.09982">
        <ele>256.956</ele>
        <time>2013-05-06T15:52:03Z</time>
      </trkpt>
      <trkpt lat="44.31658" lon="5.09984">
        <ele>257.077</ele>
        <time>2013-05-06T15:52:09Z</time>
      </trkpt>
      <trkpt lat="44.31661" lon="5.09991">
        <ele>256.569</ele>
        <time>2013-05-06T15:52:22Z</time>
      </trkpt>
      <trkpt lat="44.31669" lon="5.1001">
        <ele>258.399</ele>
        <time>2013-05-06T15:52:29Z</time>
      </trkpt>
      <trkpt lat="44.31679" lon="5.10032">
        <ele>261.281</ele>
        <time>2013-05-06T15:52:35Z</time>
      </trkpt>
      <trkpt lat="44.31682" lon="5.1004">
        <ele>262.337</ele>
        <time>2013-05-06T15:52:37Z</time>
      </trkpt>
      <trkpt lat="44.31692" lon="5.1007">
        <ele>263.41</ele>
        <time>2013-05-06T15:52:45Z</time>
      </trkpt>
      <trkpt lat="44.31689" lon="5.10095">
        <ele>264.788</ele>
        <time>2013-05-06T15:52:52Z</time>
      </trkpt>
      <trkpt lat="44.31677" lon="5.10113">
        <ele>266.35</ele>
        <time>2013-05-06T15:52:58Z</time>
      </trkpt>
      <trkpt lat="44.3166" lon="5.10135">
        <ele>268.718</ele>
        <time>2013-05-06T15:53:05Z</time>
      </trkpt>
      <trkpt lat="44.31651" lon="5.10151">
        <ele>270.161</ele>
        <time>2013-05-06T15:53:11Z</time>
      </trkpt>
      <trkpt lat="44.31644" lon="5.1018">
        <ele>271.248</ele>
        <time>2013-05-06T15:53:19Z</time>
      </trkpt>
      <trkpt lat="44.31637" lon="5.10218">
        <ele>271.815</ele>
        <time>2013-05-06T15:53:28Z</time>
      </trkpt>
      <trkpt lat="44.31639" lon="5.10261">
        <ele>272.148</ele>
        <time>2013-05-06T15:53:37Z</time>
      </trkpt>
      <trkpt lat="44.31647" lon="5.1032">
        <ele>273.343</ele>
        <time>2013-05-06T15:53:49Z</time>
      </trkpt>
      <trkpt lat="44.31661" lon="5.10363">
        <ele>274.528</ele>
        <time>2013-05-06T15:53:59Z</time>
      </trkpt>
      <trkpt lat="44.31674" lon="5.10395">
        <ele>276.045</ele>
        <time>2013-05-06T15:54:07Z</time>
      </trkpt>
      <trkpt lat="44.31691" lon="5.10437">
        <ele>277.442</ele>
        <time>2013-05-06T15:54:18Z</time>
      </trkpt>
      <trkpt lat="44.31704" lon="5.10472">
        <ele>279.924</ele>
        <time>2013-05-06T15:54:27Z</time>
      </trkpt>
      <trkpt lat="44.3171" lon="5.105">
        <ele>281.317</ele>
        <time>2013-05-06T15:54:34Z</time>
      </trkpt>
      <trkpt lat="44.31717" lon="5.10533">
        <ele>282.401</ele>
        <time>2013-05-06T15:54:43Z</time>
      </trkpt>
      <trkpt lat="44.31726" lon="5.1057">
        <ele>283.606</ele>
        <time>2013-05-06T15:54:53Z</time>
      </trkpt>
      <trkpt lat="44.3173" lon="5.10595">
        <ele>285.555</ele>
        <time>2013-05-06T15:55:01Z</time>
      </trkpt>
      <trkpt lat="44.31734" lon="5.10617">
        <ele>285.357</ele>
        <time>2013-05-06T15:55:07Z</time>
      </trkpt>
      <trkpt lat="44.31732" lon="5.10648">
        <ele>287.126</ele>
        <time>2013-05-06T15:55:14Z</time>
      </trkpt>
      <trkpt lat="44.3173" lon="5.10667">
        <ele>288.376</ele>
        <time>2013-05-06T15:55:19Z</time>
      </trkpt>
      <trkpt lat="44.31726" lon="5.10703">
        <ele>288.49</ele>
        <time>2013-05-06T15:55:28Z</time>
      </trkpt>
      <trkpt lat="44.3172" lon="5.10757">
        <ele>290.425</ele>
        <time>2013-05-06T15:55:41Z</time>
      </trkpt>
      <trkpt lat="44.31714" lon="5.10822">
        <ele>291.625</ele>
        <time>2013-05-06T15:55:53Z</time>
      </trkpt>
      <trkpt lat="44.31707" lon="5.10889">
        <ele>292.141</ele>
        <time>2013-05-06T15:56:04Z</time>
      </trkpt>
      <trkpt lat="44.31701" lon="5.10957">
        <ele>289.31</ele>
        <time>2013-05-06T15:56:14Z</time>
      </trkpt>
      <trkpt lat="44.31718" lon="5.11019">
        <ele>288.14</ele>
        <time>2013-05-06T15:56:22Z</time>
      </trkpt>
      <trkpt lat="44.31737" lon="5.11094">
        <ele>287.883</ele>
        <time>2013-05-06T15:56:31Z</time>
      </trkpt>
      <trkpt lat="44.31754" lon="5.11159">
        <ele>288.29</ele>
        <time>2013-05-06T15:56:39Z</time>
      </trkpt>
      <trkpt lat="44.31751" lon="5.11189">
        <ele>289.756</ele>
        <time>2013-05-06T15:56:44Z</time>
      </trkpt>
      <trkpt lat="44.31746" lon="5.112">
        <ele>290.283</ele>
        <time>2013-05-06T15:56:46Z</time>
      </trkpt>
      <trkpt lat="44.31735" lon="5.11225">
        <ele>292.107</ele>
        <time>2013-05-06T15:56:51Z</time>
      </trkpt>
      <trkpt lat="44.3173" lon="5.11246">
        <ele>293.815</ele>
        <time>2013-05-06T15:56:55Z</time>
      </trkpt>
      <trkpt lat="44.31722" lon="5.11281">
        <ele>295.603</ele>
        <time>2013-05-06T15:57:02Z</time>
      </trkpt>
      <trkpt lat="44.3172" lon="5.11289">
        <ele>296.584</ele>
        <time>2013-05-06T15:57:04Z</time>
      </trkpt>
      <trkpt lat="44.31718" lon="5.113">
        <ele>297.093</ele>
        <time>2013-05-06T15:57:07Z</time>
      </trkpt>
      <trkpt lat="44.31718" lon="5.11329">
        <ele>298.572</ele>
        <time>2013-05-06T15:57:14Z</time>
      </trkpt>
      <trkpt lat="44.31719" lon="5.11374">
        <ele>301.242</ele>
        <time>2013-05-06T15:57:26Z</time>
      </trkpt>
      <trkpt lat="44.3172" lon="5.11425">
        <ele>303.432</ele>
        <time>2013-05-06T15:57:39Z</time>
      </trkpt>
      <trkpt lat="44.31721" lon="5.11469">
        <ele>305.234</ele>
        <time>2013-05-06T15:57:50Z</time>
      </trkpt>
      <trkpt lat="44.31721" lon="5.11501">
        <ele>307.118</ele>
        <time>2013-05-06T15:57:58Z</time>
      </trkpt>
      <trkpt lat="44.31717" lon="5.1154">
        <ele>309.511</ele>
        <time>2013-05-06T15:58:08Z</time>
      </trkpt>
      <trkpt lat="44.31708" lon="5.11584">
        <ele>311.123</ele>
        <time>2013-05-06T15:58:19Z</time>
      </trkpt>
      <trkpt lat="44.317" lon="5.11624">
        <ele>312.883</ele>
        <time>2013-05-06T15:58:29Z</time>
      </trkpt>
      <trkpt lat="44.317" lon="5.11672">
        <ele>314.045</ele>
        <time>2013-05-06T15:58:40Z</time>
      </trkpt>
      <trkpt lat="44.3171" lon="5.11706">
        <ele>315.209</ele>
        <time>2013-05-06T15:58:49Z</time>
      </trkpt>
      <trkpt lat="44.31727" lon="5.1174">
        <ele>316.636</ele>
        <time>2013-05-06T15:58:59Z</time>
      </trkpt>
      <trkpt lat="44.31741" lon="5.11765">
        <ele>318.03</ele>
        <time>2013-05-06T15:59:07Z</time>
      </trkpt>
      <trkpt lat="44.31757" lon="5.11796">
        <ele>320.431</ele>
        <time>2013-05-06T15:59:17Z</time>
      </trkpt>
      <trkpt lat="44.31776" lon="5.11833">
        <ele>323.133</ele>
        <time>2013-05-06T15:59:28Z</time>
      </trkpt>
      <trkpt lat="44.31791" lon="5.11871">
        <ele>324.833</ele>
        <time>2013-05-06T15:59:38Z</time>
      </trkpt>
      <trkpt lat="44.31806" lon="5.11921">
        <ele>324.199</ele>
        <time>2013-05-06T15:59:49Z</time>
      </trkpt>
      <trkpt lat="44.3182" lon="5.1197">
        <ele>325.19</ele>
        <time>2013-05-06T16:00:00Z</time>
      </trkpt>
      <trkpt lat="44.31827" lon="5.12005">
        <ele>326.253</ele>
        <time>2013-05-06T16:00:07Z</time>
      </trkpt>
      <trkpt lat="44.31838" lon="5.12064">
        <ele>327.058</ele>
        <time>2013-05-06T16:00:19Z</time>
      </trkpt>
      <trkpt lat="44.31844" lon="5.12111">
        <ele>327.005</ele>
        <time>2013-05-06T16:00:29Z</time>
      </trkpt>
      <trkpt lat="44.31848" lon="5.12166">
        <ele>328.994</ele>
        <time>2013-05-06T16:00:41Z</time>
      </trkpt>
      <trkpt lat="44.31852" lon="5.12216">
        <ele>330.786</ele>
        <time>2013-05-06T16:00:52Z</time>
      </trkpt>
      <trkpt lat="44.31856" lon="5.12265">
        <ele>332.469</ele>
        <time>2013-05-06T16:01:03Z</time>
      </trkpt>
      <trkpt lat="44.31861" lon="5.12311">
        <ele>333.864</ele>
        <time>2013-05-06T16:01:14Z</time>
      </trkpt>
      <trkpt lat="44.31875" lon="5.12347">
        <ele>336.017</ele>
        <time>2013-05-06T16:01:24Z</time>
      </trkpt>
      <trkpt lat="44.31887" lon="5.12377">
        <ele>337.358</ele>
        <time>2013-05-06T16:01:33Z</time>
      </trkpt>
      <trkpt lat="44.31902" lon="5.12413">
        <ele>340.584</ele>
        <time>2013-05-06T16:01:44Z</time>
      </trkpt>
      <trkpt lat="44.31911" lon="5.12437">
        <ele>341.811</ele>
        <time>2013-05-06T16:01:51Z</time>
      </trkpt>
      <trkpt lat="44.31914" lon="5.12471">
        <ele>343.854</ele>
        <time>2013-05-06T16:02:00Z</time>
      </trkpt>
      <trkpt lat="44.31919" lon="5.12511">
        <ele>345.664</ele>
        <time>2013-05-06T16:02:11Z</time>
      </trkpt>
      <trkpt lat="44.31923" lon="5.12551">
        <ele>347.756</ele>
        <time>2013-05-06T16:02:22Z</time>
      </trkpt>
      <trkpt lat="44.31934" lon="5.12588">
        <ele>349.081</ele>
        <time>2013-05-06T16:02:33Z</time>
      </trkpt>
      <trkpt lat="44.3195" lon="5.12612">
        <ele>351.462</ele>
        <time>2013-05-06T16:02:42Z</time>
      </trkpt>
      <trkpt lat="44.31961" lon="5.12628">
        <ele>352.539</ele>
        <time>2013-05-06T16:02:49Z</time>
      </trkpt>
      <trkpt lat="44.31971" lon="5.12647">
        <ele>354.401</ele>
        <time>2013-05-06T16:02:56Z</time>
      </trkpt>
      <trkpt lat="44.31967" lon="5.12677">
        <ele>355.565</ele>
        <time>2013-05-06T16:03:03Z</time>
      </trkpt>
      <trkpt lat="44.31957" lon="5.12709">
        <ele>357.284</ele>
        <time>2013-05-06T16:03:12Z</time>
      </trkpt>
      <trkpt lat="44.31956" lon="5.12716">
        <ele>358.291</ele>
        <time>2013-05-06T16:03:14Z</time>
      </trkpt>
      <trkpt lat="44.31955" lon="5.12755">
        <ele>358.697</ele>
        <time>2013-05-06T16:03:23Z</time>
      </trkpt>
      <trkpt lat="44.31958" lon="5.12798">
        <ele>360.587</ele>
        <time>2013-05-06T16:03:33Z</time>
      </trkpt>
      <trkpt lat="44.31956" lon="5.12835">
        <ele>361.118</ele>
        <time>2013-05-06T16:03:41Z</time>
      </trkpt>
      <trkpt lat="44.31953" lon="5.12882">
        <ele>362.527</ele>
        <time>2013-05-06T16:03:51Z</time>
      </trkpt>
      <trkpt lat="44.3195" lon="5.12923">
        <ele>363.425</ele>
        <time>2013-05-06T16:04:00Z</time>
      </trkpt>
      <trkpt lat="44.31947" lon="5.12971">
        <ele>364.401</ele>
        <time>2013-05-06T16:04:10Z</time>
      </trkpt>
      <trkpt lat="44.31943" lon="5.13019">
        <ele>365.503</ele>
        <time>2013-05-06T16:04:20Z</time>
      </trkpt>
      <trkpt lat="44.31937" lon="5.13063">
        <ele>366.89</ele>
        <time>2013-05-06T16:04:29Z</time>
      </trkpt>
      <trkpt lat="44.31931" lon="5.13112">
        <ele>367.314</ele>
        <time>2013-05-06T16:04:39Z</time>
      </trkpt>
      <trkpt lat="44.31926" lon="5.13156">
        <ele>367.855</ele>
        <time>2013-05-06T16:04:48Z</time>
      </trkpt>
      <trkpt lat="44.31925" lon="5.13182">
        <ele>367.698</ele>
        <time>2013-05-06T16:04:53Z</time>
      </trkpt>
      <trkpt lat="44.31927" lon="5.13199">
        <ele>366.32</ele>
        <time>2013-05-06T16:04:56Z</time>
      </trkpt>
      <trkpt lat="44.3194" lon="5.1323">
        <ele>365.251</ele>
        <time>2013-05-06T16:05:01Z</time>
      </trkpt>
      <trkpt lat="44.31957" lon="5.13249">
        <ele>363.554</ele>
        <time>2013-05-06T16:05:05Z</time>
      </trkpt>
      <trkpt lat="44.31972" lon="5.13263">
        <ele>363.267</ele>
        <time>2013-05-06T16:05:08Z</time>
      </trkpt>
      <trkpt lat="44.31978" lon="5.13288">
        <ele>363.146</ele>
        <time>2013-05-06T16:05:12Z</time>
      </trkpt>
      <trkpt lat="44.31975" lon="5.13294">
        <ele>363.678</ele>
        <time>2013-05-06T16:05:13Z</time>
      </trkpt>
      <trkpt lat="44.31962" lon="5.13322">
        <ele>364.885</ele>
        <time>2013-05-06T16:05:18Z</time>
      </trkpt>
      <trkpt lat="44.31964" lon="5.13368">
        <ele>365.52</ele>
        <time>2013-05-06T16:05:26Z</time>
      </trkpt>
      <trkpt lat="44.31966" lon="5.13374">
        <ele>365.553</ele>
        <time>2013-05-06T16:05:27Z</time>
      </trkpt>
      <trkpt lat="44.31974" lon="5.13398">
        <ele>366.597</ele>
        <time>2013-05-06T16:05:31Z</time>
      </trkpt>
      <trkpt lat="44.31979" lon="5.13438">
        <ele>366.506</ele>
        <time>2013-05-06T16:05:37Z</time>
      </trkpt>
      <trkpt lat="44.31999" lon="5.13483">
        <ele>362.863</ele>
        <time>2013-05-06T16:05:44Z</time>
      </trkpt>
      <trkpt lat="44.32008" lon="5.13503">
        <ele>361.841</ele>
        <time>2013-05-06T16:05:47Z</time>
      </trkpt>
      <trkpt lat="44.32014" lon="5.13517">
        <ele>361.069</ele>
        <time>2013-05-06T16:05:49Z</time>
      </trkpt>
      <trkpt lat="44.32039" lon="5.13538">
        <ele>361.53</ele>
        <time>2013-05-06T16:05:54Z</time>
      </trkpt>
      <trkpt lat="44.32041" lon="5.13554">
        <ele>361.305</ele>
        <time>2013-05-06T16:05:57Z</time>
      </trkpt>
      <trkpt lat="44.32039" lon="5.13561">
        <ele>360.5</ele>
        <time>2013-05-06T16:05:58Z</time>
      </trkpt>
      <trkpt lat="44.3203" lon="5.13588">
        <ele>361.422</ele>
        <time>2013-05-06T16:06:02Z</time>
      </trkpt>
      <trkpt lat="44.32028" lon="5.13621">
        <ele>363.885</ele>
        <time>2013-05-06T16:06:07Z</time>
      </trkpt>
      <trkpt lat="44.32032" lon="5.13665">
        <ele>365.775</ele>
        <time>2013-05-06T16:06:15Z</time>
      </trkpt>
      <trkpt lat="44.32039" lon="5.13712">
        <ele>367.689</ele>
        <time>2013-05-06T16:06:25Z</time>
      </trkpt>
      <trkpt lat="44.32044" lon="5.13724">
        <ele>369.108</ele>
        <time>2013-05-06T16:06:28Z</time>
      </trkpt>
      <trkpt lat="44.32055" lon="5.13753">
        <ele>370.297</ele>
        <time>2013-05-06T16:06:35Z</time>
      </trkpt>
      <trkpt lat="44.32056" lon="5.1379">
        <ele>371.787</ele>
        <time>2013-05-06T16:06:43Z</time>
      </trkpt>
      <trkpt lat="44.32045" lon="5.13829">
        <ele>372.019</ele>
        <time>2013-05-06T16:06:52Z</time>
      </trkpt>
      <trkpt lat="44.32036" lon="5.1387">
        <ele>373.826</ele>
        <time>2013-05-06T16:07:02Z</time>
      </trkpt>
      <trkpt lat="44.32039" lon="5.13892">
        <ele>375.119</ele>
        <time>2013-05-06T16:07:07Z</time>
      </trkpt>
      <trkpt lat="44.32049" lon="5.13912">
        <ele>376.957</ele>
        <time>2013-05-06T16:07:13Z</time>
      </trkpt>
      <trkpt lat="44.32071" lon="5.13928">
        <ele>378.294</ele>
        <time>2013-05-06T16:07:20Z</time>
      </trkpt>
      <trkpt lat="44.32092" lon="5.13943">
        <ele>378.46</ele>
        <time>2013-05-06T16:07:27Z</time>
      </trkpt>
      <trkpt lat="44.32114" lon="5.13958">
        <ele>379.066</ele>
        <time>2013-05-06T16:07:33Z</time>
      </trkpt>
      <trkpt lat="44.32124" lon="5.1398">
        <ele>378.578</ele>
        <time>2013-05-06T16:07:38Z</time>
      </trkpt>
      <trkpt lat="44.32118" lon="5.13998">
        <ele>378.218</ele>
        <time>2013-05-06T16:07:41Z</time>
      </trkpt>
      <trkpt lat="44.32117" lon="5.14037">
        <ele>377.784</ele>
        <time>2013-05-06T16:07:47Z</time>
      </trkpt>
      <trkpt lat="44.32128" lon="5.14083">
        <ele>378.307</ele>
        <time>2013-05-06T16:07:54Z</time>
      </trkpt>
      <trkpt lat="44.32159" lon="5.1414">
        <ele>379.828</ele>
        <time>2013-05-06T16:08:06Z</time>
      </trkpt>
      <trkpt lat="44.32187" lon="5.14175">
        <ele>382.207</ele>
        <time>2013-05-06T16:08:16Z</time>
      </trkpt>
      <trkpt lat="44.32193" lon="5.1418">
        <ele>383.635</ele>
        <time>2013-05-06T16:08:18Z</time>
      </trkpt>
      <trkpt lat="44.32226" lon="5.1421">
        <ele>384.881</ele>
        <time>2013-05-06T16:08:29Z</time>
      </trkpt>
      <trkpt lat="44.32249" lon="5.14241">
        <ele>387.069</ele>
        <time>2013-05-06T16:08:38Z</time>
      </trkpt>
      <trkpt lat="44.32271" lon="5.14285">
        <ele>389.039</ele>
        <time>2013-05-06T16:08:49Z</time>
      </trkpt>
      <trkpt lat="44.32285" lon="5.14329">
        <ele>389.646</ele>
        <time>2013-05-06T16:08:59Z</time>
      </trkpt>
      <trkpt lat="44.3229" lon="5.14359">
        <ele>391.16</ele>
        <time>2013-05-06T16:09:06Z</time>
      </trkpt>
      <trkpt lat="44.32292" lon="5.14393">
        <ele>392.343</ele>
        <time>2013-05-06T16:09:14Z</time>
      </trkpt>
      <trkpt lat="44.32285" lon="5.14426">
        <ele>395.017</ele>
        <time>2013-05-06T16:09:22Z</time>
      </trkpt>
      <trkpt lat="44.3228" lon="5.14452">
        <ele>396.922</ele>
        <time>2013-05-06T16:09:30Z</time>
      </trkpt>
      <trkpt lat="44.3228" lon="5.14475">
        <ele>399.201</ele>
        <time>2013-05-06T16:09:38Z</time>
      </trkpt>
      <trkpt lat="44.32281" lon="5.14501">
        <ele>401.672</ele>
        <time>2013-05-06T16:09:45Z</time>
      </trkpt>
      <trkpt lat="44.32282" lon="5.1453">
        <ele>403.39</ele>
        <time>2013-05-06T16:09:54Z</time>
      </trkpt>
      <trkpt lat="44.32283" lon="5.14549">
        <ele>404.577</ele>
        <time>2013-05-06T16:10:01Z</time>
      </trkpt>
      <trkpt lat="44.32284" lon="5.14569">
        <ele>406.907</ele>
        <time>2013-05-06T16:10:08Z</time>
      </trkpt>
      <trkpt lat="44.32281" lon="5.1459">
        <ele>409.113</ele>
        <time>2013-05-06T16:10:14Z</time>
      </trkpt>
      <trkpt lat="44.32277" lon="5.14614">
        <ele>409.462</ele>
        <time>2013-05-06T16:10:21Z</time>
      </trkpt>
      <trkpt lat="44.32276" lon="5.14624">
        <ele>410.949</ele>
        <time>2013-05-06T16:10:24Z</time>
      </trkpt>
      <trkpt lat="44.32277" lon="5.14646">
        <ele>412.906</ele>
        <time>2013-05-06T16:10:31Z</time>
      </trkpt>
      <trkpt lat="44.32279" lon="5.14668">
        <ele>413.601</ele>
        <time>2013-05-06T16:10:38Z</time>
      </trkpt>
      <trkpt lat="44.32282" lon="5.14694">
        <ele>413.764</ele>
        <time>2013-05-06T16:10:45Z</time>
      </trkpt>
      <trkpt lat="44.32288" lon="5.14738">
        <ele>414.611</ele>
        <time>2013-05-06T16:10:57Z</time>
      </trkpt>
      <trkpt lat="44.32302" lon="5.1477">
        <ele>416.689</ele>
        <time>2013-05-06T16:11:08Z</time>
      </trkpt>
      <trkpt lat="44.32311" lon="5.14773">
        <ele>419.453</ele>
        <time>2013-05-06T16:11:12Z</time>
      </trkpt>
      <trkpt lat="44.32332" lon="5.14777">
        <ele>421.18</ele>
        <time>2013-05-06T16:11:20Z</time>
      </trkpt>
      <trkpt lat="44.32362" lon="5.14773">
        <ele>422.244</ele>
        <time>2013-05-06T16:11:31Z</time>
      </trkpt>
      <trkpt lat="44.32391" lon="5.14778">
        <ele>423.062</ele>
        <time>2013-05-06T16:11:41Z</time>
      </trkpt>
      <trkpt lat="44.32391" lon="5.14782">
        <ele>422.619</ele>
        <time>2013-05-06T16:11:43Z</time>
      </trkpt>
      <trkpt lat="44.32384" lon="5.14801">
        <ele>423.574</ele>
        <time>2013-05-06T16:11:49Z</time>
      </trkpt>
      <trkpt lat="44.32364" lon="5.14826">
        <ele>426.762</ele>
        <time>2013-05-06T16:11:59Z</time>
      </trkpt>
      <trkpt lat="44.32366" lon="5.14852">
        <ele>426.918</ele>
        <time>2013-05-06T16:12:06Z</time>
      </trkpt>
      <trkpt lat="44.32382" lon="5.14896">
        <ele>426.31</ele>
        <time>2013-05-06T16:12:16Z</time>
      </trkpt>
      <trkpt lat="44.32384" lon="5.14922">
        <ele>426.896</ele>
        <time>2013-05-06T16:12:21Z</time>
      </trkpt>
      <trkpt lat="44.3237" lon="5.14987">
        <ele>426.853</ele>
        <time>2013-05-06T16:12:32Z</time>
      </trkpt>
      <trkpt lat="44.32362" lon="5.15023">
        <ele>427.439</ele>
        <time>2013-05-06T16:12:38Z</time>
      </trkpt>
      <trkpt lat="44.32363" lon="5.15068">
        <ele>426.718</ele>
        <time>2013-05-06T16:12:45Z</time>
      </trkpt>
      <trkpt lat="44.32369" lon="5.151">
        <ele>427.224</ele>
        <time>2013-05-06T16:12:49Z</time>
      </trkpt>
      <trkpt lat="44.3238" lon="5.15157">
        <ele>424.158</ele>
        <time>2013-05-06T16:12:57Z</time>
      </trkpt>
      <trkpt lat="44.32381" lon="5.15164">
        <ele>424.939</ele>
        <time>2013-05-06T16:12:58Z</time>
      </trkpt>
      <trkpt lat="44.32381" lon="5.15188">
        <ele>426.717</ele>
        <time>2013-05-06T16:13:02Z</time>
      </trkpt>
      <trkpt lat="44.32379" lon="5.152">
        <ele>425.604</ele>
        <time>2013-05-06T16:13:04Z</time>
      </trkpt>
      <trkpt lat="44.32374" lon="5.15245">
        <ele>426.682</ele>
        <time>2013-05-06T16:13:12Z</time>
      </trkpt>
      <trkpt lat="44.32387" lon="5.15267">
        <ele>427.649</ele>
        <time>2013-05-06T16:13:18Z</time>
      </trkpt>
      <trkpt lat="44.32394" lon="5.15271">
        <ele>428.281</ele>
        <time>2013-05-06T16:13:20Z</time>
      </trkpt>
      <trkpt lat="44.32427" lon="5.15289">
        <ele>428.374</ele>
        <time>2013-05-06T16:13:29Z</time>
      </trkpt>
      <trkpt lat="44.3244" lon="5.15305">
        <ele>428.453</ele>
        <time>2013-05-06T16:13:33Z</time>
      </trkpt>
      <trkpt lat="44.32467" lon="5.15363">
        <ele>428.788</ele>
        <time>2013-05-06T16:13:45Z</time>
      </trkpt>
      <trkpt lat="44.32487" lon="5.15401">
        <ele>430.523</ele>
        <time>2013-05-06T16:13:54Z</time>
      </trkpt>
      <trkpt lat="44.32489" lon="5.15405">
        <ele>430.172</ele>
        <time>2013-05-06T16:13:55Z</time>
      </trkpt>
      <trkpt lat="44.32502" lon="5.1543">
        <ele>430.684</ele>
        <time>2013-05-06T16:14:01Z</time>
      </trkpt>
      <trkpt lat="44.32509" lon="5.15443">
        <ele>432.112</ele>
        <time>2013-05-06T16:14:04Z</time>
      </trkpt>
      <trkpt lat="44.32526" lon="5.15477">
        <ele>433.471</ele>
        <time>2013-05-06T16:14:12Z</time>
      </trkpt>
      <trkpt lat="44.32543" lon="5.15511">
        <ele>435.501</ele>
        <time>2013-05-06T16:14:20Z</time>
      </trkpt>
      <trkpt lat="44.3256" lon="5.15569">
        <ele>436.662</ele>
        <time>2013-05-06T16:14:32Z</time>
      </trkpt>
      <trkpt lat="44.32572" lon="5.15622">
        <ele>437.138</ele>
        <time>2013-05-06T16:14:43Z</time>
      </trkpt>
      <trkpt lat="44.32575" lon="5.15646">
        <ele>439.865</ele>
        <time>2013-05-06T16:14:48Z</time>
      </trkpt>
      <trkpt lat="44.32579" lon="5.15686">
        <ele>441.208</ele>
        <time>2013-05-06T16:14:56Z</time>
      </trkpt>
      <trkpt lat="44.32591" lon="5.15729">
        <ele>441.907</ele>
        <time>2013-05-06T16:15:05Z</time>
      </trkpt>
      <trkpt lat="44.32608" lon="5.15775">
        <ele>443.206</ele>
        <time>2013-05-06T16:15:14Z</time>
      </trkpt>
      <trkpt lat="44.32621" lon="5.15827">
        <ele>443.462</ele>
        <time>2013-05-06T16:15:24Z</time>
      </trkpt>
      <trkpt lat="44.32627" lon="5.15857">
        <ele>445.868</ele>
        <time>2013-05-06T16:15:30Z</time>
      </trkpt>
      <trkpt lat="44.32637" lon="5.15906">
        <ele>447.432</ele>
        <time>2013-05-06T16:15:40Z</time>
      </trkpt>
      <trkpt lat="44.32649" lon="5.15947">
        <ele>448.6</ele>
        <time>2013-05-06T16:15:49Z</time>
      </trkpt>
      <trkpt lat="44.32653" lon="5.15958">
        <ele>447.36</ele>
        <time>2013-05-06T16:15:52Z</time>
      </trkpt>
      <trkpt lat="44.32653" lon="5.15991">
        <ele>449.244</ele>
        <time>2013-05-06T16:15:59Z</time>
      </trkpt>
      <trkpt lat="44.32653" lon="5.16">
        <ele>450.415</ele>
        <time>2013-05-06T16:16:01Z</time>
      </trkpt>
      <trkpt lat="44.32654" lon="5.16019">
        <ele>450.943</ele>
        <time>2013-05-06T16:16:05Z</time>
      </trkpt>
      <trkpt lat="44.32659" lon="5.16051">
        <ele>453.475</ele>
        <time>2013-05-06T16:16:11Z</time>
      </trkpt>
      <trkpt lat="44.32664" lon="5.16104">
        <ele>454.669</ele>
        <time>2013-05-06T16:16:21Z</time>
      </trkpt>
      <trkpt lat="44.32658" lon="5.16152">
        <ele>455.36</ele>
        <time>2013-05-06T16:16:30Z</time>
      </trkpt>
      <trkpt lat="44.32658" lon="5.16211">
        <ele>456.798</ele>
        <time>2013-05-06T16:16:41Z</time>
      </trkpt>
      <trkpt lat="44.32674" lon="5.16253">
        <ele>458.187</ele>
        <time>2013-05-06T16:16:50Z</time>
      </trkpt>
      <trkpt lat="44.32711" lon="5.1629">
        <ele>459.753</ele>
        <time>2013-05-06T16:17:01Z</time>
      </trkpt>
      <trkpt lat="44.32751" lon="5.16321">
        <ele>461.044</ele>
        <time>2013-05-06T16:17:12Z</time>
      </trkpt>
      <trkpt lat="44.32795" lon="5.16356">
        <ele>459.7</ele>
        <time>2013-05-06T16:17:23Z</time>
      </trkpt>
      <trkpt lat="44.32799" lon="5.16359">
        <ele>459.764</ele>
        <time>2013-05-06T16:17:24Z</time>
      </trkpt>
      <trkpt lat="44.32834" lon="5.16398">
        <ele>462.672</ele>
        <time>2013-05-06T16:17:34Z</time>
      </trkpt>
      <trkpt lat="44.32854" lon="5.16433">
        <ele>464.433</ele>
        <time>2013-05-06T16:17:42Z</time>
      </trkpt>
      <trkpt lat="44.32877" lon="5.16464">
        <ele>467.279</ele>
        <time>2013-05-06T16:17:51Z</time>
      </trkpt>
      <trkpt lat="44.32888" lon="5.16472">
        <ele>468.633</ele>
        <time>2013-05-06T16:17:55Z</time>
      </trkpt>
      <trkpt lat="44.32908" lon="5.16494">
        <ele>471.016</ele>
        <time>2013-05-06T16:18:04Z</time>
      </trkpt>
      <trkpt lat="44.32917" lon="5.16523">
        <ele>473.409</ele>
        <time>2013-05-06T16:18:12Z</time>
      </trkpt>
      <trkpt lat="44.32925" lon="5.16559">
        <ele>474.456</ele>
        <time>2013-05-06T16:18:23Z</time>
      </trkpt>
      <trkpt lat="44.32928" lon="5.1658">
        <ele>477.007</ele>
        <time>2013-05-06T16:18:30Z</time>
      </trkpt>
      <trkpt lat="44.3292" lon="5.16581">
        <ele>479.533</ele>
        <time>2013-05-06T16:18:34Z</time>
      </trkpt>
      <trkpt lat="44.32918" lon="5.16579">
        <ele>479.715</ele>
        <time>2013-05-06T16:18:35Z</time>
      </trkpt>
      <trkpt lat="44.32905" lon="5.16556">
        <ele>480.229</ele>
        <time>2013-05-06T16:18:42Z</time>
      </trkpt>
      <trkpt lat="44.329" lon="5.16549">
        <ele>480.321</ele>
        <time>2013-05-06T16:18:45Z</time>
      </trkpt>
      <trkpt lat="44.32889" lon="5.16561">
        <ele>481.432</ele>
        <time>2013-05-06T16:18:50Z</time>
      </trkpt>
      <trkpt lat="44.32889" lon="5.16565">
        <ele>481.707</ele>
        <time>2013-05-06T16:18:51Z</time>
      </trkpt>
      <trkpt lat="44.32889" lon="5.16588">
        <ele>484.049</ele>
        <time>2013-05-06T16:18:59Z</time>
      </trkpt>
      <trkpt lat="44.32889" lon="5.1661">
        <ele>485.308</ele>
        <time>2013-05-06T16:19:08Z</time>
      </trkpt>
      <trkpt lat="44.32889" lon="5.16638">
        <ele>487.563</ele>
        <time>2013-05-06T16:19:17Z</time>
      </trkpt>
      <trkpt lat="44.32889" lon="5.16657">
        <ele>489.775</ele>
        <time>2013-05-06T16:19:23Z</time>
      </trkpt>
      <trkpt lat="44.32898" lon="5.16663">
        <ele>490.65</ele>
        <time>2013-05-06T16:19:29Z</time>
      </trkpt>
      <trkpt lat="44.32912" lon="5.16669">
        <ele>491.221</ele>
        <time>2013-05-06T16:19:36Z</time>
      </trkpt>
      <trkpt lat="44.32925" lon="5.16686">
        <ele>493.102</ele>
        <time>2013-05-06T16:19:44Z</time>
      </trkpt>
      <trkpt lat="44.32936" lon="5.16703">
        <ele>494.158</ele>
        <time>2013-05-06T16:19:53Z</time>
      </trkpt>
      <trkpt lat="44.32946" lon="5.1672">
        <ele>497.476</ele>
        <time>2013-05-06T16:20:01Z</time>
      </trkpt>
      <trkpt lat="44.32947" lon="5.16741">
        <ele>499.764</ele>
        <time>2013-05-06T16:20:09Z</time>
      </trkpt>
      <trkpt lat="44.32943" lon="5.16759">
        <ele>500.725</ele>
        <time>2013-05-06T16:20:16Z</time>
      </trkpt>
      <trkpt lat="44.32941" lon="5.1678">
        <ele>503.404</ele>
        <time>2013-05-06T16:20:26Z</time>
      </trkpt>
      <trkpt lat="44.32948" lon="5.1679">
        <ele>506.606</ele>
        <time>2013-05-06T16:20:33Z</time>
      </trkpt>
      <trkpt lat="44.3295" lon="5.16792">
        <ele>506.694</ele>
        <time>2013-05-06T16:20:34Z</time>
      </trkpt>
      <trkpt lat="44.32966" lon="5.16795">
        <ele>508.582</ele>
        <time>2013-05-06T16:20:43Z</time>
      </trkpt>
      <trkpt lat="44.32989" lon="5.16795">
        <ele>510.314</ele>
        <time>2013-05-06T16:20:54Z</time>
      </trkpt>
      <trkpt lat="44.33004" lon="5.16802">
        <ele>510.879</ele>
        <time>2013-05-06T16:21:02Z</time>
      </trkpt>
      <trkpt lat="44.33024" lon="5.16816">
        <ele>511.254</ele>
        <time>2013-05-06T16:21:13Z</time>
      </trkpt>
      <trkpt lat="44.33031" lon="5.16828">
        <ele>513.785</ele>
        <time>2013-05-06T16:21:22Z</time>
      </trkpt>
      <trkpt lat="44.33031" lon="5.16828">
        <ele>514.478</ele>
        <time>2013-05-06T16:21:27Z</time>
      </trkpt>
      <trkpt lat="44.33035" lon="5.16837">
        <ele>514.322</ele>
        <time>2013-05-06T16:21:33Z</time>
      </trkpt>
      <trkpt lat="44.33035" lon="5.16837">
        <ele>514.452</ele>
        <time>2013-05-06T16:21:47Z</time>
      </trkpt>
      <trkpt lat="44.33035" lon="5.16837">
        <ele>515.337</ele>
        <time>2013-05-06T16:22:09Z</time>
      </trkpt>
      <trkpt lat="44.33035" lon="5.16837">
        <ele>514.629</ele>
        <time>2013-05-06T16:23:55Z</time>
      </trkpt>
      <trkpt lat="44.33035" lon="5.16837">
        <ele>514.585</ele>
        <time>2013-05-06T16:24:42Z</time>
      </trkpt>
      <trkpt lat="44.33035" lon="5.16837">
        <ele>514.58</ele>
        <time>2013-05-06T16:25:55Z</time>
      </trkpt>
      <trkpt lat="44.33035" lon="5.16837">
        <ele>514.825</ele>
        <time>2013-05-06T16:27:15Z</time>
      </trkpt>
      <trkpt lat="44.33035" lon="5.16837">
        <ele>516.071</ele>
        <time>2013-05-06T16:27:48Z</time>
      </trkpt>
      <trkpt lat="44.33035" lon="5.16837">
        <ele>514.695</ele>
        <time>2013-05-06T16:27:50Z</time>
      </trkpt>
      <trkpt lat="44.33035" lon="5.16837">
        <ele>515.869</ele>
        <time>2013-05-06T16:29:21Z</time>
      </trkpt>
      <trkpt lat="44.33035" lon="5.16837">
        <ele>515.575</ele>
        <time>2013-05-06T16:29:40Z</time>
      </trkpt>
      <trkpt lat="44.33033" lon="5.16861">
        <ele>514.819</ele>
        <time>2013-05-06T16:29:48Z</time>
      </trkpt>
      <trkpt lat="44.33032" lon="5.16887">
        <ele>512.043</ele>
        <time>2013-05-06T16:29:53Z</time>
      </trkpt>
      <trkpt lat="44.3303" lon="5.16916">
        <ele>507.509</ele>
        <time>2013-05-06T16:29:57Z</time>
      </trkpt>
      <trkpt lat="44.33029" lon="5.16924">
        <ele>508.146</ele>
        <time>2013-05-06T16:29:58Z</time>
      </trkpt>
      <trkpt lat="44.33027" lon="5.1695">
        <ele>507.521</ele>
        <time>2013-05-06T16:30:01Z</time>
      </trkpt>
      <trkpt lat="44.33015" lon="5.16992">
        <ele>505.043</ele>
        <time>2013-05-06T16:30:06Z</time>
      </trkpt>
      <trkpt lat="44.3298" lon="5.17067">
        <ele>502.476</ele>
        <time>2013-05-06T16:30:14Z</time>
      </trkpt>
      <trkpt lat="44.32971" lon="5.17089">
        <ele>501.751</ele>
        <time>2013-05-06T16:30:16Z</time>
      </trkpt>
      <trkpt lat="44.32966" lon="5.171">
        <ele>501.531</ele>
        <time>2013-05-06T16:30:17Z</time>
      </trkpt>
      <trkpt lat="44.32948" lon="5.1713">
        <ele>499.871</ele>
        <time>2013-05-06T16:30:20Z</time>
      </trkpt>
      <trkpt lat="44.32942" lon="5.17138">
        <ele>500.695</ele>
        <time>2013-05-06T16:30:21Z</time>
      </trkpt>
      <trkpt lat="44.32937" lon="5.17167">
        <ele>498.975</ele>
        <time>2013-05-06T16:30:25Z</time>
      </trkpt>
      <trkpt lat="44.32945" lon="5.17177">
        <ele>498.081</ele>
        <time>2013-05-06T16:30:27Z</time>
      </trkpt>
      <trkpt lat="44.32962" lon="5.17189">
        <ele>499.267</ele>
        <time>2013-05-06T16:30:30Z</time>
      </trkpt>
      <trkpt lat="44.33014" lon="5.17224">
        <ele>496.223</ele>
        <time>2013-05-06T16:30:39Z</time>
      </trkpt>
      <trkpt lat="44.3302" lon="5.17228">
        <ele>496.731</ele>
        <time>2013-05-06T16:30:40Z</time>
      </trkpt>
      <trkpt lat="44.33047" lon="5.17267">
        <ele>492.557</ele>
        <time>2013-05-06T16:30:46Z</time>
      </trkpt>
      <trkpt lat="44.3306" lon="5.17309">
        <ele>494.735</ele>
        <time>2013-05-06T16:30:51Z</time>
      </trkpt>
      <trkpt lat="44.33087" lon="5.17352">
        <ele>494.457</ele>
        <time>2013-05-06T16:30:57Z</time>
      </trkpt>
      <trkpt lat="44.33098" lon="5.17362">
        <ele>494.823</ele>
        <time>2013-05-06T16:30:59Z</time>
      </trkpt>
      <trkpt lat="44.33119" lon="5.1741">
        <ele>492.801</ele>
        <time>2013-05-06T16:31:05Z</time>
      </trkpt>
      <trkpt lat="44.33127" lon="5.17441">
        <ele>490.112</ele>
        <time>2013-05-06T16:31:08Z</time>
      </trkpt>
      <trkpt lat="44.33144" lon="5.1752">
        <ele>489.282</ele>
        <time>2013-05-06T16:31:16Z</time>
      </trkpt>
      <trkpt lat="44.33154" lon="5.17567">
        <ele>490.022</ele>
        <time>2013-05-06T16:31:21Z</time>
      </trkpt>
      <trkpt lat="44.33152" lon="5.17612">
        <ele>486.758</ele>
        <time>2013-05-06T16:31:26Z</time>
      </trkpt>
      <trkpt lat="44.33148" lon="5.1762">
        <ele>486.561</ele>
        <time>2013-05-06T16:31:27Z</time>
      </trkpt>
      <trkpt lat="44.33136" lon="5.17677">
        <ele>484.92</ele>
        <time>2013-05-06T16:31:33Z</time>
      </trkpt>
      <trkpt lat="44.33151" lon="5.17696">
        <ele>484.413</ele>
        <time>2013-05-06T16:31:36Z</time>
      </trkpt>
      <trkpt lat="44.33173" lon="5.17696">
        <ele>481.383</ele>
        <time>2013-05-06T16:31:39Z</time>
      </trkpt>
      <trkpt lat="44.33182" lon="5.17696">
        <ele>481.446</ele>
        <time>2013-05-06T16:31:40Z</time>
      </trkpt>
      <trkpt lat="44.3319" lon="5.17696">
        <ele>480.673</ele>
        <time>2013-05-06T16:31:41Z</time>
      </trkpt>
      <trkpt lat="44.33224" lon="5.17692">
        <ele>476.91</ele>
        <time>2013-05-06T16:31:45Z</time>
      </trkpt>
      <trkpt lat="44.33302" lon="5.17684">
        <ele>475.799</ele>
        <time>2013-05-06T16:31:54Z</time>
      </trkpt>
      <trkpt lat="44.33328" lon="5.17688">
        <ele>473.38</ele>
        <time>2013-05-06T16:31:57Z</time>
      </trkpt>
      <trkpt lat="44.33361" lon="5.177">
        <ele>473.393</ele>
        <time>2013-05-06T16:32:01Z</time>
      </trkpt>
      <trkpt lat="44.33386" lon="5.17703">
        <ele>471.65</ele>
        <time>2013-05-06T16:32:04Z</time>
      </trkpt>
      <trkpt lat="44.33395" lon="5.17702">
        <ele>473.47</ele>
        <time>2013-05-06T16:32:05Z</time>
      </trkpt>
      <trkpt lat="44.33429" lon="5.17697">
        <ele>470.703</ele>
        <time>2013-05-06T16:32:09Z</time>
      </trkpt>
      <trkpt lat="44.33455" lon="5.17693">
        <ele>469.52</ele>
        <time>2013-05-06T16:32:12Z</time>
      </trkpt>
      <trkpt lat="44.33501" lon="5.17712">
        <ele>467.822</ele>
        <time>2013-05-06T16:32:18Z</time>
      </trkpt>
      <trkpt lat="44.33515" lon="5.17726">
        <ele>467.891</ele>
        <time>2013-05-06T16:32:20Z</time>
      </trkpt>
      <trkpt lat="44.33527" lon="5.17739">
        <ele>467.736</ele>
        <time>2013-05-06T16:32:22Z</time>
      </trkpt>
      <trkpt lat="44.33546" lon="5.17748">
        <ele>467.04</ele>
        <time>2013-05-06T16:32:26Z</time>
      </trkpt>
      <trkpt lat="44.33551" lon="5.17747">
        <ele>466.68</ele>
        <time>2013-05-06T16:32:27Z</time>
      </trkpt>
      <trkpt lat="44.33573" lon="5.17734">
        <ele>465.852</ele>
        <time>2013-05-06T16:32:32Z</time>
      </trkpt>
      <trkpt lat="44.33606" lon="5.17722">
        <ele>462.751</ele>
        <time>2013-05-06T16:32:38Z</time>
      </trkpt>
      <trkpt lat="44.33613" lon="5.17719">
        <ele>462.459</ele>
        <time>2013-05-06T16:32:39Z</time>
      </trkpt>
      <trkpt lat="44.33654" lon="5.17702">
        <ele>458.809</ele>
        <time>2013-05-06T16:32:45Z</time>
      </trkpt>
      <trkpt lat="44.33661" lon="5.17699">
        <ele>458.684</ele>
        <time>2013-05-06T16:32:46Z</time>
      </trkpt>
      <trkpt lat="44.3373" lon="5.17679">
        <ele>457.323</ele>
        <time>2013-05-06T16:32:56Z</time>
      </trkpt>
      <trkpt lat="44.33787" lon="5.17678">
        <ele>455.405</ele>
        <time>2013-05-06T16:33:04Z</time>
      </trkpt>
      <trkpt lat="44.33831" lon="5.17689">
        <ele>452.698</ele>
        <time>2013-05-06T16:33:10Z</time>
      </trkpt>
      <trkpt lat="44.33878" lon="5.17712">
        <ele>451.372</ele>
        <time>2013-05-06T16:33:16Z</time>
      </trkpt>
      <trkpt lat="44.33895" lon="5.17721">
        <ele>447.512</ele>
        <time>2013-05-06T16:33:18Z</time>
      </trkpt>
      <trkpt lat="44.33912" lon="5.17726">
        <ele>446.653</ele>
        <time>2013-05-06T16:33:20Z</time>
      </trkpt>
      <trkpt lat="44.3394" lon="5.17724">
        <ele>445.504</ele>
        <time>2013-05-06T16:33:23Z</time>
      </trkpt>
      <trkpt lat="44.33983" lon="5.17716">
        <ele>445.72</ele>
        <time>2013-05-06T16:33:28Z</time>
      </trkpt>
      <trkpt lat="44.34015" lon="5.17706">
        <ele>445.99</ele>
        <time>2013-05-06T16:33:32Z</time>
      </trkpt>
      <trkpt lat="44.34043" lon="5.17712">
        <ele>445.62</ele>
        <time>2013-05-06T16:33:36Z</time>
      </trkpt>
      <trkpt lat="44.3407" lon="5.17701">
        <ele>445.731</ele>
        <time>2013-05-06T16:33:40Z</time>
      </trkpt>
      <trkpt lat="44.34103" lon="5.17693">
        <ele>444.735</ele>
        <time>2013-05-06T16:33:45Z</time>
      </trkpt>
      <trkpt lat="44.34117" lon="5.17693">
        <ele>444.298</ele>
        <time>2013-05-06T16:33:47Z</time>
      </trkpt>
      <trkpt lat="44.34192" lon="5.17695">
        <ele>443.162</ele>
        <time>2013-05-06T16:33:57Z</time>
      </trkpt>
      <trkpt lat="44.34216" lon="5.17696">
        <ele>440.823</ele>
        <time>2013-05-06T16:34:00Z</time>
      </trkpt>
      <trkpt lat="44.34266" lon="5.17685">
        <ele>439.452</ele>
        <time>2013-05-06T16:34:06Z</time>
      </trkpt>
      <trkpt lat="44.34273" lon="5.17678">
        <ele>440.007</ele>
        <time>2013-05-06T16:34:07Z</time>
      </trkpt>
      <trkpt lat="44.34295" lon="5.17658">
        <ele>437.479</ele>
        <time>2013-05-06T16:34:10Z</time>
      </trkpt>
      <trkpt lat="44.34328" lon="5.17641">
        <ele>435.591</ele>
        <time>2013-05-06T16:34:14Z</time>
      </trkpt>
      <trkpt lat="44.34389" lon="5.1763">
        <ele>433.232</ele>
        <time>2013-05-06T16:34:21Z</time>
      </trkpt>
      <trkpt lat="44.34424" lon="5.17636">
        <ele>432.124</ele>
        <time>2013-05-06T16:34:25Z</time>
      </trkpt>
      <trkpt lat="44.34448" lon="5.17645">
        <ele>428.685</ele>
        <time>2013-05-06T16:34:28Z</time>
      </trkpt>
      <trkpt lat="44.34478" lon="5.17663">
        <ele>430.608</ele>
        <time>2013-05-06T16:34:32Z</time>
      </trkpt>
      <trkpt lat="44.34519" lon="5.17684">
        <ele>429.738</ele>
        <time>2013-05-06T16:34:38Z</time>
      </trkpt>
      <trkpt lat="44.34526" lon="5.17683">
        <ele>429.437</ele>
        <time>2013-05-06T16:34:39Z</time>
      </trkpt>
      <trkpt lat="44.34603" lon="5.1766">
        <ele>430.258</ele>
        <time>2013-05-06T16:34:50Z</time>
      </trkpt>
      <trkpt lat="44.34676" lon="5.1765">
        <ele>428.999</ele>
        <time>2013-05-06T16:35:01Z</time>
      </trkpt>
      <trkpt lat="44.34745" lon="5.17639">
        <ele>429.291</ele>
        <time>2013-05-06T16:35:12Z</time>
      </trkpt>
      <trkpt lat="44.34764" lon="5.17636">
        <ele>428.038</ele>
        <time>2013-05-06T16:35:15Z</time>
      </trkpt>
      <trkpt lat="44.34796" lon="5.17642">
        <ele>425.343</ele>
        <time>2013-05-06T16:35:19Z</time>
      </trkpt>
      <trkpt lat="44.34831" lon="5.17649">
        <ele>422.1</ele>
        <time>2013-05-06T16:35:23Z</time>
      </trkpt>
      <trkpt lat="44.3486" lon="5.17656">
        <ele>418.505</ele>
        <time>2013-05-06T16:35:26Z</time>
      </trkpt>
      <trkpt lat="44.34869" lon="5.17661">
        <ele>418.762</ele>
        <time>2013-05-06T16:35:27Z</time>
      </trkpt>
      <trkpt lat="44.34909" lon="5.17682">
        <ele>415.287</ele>
        <time>2013-05-06T16:35:31Z</time>
      </trkpt>
      <trkpt lat="44.34948" lon="5.177">
        <ele>412.156</ele>
        <time>2013-05-06T16:35:35Z</time>
      </trkpt>
      <trkpt lat="44.34958" lon="5.17704">
        <ele>412.76</ele>
        <time>2013-05-06T16:35:36Z</time>
      </trkpt>
      <trkpt lat="44.34999" lon="5.177">
        <ele>408.718</ele>
        <time>2013-05-06T16:35:40Z</time>
      </trkpt>
      <trkpt lat="44.35065" lon="5.17674">
        <ele>404.989</ele>
        <time>2013-05-06T16:35:46Z</time>
      </trkpt>
      <trkpt lat="44.35122" lon="5.17652">
        <ele>405.202</ele>
        <time>2013-05-06T16:35:52Z</time>
      </trkpt>
      <trkpt lat="44.35156" lon="5.17659">
        <ele>402.729</ele>
        <time>2013-05-06T16:35:56Z</time>
      </trkpt>
      <trkpt lat="44.35238" lon="5.17688">
        <ele>403.657</ele>
        <time>2013-05-06T16:36:06Z</time>
      </trkpt>
      <trkpt lat="44.35285" lon="5.17695">
        <ele>404.304</ele>
        <time>2013-05-06T16:36:13Z</time>
      </trkpt>
      <trkpt lat="44.35304" lon="5.17694">
        <ele>406.03</ele>
        <time>2013-05-06T16:36:16Z</time>
      </trkpt>
      <trkpt lat="44.35349" lon="5.17697">
        <ele>405.562</ele>
        <time>2013-05-06T16:36:24Z</time>
      </trkpt>
      <trkpt lat="44.35393" lon="5.17706">
        <ele>406.127</ele>
        <time>2013-05-06T16:36:32Z</time>
      </trkpt>
      <trkpt lat="44.35419" lon="5.17721">
        <ele>406.109</ele>
        <time>2013-05-06T16:36:37Z</time>
      </trkpt>
      <trkpt lat="44.35429" lon="5.17739">
        <ele>403.948</ele>
        <time>2013-05-06T16:36:40Z</time>
      </trkpt>
      <trkpt lat="44.35433" lon="5.17746">
        <ele>403.587</ele>
        <time>2013-05-06T16:36:41Z</time>
      </trkpt>
      <trkpt lat="44.35457" lon="5.17761">
        <ele>400.439</ele>
        <time>2013-05-06T16:36:45Z</time>
      </trkpt>
      <trkpt lat="44.35465" lon="5.17761">
        <ele>400.227</ele>
        <time>2013-05-06T16:36:46Z</time>
      </trkpt>
      <trkpt lat="44.35473" lon="5.17761">
        <ele>400.068</ele>
        <time>2013-05-06T16:36:47Z</time>
      </trkpt>
      <trkpt lat="44.35497" lon="5.17761">
        <ele>401.19</ele>
        <time>2013-05-06T16:36:50Z</time>
      </trkpt>
      <trkpt lat="44.35511" lon="5.17761">
        <ele>402.131</ele>
        <time>2013-05-06T16:36:52Z</time>
      </trkpt>
      <trkpt lat="44.35532" lon="5.17761">
        <ele>398.77</ele>
        <time>2013-05-06T16:36:55Z</time>
      </trkpt>
      <trkpt lat="44.35539" lon="5.17761">
        <ele>398.919</ele>
        <time>2013-05-06T16:36:56Z</time>
      </trkpt>
      <trkpt lat="44.35574" lon="5.17759">
        <ele>399.462</ele>
        <time>2013-05-06T16:37:01Z</time>
      </trkpt>
      <trkpt lat="44.35587" lon="5.17751">
        <ele>400.209</ele>
        <time>2013-05-06T16:37:03Z</time>
      </trkpt>
      <trkpt lat="44.356" lon="5.17743">
        <ele>398.223</ele>
        <time>2013-05-06T16:37:05Z</time>
      </trkpt>
      <trkpt lat="44.35614" lon="5.17733">
        <ele>396.544</ele>
        <time>2013-05-06T16:37:07Z</time>
      </trkpt>
      <trkpt lat="44.35628" lon="5.17722">
        <ele>391.738</ele>
        <time>2013-05-06T16:37:09Z</time>
      </trkpt>
      <trkpt lat="44.35636" lon="5.17718">
        <ele>391.508</ele>
        <time>2013-05-06T16:37:10Z</time>
      </trkpt>
      <trkpt lat="44.35669" lon="5.17716">
        <ele>388.849</ele>
        <time>2013-05-06T16:37:14Z</time>
      </trkpt>
      <trkpt lat="44.35703" lon="5.17736">
        <ele>385.586</ele>
        <time>2013-05-06T16:37:18Z</time>
      </trkpt>
      <trkpt lat="44.35738" lon="5.17748">
        <ele>386.559</ele>
        <time>2013-05-06T16:37:22Z</time>
      </trkpt>
      <trkpt lat="44.35782" lon="5.17751">
        <ele>387.684</ele>
        <time>2013-05-06T16:37:27Z</time>
      </trkpt>
      <trkpt lat="44.35823" lon="5.17744">
        <ele>384.992</ele>
        <time>2013-05-06T16:37:32Z</time>
      </trkpt>
      <trkpt lat="44.3583" lon="5.17738">
        <ele>383.55</ele>
        <time>2013-05-06T16:37:33Z</time>
      </trkpt>
      <trkpt lat="44.35881" lon="5.17722">
        <ele>380.344</ele>
        <time>2013-05-06T16:37:39Z</time>
      </trkpt>
      <trkpt lat="44.35896" lon="5.17724">
        <ele>380.482</ele>
        <time>2013-05-06T16:37:41Z</time>
      </trkpt>
      <trkpt lat="44.35925" lon="5.17735">
        <ele>378.859</ele>
        <time>2013-05-06T16:37:45Z</time>
      </trkpt>
      <trkpt lat="44.3598" lon="5.17784">
        <ele>374.839</ele>
        <time>2013-05-06T16:37:53Z</time>
      </trkpt>
      <trkpt lat="44.36014" lon="5.17818">
        <ele>374.16</ele>
        <time>2013-05-06T16:37:58Z</time>
      </trkpt>
      <trkpt lat="44.36026" lon="5.17852">
        <ele>374.596</ele>
        <time>2013-05-06T16:38:02Z</time>
      </trkpt>
      <trkpt lat="44.36029" lon="5.17894">
        <ele>374.443</ele>
        <time>2013-05-06T16:38:06Z</time>
      </trkpt>
      <trkpt lat="44.36039" lon="5.17907">
        <ele>373.5</ele>
        <time>2013-05-06T16:38:08Z</time>
      </trkpt>
      <trkpt lat="44.36051" lon="5.17896">
        <ele>372.292</ele>
        <time>2013-05-06T16:38:10Z</time>
      </trkpt>
      <trkpt lat="44.36069" lon="5.17874">
        <ele>367.808</ele>
        <time>2013-05-06T16:38:13Z</time>
      </trkpt>
      <trkpt lat="44.36091" lon="5.17851">
        <ele>365.52</ele>
        <time>2013-05-06T16:38:16Z</time>
      </trkpt>
      <trkpt lat="44.361" lon="5.17848">
        <ele>365.591</ele>
        <time>2013-05-06T16:38:17Z</time>
      </trkpt>
      <trkpt lat="44.36118" lon="5.17851">
        <ele>365.568</ele>
        <time>2013-05-06T16:38:19Z</time>
      </trkpt>
      <trkpt lat="44.36154" lon="5.17865">
        <ele>361.961</ele>
        <time>2013-05-06T16:38:23Z</time>
      </trkpt>
      <trkpt lat="44.3618" lon="5.17876">
        <ele>359.511</ele>
        <time>2013-05-06T16:38:26Z</time>
      </trkpt>
      <trkpt lat="44.36222" lon="5.17892">
        <ele>357.932</ele>
        <time>2013-05-06T16:38:31Z</time>
      </trkpt>
      <trkpt lat="44.3625" lon="5.17914">
        <ele>356.368</ele>
        <time>2013-05-06T16:38:35Z</time>
      </trkpt>
      <trkpt lat="44.36277" lon="5.17928">
        <ele>355.859</ele>
        <time>2013-05-06T16:38:39Z</time>
      </trkpt>
      <trkpt lat="44.36324" lon="5.17937">
        <ele>353.307</ele>
        <time>2013-05-06T16:38:45Z</time>
      </trkpt>
      <trkpt lat="44.36352" lon="5.17949">
        <ele>353.367</ele>
        <time>2013-05-06T16:38:49Z</time>
      </trkpt>
      <trkpt lat="44.36417" lon="5.17952">
        <ele>351.162</ele>
        <time>2013-05-06T16:38:57Z</time>
      </trkpt>
      <trkpt lat="44.36493" lon="5.17946">
        <ele>350.32</ele>
        <time>2013-05-06T16:39:06Z</time>
      </trkpt>
      <trkpt lat="44.36519" lon="5.17934">
        <ele>349.372</ele>
        <time>2013-05-06T16:39:09Z</time>
      </trkpt>
      <trkpt lat="44.36537" lon="5.17928">
        <ele>346.256</ele>
        <time>2013-05-06T16:39:11Z</time>
      </trkpt>
      <trkpt lat="44.36565" lon="5.17928">
        <ele>346.51</ele>
        <time>2013-05-06T16:39:14Z</time>
      </trkpt>
      <trkpt lat="44.36598" lon="5.17937">
        <ele>346.577</ele>
        <time>2013-05-06T16:39:18Z</time>
      </trkpt>
      <trkpt lat="44.36649" lon="5.17981">
        <ele>346.833</ele>
        <time>2013-05-06T16:39:25Z</time>
      </trkpt>
      <trkpt lat="44.36656" lon="5.17987">
        <ele>346.505</ele>
        <time>2013-05-06T16:39:26Z</time>
      </trkpt>
      <trkpt lat="44.36687" lon="5.17993">
        <ele>343.842</ele>
        <time>2013-05-06T16:39:30Z</time>
      </trkpt>
      <trkpt lat="44.36719" lon="5.17966">
        <ele>342.477</ele>
        <time>2013-05-06T16:39:34Z</time>
      </trkpt>
      <trkpt lat="44.36724" lon="5.17955">
        <ele>342.336</ele>
        <time>2013-05-06T16:39:35Z</time>
      </trkpt>
      <trkpt lat="44.36765" lon="5.17901">
        <ele>341.191</ele>
        <time>2013-05-06T16:39:41Z</time>
      </trkpt>
      <trkpt lat="44.36811" lon="5.17879">
        <ele>341.119</ele>
        <time>2013-05-06T16:39:47Z</time>
      </trkpt>
      <trkpt lat="44.36834" lon="5.17873">
        <ele>339.317</ele>
        <time>2013-05-06T16:39:50Z</time>
      </trkpt>
      <trkpt lat="44.36854" lon="5.17886">
        <ele>337.568</ele>
        <time>2013-05-06T16:39:53Z</time>
      </trkpt>
      <trkpt lat="44.36885" lon="5.1791">
        <ele>333.076</ele>
        <time>2013-05-06T16:39:57Z</time>
      </trkpt>
      <trkpt lat="44.36893" lon="5.17916">
        <ele>334.779</ele>
        <time>2013-05-06T16:39:58Z</time>
      </trkpt>
      <trkpt lat="44.36917" lon="5.17927">
        <ele>333.11</ele>
        <time>2013-05-06T16:40:01Z</time>
      </trkpt>
      <trkpt lat="44.36965" lon="5.17943">
        <ele>332.483</ele>
        <time>2013-05-06T16:40:06Z</time>
      </trkpt>
      <trkpt lat="44.36974" lon="5.17946">
        <ele>331.589</ele>
        <time>2013-05-06T16:40:07Z</time>
      </trkpt>
      <trkpt lat="44.37022" lon="5.17974">
        <ele>329.56</ele>
        <time>2013-05-06T16:40:13Z</time>
      </trkpt>
      <trkpt lat="44.37046" lon="5.17992">
        <ele>327.355</ele>
        <time>2013-05-06T16:40:16Z</time>
      </trkpt>
      <trkpt lat="44.37055" lon="5.17998">
        <ele>325.279</ele>
        <time>2013-05-06T16:40:17Z</time>
      </trkpt>
      <trkpt lat="44.37096" lon="5.18024">
        <ele>327.939</ele>
        <time>2013-05-06T16:40:22Z</time>
      </trkpt>
      <trkpt lat="44.37111" lon="5.18033">
        <ele>326.421</ele>
        <time>2013-05-06T16:40:24Z</time>
      </trkpt>
      <trkpt lat="44.37158" lon="5.18042">
        <ele>323.576</ele>
        <time>2013-05-06T16:40:29Z</time>
      </trkpt>
      <trkpt lat="44.37169" lon="5.18041">
        <ele>323.965</ele>
        <time>2013-05-06T16:40:30Z</time>
      </trkpt>
      <trkpt lat="44.37195" lon="5.18048">
        <ele>321.529</ele>
        <time>2013-05-06T16:40:33Z</time>
      </trkpt>
      <trkpt lat="44.37217" lon="5.18066">
        <ele>321.968</ele>
        <time>2013-05-06T16:40:36Z</time>
      </trkpt>
      <trkpt lat="44.37261" lon="5.18103">
        <ele>320.446</ele>
        <time>2013-05-06T16:40:42Z</time>
      </trkpt>
      <trkpt lat="44.3732" lon="5.18146">
        <ele>319.007</ele>
        <time>2013-05-06T16:40:50Z</time>
      </trkpt>
      <trkpt lat="44.37347" lon="5.18165">
        <ele>317.581</ele>
        <time>2013-05-06T16:40:54Z</time>
      </trkpt>
      <trkpt lat="44.37361" lon="5.18177">
        <ele>316.521</ele>
        <time>2013-05-06T16:40:56Z</time>
      </trkpt>
      <trkpt lat="44.3737" lon="5.18206">
        <ele>316.37</ele>
        <time>2013-05-06T16:40:59Z</time>
      </trkpt>
      <trkpt lat="44.37396" lon="5.18261">
        <ele>317.517</ele>
        <time>2013-05-06T16:41:05Z</time>
      </trkpt>
      <trkpt lat="44.37403" lon="5.18267">
        <ele>315.934</ele>
        <time>2013-05-06T16:41:06Z</time>
      </trkpt>
      <trkpt lat="44.37449" lon="5.18298">
        <ele>315.536</ele>
        <time>2013-05-06T16:41:12Z</time>
      </trkpt>
      <trkpt lat="44.37499" lon="5.18302">
        <ele>314.121</ele>
        <time>2013-05-06T16:41:18Z</time>
      </trkpt>
      <trkpt lat="44.37523" lon="5.18295">
        <ele>315.307</ele>
        <time>2013-05-06T16:41:21Z</time>
      </trkpt>
      <trkpt lat="44.37539" lon="5.18289">
        <ele>313.44</ele>
        <time>2013-05-06T16:41:23Z</time>
      </trkpt>
      <trkpt lat="44.37572" lon="5.18289">
        <ele>312.171</ele>
        <time>2013-05-06T16:41:27Z</time>
      </trkpt>
      <trkpt lat="44.37661" lon="5.18328">
        <ele>311.832</ele>
        <time>2013-05-06T16:41:39Z</time>
      </trkpt>
      <trkpt lat="44.37679" lon="5.1836">
        <ele>311.251</ele>
        <time>2013-05-06T16:41:44Z</time>
      </trkpt>
      <trkpt lat="44.37685" lon="5.18387">
        <ele>311.823</ele>
        <time>2013-05-06T16:41:47Z</time>
      </trkpt>
      <trkpt lat="44.37699" lon="5.18472">
        <ele>310.229</ele>
        <time>2013-05-06T16:41:55Z</time>
      </trkpt>
      <trkpt lat="44.37706" lon="5.18574">
        <ele>308.854</ele>
        <time>2013-05-06T16:42:04Z</time>
      </trkpt>
      <trkpt lat="44.37717" lon="5.18659">
        <ele>308.116</ele>
        <time>2013-05-06T16:42:12Z</time>
      </trkpt>
      <trkpt lat="44.37725" lon="5.18685">
        <ele>308.394</ele>
        <time>2013-05-06T16:42:15Z</time>
      </trkpt>
      <trkpt lat="44.37755" lon="5.18744">
        <ele>307.681</ele>
        <time>2013-05-06T16:42:22Z</time>
      </trkpt>
      <trkpt lat="44.37769" lon="5.18769">
        <ele>306.337</ele>
        <time>2013-05-06T16:42:25Z</time>
      </trkpt>
      <trkpt lat="44.37802" lon="5.18835">
        <ele>307.494</ele>
        <time>2013-05-06T16:42:33Z</time>
      </trkpt>
      <trkpt lat="44.37805" lon="5.18844">
        <ele>307.559</ele>
        <time>2013-05-06T16:42:34Z</time>
      </trkpt>
      <trkpt lat="44.37815" lon="5.1888">
        <ele>307.267</ele>
        <time>2013-05-06T16:42:38Z</time>
      </trkpt>
      <trkpt lat="44.37824" lon="5.18929">
        <ele>307.606</ele>
        <time>2013-05-06T16:42:45Z</time>
      </trkpt>
      <trkpt lat="44.37828" lon="5.18963">
        <ele>306.855</ele>
        <time>2013-05-06T16:42:52Z</time>
      </trkpt>
      <trkpt lat="44.37826" lon="5.18982">
        <ele>307.085</ele>
        <time>2013-05-06T16:42:55Z</time>
      </trkpt>
      <trkpt lat="44.37825" lon="5.19002">
        <ele>306.418</ele>
        <time>2013-05-06T16:42:58Z</time>
      </trkpt>
      <trkpt lat="44.37835" lon="5.19026">
        <ele>307.314</ele>
        <time>2013-05-06T16:43:03Z</time>
      </trkpt>
      <trkpt lat="44.37841" lon="5.19033">
        <ele>308.618</ele>
        <time>2013-05-06T16:43:05Z</time>
      </trkpt>
      <trkpt lat="44.37837" lon="5.19061">
        <ele>311.605</ele>
        <time>2013-05-06T16:43:10Z</time>
      </trkpt>
      <trkpt lat="44.37841" lon="5.19081">
        <ele>311.397</ele>
        <time>2013-05-06T16:43:15Z</time>
      </trkpt>
      <trkpt lat="44.37841" lon="5.19083">
        <ele>310.872</ele>
        <time>2013-05-06T16:43:20Z</time>
      </trkpt>
      <trkpt lat="44.37841" lon="5.19083">
        <ele>311.28</ele>
        <time>2013-05-06T16:43:36Z</time>
      </trkpt>
      <trkpt lat="44.37841" lon="5.19083">
        <ele>309.356</ele>
        <time>2013-05-06T16:43:43Z</time>
      </trkpt>
      <trkpt lat="44.37841" lon="5.19083">
        <ele>308.15</ele>
        <time>2013-05-06T16:43:44Z</time>
      </trkpt>
      <trkpt lat="44.37862" lon="5.19079">
        <ele>311.146</ele>
        <time>2013-05-06T16:43:48Z</time>
      </trkpt>
      <trkpt lat="44.37881" lon="5.19076">
        <ele>311.558</ele>
        <time>2013-05-06T16:43:55Z</time>
      </trkpt>
      <trkpt lat="44.37896" lon="5.1908">
        <ele>310.91</ele>
        <time>2013-05-06T16:44:01Z</time>
      </trkpt>
      <trkpt lat="44.37908" lon="5.19101">
        <ele>311.003</ele>
        <time>2013-05-06T16:44:07Z</time>
      </trkpt>
      <trkpt lat="44.37928" lon="5.1913">
        <ele>309.194</ele>
        <time>2013-05-06T16:44:14Z</time>
      </trkpt>
      <trkpt lat="44.37934" lon="5.19138">
        <ele>308.461</ele>
        <time>2013-05-06T16:44:16Z</time>
      </trkpt>
      <trkpt lat="44.3795" lon="5.19156">
        <ele>309.212</ele>
        <time>2013-05-06T16:44:21Z</time>
      </trkpt>
      <trkpt lat="44.37964" lon="5.19168">
        <ele>309.346</ele>
        <time>2013-05-06T16:44:25Z</time>
      </trkpt>
      <trkpt lat="44.37992" lon="5.1919">
        <ele>311.209</ele>
        <time>2013-05-06T16:44:32Z</time>
      </trkpt>
      <trkpt lat="44.37995" lon="5.19193">
        <ele>311.496</ele>
        <time>2013-05-06T16:44:33Z</time>
      </trkpt>
      <trkpt lat="44.38022" lon="5.19216">
        <ele>310.077</ele>
        <time>2013-05-06T16:44:40Z</time>
      </trkpt>
      <trkpt lat="44.38036" lon="5.1923">
        <ele>308.085</ele>
        <time>2013-05-06T16:44:43Z</time>
      </trkpt>
      <trkpt lat="44.38069" lon="5.19246">
        <ele>311.662</ele>
        <time>2013-05-06T16:44:52Z</time>
      </trkpt>
      <trkpt lat="44.38111" lon="5.19272">
        <ele>311.628</ele>
        <time>2013-05-06T16:45:03Z</time>
      </trkpt>
      <trkpt lat="44.38122" lon="5.19282">
        <ele>311.718</ele>
        <time>2013-05-06T16:45:06Z</time>
      </trkpt>
      <trkpt lat="44.38133" lon="5.19291">
        <ele>311.9</ele>
        <time>2013-05-06T16:45:09Z</time>
      </trkpt>
      <trkpt lat="44.38158" lon="5.1931">
        <ele>312.539</ele>
        <time>2013-05-06T16:45:16Z</time>
      </trkpt>
      <trkpt lat="44.3818" lon="5.19327">
        <ele>313.553</ele>
        <time>2013-05-06T16:45:23Z</time>
      </trkpt>
      <trkpt lat="44.38217" lon="5.19356">
        <ele>314.032</ele>
        <time>2013-05-06T16:45:34Z</time>
      </trkpt>
      <trkpt lat="44.3825" lon="5.19379">
        <ele>316.309</ele>
        <time>2013-05-06T16:45:42Z</time>
      </trkpt>
      <trkpt lat="44.38281" lon="5.19401">
        <ele>317.705</ele>
        <time>2013-05-06T16:45:50Z</time>
      </trkpt>
      <trkpt lat="44.38301" lon="5.1941">
        <ele>319.233</ele>
        <time>2013-05-06T16:45:55Z</time>
      </trkpt>
      <trkpt lat="44.38336" lon="5.19424">
        <ele>318.647</ele>
        <time>2013-05-06T16:46:03Z</time>
      </trkpt>
      <trkpt lat="44.38385" lon="5.19443">
        <ele>318.999</ele>
        <time>2013-05-06T16:46:13Z</time>
      </trkpt>
      <trkpt lat="44.38434" lon="5.19462">
        <ele>319.594</ele>
        <time>2013-05-06T16:46:23Z</time>
      </trkpt>
      <trkpt lat="44.38482" lon="5.19481">
        <ele>319.998</ele>
        <time>2013-05-06T16:46:33Z</time>
      </trkpt>
      <trkpt lat="44.38527" lon="5.19498">
        <ele>321.61</ele>
        <time>2013-05-06T16:46:42Z</time>
      </trkpt>
      <trkpt lat="44.38531" lon="5.19499">
        <ele>321.154</ele>
        <time>2013-05-06T16:46:43Z</time>
      </trkpt>
      <trkpt lat="44.38548" lon="5.19506">
        <ele>320.74</ele>
        <time>2013-05-06T16:46:47Z</time>
      </trkpt>
      <trkpt lat="44.38599" lon="5.19526">
        <ele>320.162</ele>
        <time>2013-05-06T16:46:59Z</time>
      </trkpt>
      <trkpt lat="44.38653" lon="5.19546">
        <ele>322.458</ele>
        <time>2013-05-06T16:47:11Z</time>
      </trkpt>
      <trkpt lat="44.38714" lon="5.19569">
        <ele>323.961</ele>
        <time>2013-05-06T16:47:24Z</time>
      </trkpt>
      <trkpt lat="44.38768" lon="5.19599">
        <ele>324.834</ele>
        <time>2013-05-06T16:47:35Z</time>
      </trkpt>
      <trkpt lat="44.38822" lon="5.19638">
        <ele>324.38</ele>
        <time>2013-05-06T16:47:46Z</time>
      </trkpt>
      <trkpt lat="44.38848" lon="5.19657">
        <ele>322.483</ele>
        <time>2013-05-06T16:47:51Z</time>
      </trkpt>
      <trkpt lat="44.38865" lon="5.19677">
        <ele>325.313</ele>
        <time>2013-05-06T16:47:55Z</time>
      </trkpt>
      <trkpt lat="44.38877" lon="5.19695">
        <ele>325.16</ele>
        <time>2013-05-06T16:47:58Z</time>
      </trkpt>
      <trkpt lat="44.38899" lon="5.19756">
        <ele>325.775</ele>
        <time>2013-05-06T16:48:07Z</time>
      </trkpt>
      <trkpt lat="44.38925" lon="5.19847">
        <ele>324.915</ele>
        <time>2013-05-06T16:48:19Z</time>
      </trkpt>
      <trkpt lat="44.38927" lon="5.19857">
        <ele>324.879</ele>
        <time>2013-05-06T16:48:20Z</time>
      </trkpt>
      <trkpt lat="44.38934" lon="5.19945">
        <ele>323.357</ele>
        <time>2013-05-06T16:48:29Z</time>
      </trkpt>
      <trkpt lat="44.38931" lon="5.20031">
        <ele>324.626</ele>
        <time>2013-05-06T16:48:38Z</time>
      </trkpt>
      <trkpt lat="44.38933" lon="5.20102">
        <ele>324.837</ele>
        <time>2013-05-06T16:48:46Z</time>
      </trkpt>
      <trkpt lat="44.38948" lon="5.20154">
        <ele>324.197</ele>
        <time>2013-05-06T16:48:52Z</time>
      </trkpt>
      <trkpt lat="44.38999" lon="5.2024">
        <ele>324.337</ele>
        <time>2013-05-06T16:49:03Z</time>
      </trkpt>
      <trkpt lat="44.39064" lon="5.20344">
        <ele>324.144</ele>
        <time>2013-05-06T16:49:16Z</time>
      </trkpt>
      <trkpt lat="44.39126" lon="5.2044">
        <ele>326.157</ele>
        <time>2013-05-06T16:49:29Z</time>
      </trkpt>
      <trkpt lat="44.3916" lon="5.2053">
        <ele>326.101</ele>
        <time>2013-05-06T16:49:40Z</time>
      </trkpt>
      <trkpt lat="44.39172" lon="5.20603">
        <ele>328.6</ele>
        <time>2013-05-06T16:49:48Z</time>
      </trkpt>
      <trkpt lat="44.3919" lon="5.20711">
        <ele>329.193</ele>
        <time>2013-05-06T16:50:00Z</time>
      </trkpt>
      <trkpt lat="44.39204" lon="5.20793">
        <ele>329.402</ele>
        <time>2013-05-06T16:50:10Z</time>
      </trkpt>
      <trkpt lat="44.39224" lon="5.20917">
        <ele>328.246</ele>
        <time>2013-05-06T16:50:24Z</time>
      </trkpt>
      <trkpt lat="44.39243" lon="5.21035">
        <ele>329.227</ele>
        <time>2013-05-06T16:50:37Z</time>
      </trkpt>
      <trkpt lat="44.3926" lon="5.21164">
        <ele>331.037</ele>
        <time>2013-05-06T16:50:51Z</time>
      </trkpt>
      <trkpt lat="44.39252" lon="5.21232">
        <ele>331.096</ele>
        <time>2013-05-06T16:50:58Z</time>
      </trkpt>
      <trkpt lat="44.3923" lon="5.21305">
        <ele>332.647</ele>
        <time>2013-05-06T16:51:06Z</time>
      </trkpt>
      <trkpt lat="44.39193" lon="5.21426">
        <ele>334.275</ele>
        <time>2013-05-06T16:51:20Z</time>
      </trkpt>
      <trkpt lat="44.39156" lon="5.21547">
        <ele>334.371</ele>
        <time>2013-05-06T16:51:35Z</time>
      </trkpt>
      <trkpt lat="44.39119" lon="5.21665">
        <ele>334.823</ele>
        <time>2013-05-06T16:51:50Z</time>
      </trkpt>
      <trkpt lat="44.39082" lon="5.21738">
        <ele>334.77</ele>
        <time>2013-05-06T16:52:00Z</time>
      </trkpt>
      <trkpt lat="44.3905" lon="5.21791">
        <ele>336.239</ele>
        <time>2013-05-06T16:52:08Z</time>
      </trkpt>
      <trkpt lat="44.39031" lon="5.2184">
        <ele>336.184</ele>
        <time>2013-05-06T16:52:15Z</time>
      </trkpt>
      <trkpt lat="44.39012" lon="5.21891">
        <ele>337.673</ele>
        <time>2013-05-06T16:52:22Z</time>
      </trkpt>
      <trkpt lat="44.39005" lon="5.21927">
        <ele>337.837</ele>
        <time>2013-05-06T16:52:27Z</time>
      </trkpt>
      <trkpt lat="44.39007" lon="5.21968">
        <ele>338.249</ele>
        <time>2013-05-06T16:52:33Z</time>
      </trkpt>
      <trkpt lat="44.39022" lon="5.22061">
        <ele>338.965</ele>
        <time>2013-05-06T16:52:45Z</time>
      </trkpt>
      <trkpt lat="44.39035" lon="5.22123">
        <ele>339.916</ele>
        <time>2013-05-06T16:52:53Z</time>
      </trkpt>
      <trkpt lat="44.39035" lon="5.22146">
        <ele>340.454</ele>
        <time>2013-05-06T16:52:56Z</time>
      </trkpt>
      <trkpt lat="44.39019" lon="5.22205">
        <ele>340.923</ele>
        <time>2013-05-06T16:53:04Z</time>
      </trkpt>
      <trkpt lat="44.38998" lon="5.22251">
        <ele>341.624</ele>
        <time>2013-05-06T16:53:11Z</time>
      </trkpt>
      <trkpt lat="44.38972" lon="5.22292">
        <ele>342.366</ele>
        <time>2013-05-06T16:53:18Z</time>
      </trkpt>
      <trkpt lat="44.3893" lon="5.22373">
        <ele>344.488</ele>
        <time>2013-05-06T16:53:31Z</time>
      </trkpt>
      <trkpt lat="44.38921" lon="5.22426">
        <ele>345.584</ele>
        <time>2013-05-06T16:53:38Z</time>
      </trkpt>
      <trkpt lat="44.38909" lon="5.22506">
        <ele>345.352</ele>
        <time>2013-05-06T16:53:48Z</time>
      </trkpt>
      <trkpt lat="44.38888" lon="5.22607">
        <ele>343.483</ele>
        <time>2013-05-06T16:53:59Z</time>
      </trkpt>
      <trkpt lat="44.38857" lon="5.22682">
        <ele>342.42</ele>
        <time>2013-05-06T16:54:08Z</time>
      </trkpt>
      <trkpt lat="44.38829" lon="5.22759">
        <ele>342.287</ele>
        <time>2013-05-06T16:54:18Z</time>
      </trkpt>
      <trkpt lat="44.3883" lon="5.22816">
        <ele>341.507</ele>
        <time>2013-05-06T16:54:25Z</time>
      </trkpt>
      <trkpt lat="44.38839" lon="5.22912">
        <ele>340.051</ele>
        <time>2013-05-06T16:54:36Z</time>
      </trkpt>
      <trkpt lat="44.38836" lon="5.22984">
        <ele>339.602</ele>
        <time>2013-05-06T16:54:44Z</time>
      </trkpt>
      <trkpt lat="44.3882" lon="5.23066">
        <ele>338.79</ele>
        <time>2013-05-06T16:54:53Z</time>
      </trkpt>
      <trkpt lat="44.3879" lon="5.23182">
        <ele>338.545</ele>
        <time>2013-05-06T16:55:06Z</time>
      </trkpt>
      <trkpt lat="44.38795" lon="5.23232">
        <ele>338.694</ele>
        <time>2013-05-06T16:55:12Z</time>
      </trkpt>
      <trkpt lat="44.38819" lon="5.23276">
        <ele>338.405</ele>
        <time>2013-05-06T16:55:17Z</time>
      </trkpt>
      <trkpt lat="44.38838" lon="5.23275">
        <ele>338.006</ele>
        <time>2013-05-06T16:55:22Z</time>
      </trkpt>
      <trkpt lat="44.3882" lon="5.23271">
        <ele>337.347</ele>
        <time>2013-05-06T16:55:25Z</time>
      </trkpt>
      <trkpt lat="44.38884" lon="5.23284">
        <ele>338.05</ele>
        <time>2013-05-06T16:55:27Z</time>
      </trkpt>
      <trkpt lat="44.38946" lon="5.23294">
        <ele>337.704</ele>
        <time>2013-05-06T16:55:39Z</time>
      </trkpt>
      <trkpt lat="44.39013" lon="5.23301">
        <ele>338.233</ele>
        <time>2013-05-06T16:55:50Z</time>
      </trkpt>
      <trkpt lat="44.3908" lon="5.23299">
        <ele>339.9</ele>
        <time>2013-05-06T16:56:01Z</time>
      </trkpt>
      <trkpt lat="44.39152" lon="5.23302">
        <ele>340.148</ele>
        <time>2013-05-06T16:56:13Z</time>
      </trkpt>
      <trkpt lat="44.39235" lon="5.23314">
        <ele>340.11</ele>
        <time>2013-05-06T16:56:27Z</time>
      </trkpt>
      <trkpt lat="44.39286" lon="5.23333">
        <ele>340.685</ele>
        <time>2013-05-06T16:56:36Z</time>
      </trkpt>
      <trkpt lat="44.39322" lon="5.23359">
        <ele>340.877</ele>
        <time>2013-05-06T16:56:43Z</time>
      </trkpt>
      <trkpt lat="44.39377" lon="5.23395">
        <ele>342.004</ele>
        <time>2013-05-06T16:56:53Z</time>
      </trkpt>
      <trkpt lat="44.39423" lon="5.23409">
        <ele>342.388</ele>
        <time>2013-05-06T16:57:01Z</time>
      </trkpt>
      <trkpt lat="44.39487" lon="5.23419">
        <ele>343.544</ele>
        <time>2013-05-06T16:57:12Z</time>
      </trkpt>
      <trkpt lat="44.39555" lon="5.23437">
        <ele>342.085</ele>
        <time>2013-05-06T16:57:23Z</time>
      </trkpt>
      <trkpt lat="44.39624" lon="5.23465">
        <ele>344.043</ele>
        <time>2013-05-06T16:57:34Z</time>
      </trkpt>
      <trkpt lat="44.39699" lon="5.23486">
        <ele>344.294</ele>
        <time>2013-05-06T16:57:46Z</time>
      </trkpt>
      <trkpt lat="44.3977" lon="5.235">
        <ele>343.565</ele>
        <time>2013-05-06T16:57:57Z</time>
      </trkpt>
      <trkpt lat="44.39843" lon="5.23524">
        <ele>343.79</ele>
        <time>2013-05-06T16:58:09Z</time>
      </trkpt>
      <trkpt lat="44.39881" lon="5.23557">
        <ele>343.257</ele>
        <time>2013-05-06T16:58:16Z</time>
      </trkpt>
      <trkpt lat="44.39932" lon="5.23618">
        <ele>344.263</ele>
        <time>2013-05-06T16:58:27Z</time>
      </trkpt>
      <trkpt lat="44.39954" lon="5.2366">
        <ele>344.143</ele>
        <time>2013-05-06T16:58:33Z</time>
      </trkpt>
      <trkpt lat="44.39961" lon="5.23713">
        <ele>344.617</ele>
        <time>2013-05-06T16:58:39Z</time>
      </trkpt>
      <trkpt lat="44.39971" lon="5.23779">
        <ele>344.834</ele>
        <time>2013-05-06T16:58:47Z</time>
      </trkpt>
      <trkpt lat="44.40006" lon="5.23894">
        <ele>344.976</ele>
        <time>2013-05-06T16:59:02Z</time>
      </trkpt>
      <trkpt lat="44.40013" lon="5.23918">
        <ele>344.76</ele>
        <time>2013-05-06T16:59:05Z</time>
      </trkpt>
      <trkpt lat="44.40036" lon="5.23941">
        <ele>344.831</ele>
        <time>2013-05-06T16:59:10Z</time>
      </trkpt>
      <trkpt lat="44.40041" lon="5.23942">
        <ele>344.369</ele>
        <time>2013-05-06T16:59:11Z</time>
      </trkpt>
      <trkpt lat="44.40051" lon="5.23945">
        <ele>344.858</ele>
        <time>2013-05-06T16:59:13Z</time>
      </trkpt>
      <trkpt lat="44.4007" lon="5.2395">
        <ele>345</ele>
        <time>2013-05-06T16:59:17Z</time>
      </trkpt>
      <trkpt lat="44.40093" lon="5.23956">
        <ele>344.757</ele>
        <time>2013-05-06T16:59:22Z</time>
      </trkpt>
      <trkpt lat="44.40102" lon="5.23961">
        <ele>345.432</ele>
        <time>2013-05-06T16:59:24Z</time>
      </trkpt>
      <trkpt lat="44.40121" lon="5.2399">
        <ele>345.077</ele>
        <time>2013-05-06T16:59:30Z</time>
      </trkpt>
      <trkpt lat="44.40126" lon="5.24006">
        <ele>345.155</ele>
        <time>2013-05-06T16:59:33Z</time>
      </trkpt>
      <trkpt lat="44.40137" lon="5.24069">
        <ele>345.957</ele>
        <time>2013-05-06T16:59:42Z</time>
      </trkpt>
      <trkpt lat="44.40146" lon="5.2414">
        <ele>346.252</ele>
        <time>2013-05-06T16:59:51Z</time>
      </trkpt>
      <trkpt lat="44.4014" lon="5.24205">
        <ele>347.107</ele>
        <time>2013-05-06T16:59:59Z</time>
      </trkpt>
      <trkpt lat="44.40133" lon="5.24273">
        <ele>347.333</ele>
        <time>2013-05-06T17:00:08Z</time>
      </trkpt>
      <trkpt lat="44.40138" lon="5.24328">
        <ele>347.434</ele>
        <time>2013-05-06T17:00:16Z</time>
      </trkpt>
      <trkpt lat="44.4015" lon="5.24426">
        <ele>347.505</ele>
        <time>2013-05-06T17:00:28Z</time>
      </trkpt>
      <trkpt lat="44.40149" lon="5.24504">
        <ele>348.334</ele>
        <time>2013-05-06T17:00:37Z</time>
      </trkpt>
      <trkpt lat="44.40142" lon="5.24589">
        <ele>349.136</ele>
        <time>2013-05-06T17:00:47Z</time>
      </trkpt>
      <trkpt lat="44.40142" lon="5.24605">
        <ele>349.78</ele>
        <time>2013-05-06T17:00:49Z</time>
      </trkpt>
      <trkpt lat="44.40152" lon="5.24656">
        <ele>350.074</ele>
        <time>2013-05-06T17:00:56Z</time>
      </trkpt>
      <trkpt lat="44.40154" lon="5.24663">
        <ele>350.458</ele>
        <time>2013-05-06T17:00:57Z</time>
      </trkpt>
      <trkpt lat="44.40183" lon="5.24736">
        <ele>349.825</ele>
        <time>2013-05-06T17:01:07Z</time>
      </trkpt>
      <trkpt lat="44.40215" lon="5.24815">
        <ele>350.627</ele>
        <time>2013-05-06T17:01:18Z</time>
      </trkpt>
      <trkpt lat="44.40228" lon="5.2484">
        <ele>351.192</ele>
        <time>2013-05-06T17:01:22Z</time>
      </trkpt>
      <trkpt lat="44.40261" lon="5.24875">
        <ele>351.284</ele>
        <time>2013-05-06T17:01:29Z</time>
      </trkpt>
      <trkpt lat="44.40277" lon="5.24883">
        <ele>351.584</ele>
        <time>2013-05-06T17:01:32Z</time>
      </trkpt>
      <trkpt lat="44.40316" lon="5.2489">
        <ele>351.825</ele>
        <time>2013-05-06T17:01:39Z</time>
      </trkpt>
      <trkpt lat="44.40375" lon="5.24892">
        <ele>351.594</ele>
        <time>2013-05-06T17:01:49Z</time>
      </trkpt>
      <trkpt lat="44.40405" lon="5.24893">
        <ele>351.992</ele>
        <time>2013-05-06T17:01:54Z</time>
      </trkpt>
      <trkpt lat="44.40444" lon="5.24909">
        <ele>352.603</ele>
        <time>2013-05-06T17:02:01Z</time>
      </trkpt>
      <trkpt lat="44.40485" lon="5.24945">
        <ele>352.988</ele>
        <time>2013-05-06T17:02:09Z</time>
      </trkpt>
      <trkpt lat="44.40535" lon="5.2499">
        <ele>353.354</ele>
        <time>2013-05-06T17:02:19Z</time>
      </trkpt>
      <trkpt lat="44.40579" lon="5.2503">
        <ele>352.795</ele>
        <time>2013-05-06T17:02:27Z</time>
      </trkpt>
      <trkpt lat="44.40612" lon="5.25081">
        <ele>353.341</ele>
        <time>2013-05-06T17:02:35Z</time>
      </trkpt>
      <trkpt lat="44.40655" lon="5.25159">
        <ele>354.044</ele>
        <time>2013-05-06T17:02:47Z</time>
      </trkpt>
      <trkpt lat="44.40689" lon="5.25179">
        <ele>353.932</ele>
        <time>2013-05-06T17:02:54Z</time>
      </trkpt>
      <trkpt lat="44.40695" lon="5.25181">
        <ele>353.758</ele>
        <time>2013-05-06T17:02:55Z</time>
      </trkpt>
      <trkpt lat="44.40749" lon="5.25191">
        <ele>354.73</ele>
        <time>2013-05-06T17:03:04Z</time>
      </trkpt>
      <trkpt lat="44.40798" lon="5.25224">
        <ele>354.472</ele>
        <time>2013-05-06T17:03:13Z</time>
      </trkpt>
      <trkpt lat="44.40839" lon="5.25275">
        <ele>354.568</ele>
        <time>2013-05-06T17:03:22Z</time>
      </trkpt>
      <trkpt lat="44.4088" lon="5.2535">
        <ele>355.858</ele>
        <time>2013-05-06T17:03:33Z</time>
      </trkpt>
      <trkpt lat="44.40904" lon="5.25385">
        <ele>357.141</ele>
        <time>2013-05-06T17:03:39Z</time>
      </trkpt>
      <trkpt lat="44.4094" lon="5.25409">
        <ele>357.05</ele>
        <time>2013-05-06T17:03:46Z</time>
      </trkpt>
      <trkpt lat="44.40988" lon="5.25446">
        <ele>357.374</ele>
        <time>2013-05-06T17:03:55Z</time>
      </trkpt>
      <trkpt lat="44.41041" lon="5.25509">
        <ele>357.017</ele>
        <time>2013-05-06T17:04:06Z</time>
      </trkpt>
      <trkpt lat="44.4105" lon="5.25522">
        <ele>356.719</ele>
        <time>2013-05-06T17:04:08Z</time>
      </trkpt>
      <trkpt lat="44.41065" lon="5.2556">
        <ele>357.181</ele>
        <time>2013-05-06T17:04:13Z</time>
      </trkpt>
      <trkpt lat="44.41078" lon="5.25666">
        <ele>357.309</ele>
        <time>2013-05-06T17:04:26Z</time>
      </trkpt>
      <trkpt lat="44.41095" lon="5.25726">
        <ele>358.152</ele>
        <time>2013-05-06T17:04:34Z</time>
      </trkpt>
      <trkpt lat="44.41124" lon="5.25766">
        <ele>358.592</ele>
        <time>2013-05-06T17:04:41Z</time>
      </trkpt>
      <trkpt lat="44.41157" lon="5.25815">
        <ele>358.708</ele>
        <time>2013-05-06T17:04:49Z</time>
      </trkpt>
      <trkpt lat="44.41167" lon="5.25846">
        <ele>359.238</ele>
        <time>2013-05-06T17:04:53Z</time>
      </trkpt>
      <trkpt lat="44.41179" lon="5.25928">
        <ele>358.835</ele>
        <time>2013-05-06T17:05:03Z</time>
      </trkpt>
      <trkpt lat="44.41187" lon="5.25984">
        <ele>359.611</ele>
        <time>2013-05-06T17:05:10Z</time>
      </trkpt>
      <trkpt lat="44.41208" lon="5.26049">
        <ele>358.759</ele>
        <time>2013-05-06T17:05:19Z</time>
      </trkpt>
      <trkpt lat="44.41245" lon="5.26118">
        <ele>360.28</ele>
        <time>2013-05-06T17:05:30Z</time>
      </trkpt>
      <trkpt lat="44.4126" lon="5.26169">
        <ele>361.787</ele>
        <time>2013-05-06T17:05:37Z</time>
      </trkpt>
      <trkpt lat="44.41286" lon="5.26216">
        <ele>361.489</ele>
        <time>2013-05-06T17:05:45Z</time>
      </trkpt>
      <trkpt lat="44.41334" lon="5.26257">
        <ele>362.125</ele>
        <time>2013-05-06T17:05:55Z</time>
      </trkpt>
      <trkpt lat="44.41369" lon="5.26302">
        <ele>361.602</ele>
        <time>2013-05-06T17:06:03Z</time>
      </trkpt>
      <trkpt lat="44.41398" lon="5.26352">
        <ele>362.448</ele>
        <time>2013-05-06T17:06:11Z</time>
      </trkpt>
      <trkpt lat="44.41426" lon="5.2643">
        <ele>361.966</ele>
        <time>2013-05-06T17:06:22Z</time>
      </trkpt>
      <trkpt lat="44.41435" lon="5.2646">
        <ele>362.173</ele>
        <time>2013-05-06T17:06:26Z</time>
      </trkpt>
      <trkpt lat="44.41442" lon="5.26491">
        <ele>362.242</ele>
        <time>2013-05-06T17:06:30Z</time>
      </trkpt>
      <trkpt lat="44.41442" lon="5.26524">
        <ele>362.419</ele>
        <time>2013-05-06T17:06:34Z</time>
      </trkpt>
      <trkpt lat="44.41433" lon="5.26589">
        <ele>361.986</ele>
        <time>2013-05-06T17:06:42Z</time>
      </trkpt>
      <trkpt lat="44.41429" lon="5.26652">
        <ele>362.23</ele>
        <time>2013-05-06T17:06:50Z</time>
      </trkpt>
      <trkpt lat="44.41429" lon="5.26692">
        <ele>363.152</ele>
        <time>2013-05-06T17:06:55Z</time>
      </trkpt>
      <trkpt lat="44.41444" lon="5.26749">
        <ele>363.292</ele>
        <time>2013-05-06T17:07:03Z</time>
      </trkpt>
      <trkpt lat="44.41476" lon="5.26814">
        <ele>364.515</ele>
        <time>2013-05-06T17:07:13Z</time>
      </trkpt>
      <trkpt lat="44.41505" lon="5.2687">
        <ele>364.644</ele>
        <time>2013-05-06T17:07:22Z</time>
      </trkpt>
      <trkpt lat="44.41532" lon="5.26929">
        <ele>364.997</ele>
        <time>2013-05-06T17:07:32Z</time>
      </trkpt>
      <trkpt lat="44.41566" lon="5.26961">
        <ele>365.69</ele>
        <time>2013-05-06T17:07:40Z</time>
      </trkpt>
      <trkpt lat="44.41571" lon="5.26965">
        <ele>365.455</ele>
        <time>2013-05-06T17:07:41Z</time>
      </trkpt>
      <trkpt lat="44.41581" lon="5.26972">
        <ele>365.721</ele>
        <time>2013-05-06T17:07:43Z</time>
      </trkpt>
      <trkpt lat="44.41598" lon="5.26987">
        <ele>365.306</ele>
        <time>2013-05-06T17:07:47Z</time>
      </trkpt>
      <trkpt lat="44.41647" lon="5.2703">
        <ele>366.113</ele>
        <time>2013-05-06T17:07:57Z</time>
      </trkpt>
      <trkpt lat="44.4169" lon="5.27075">
        <ele>367.967</ele>
        <time>2013-05-06T17:08:07Z</time>
      </trkpt>
      <trkpt lat="44.41744" lon="5.27128">
        <ele>368.177</ele>
        <time>2013-05-06T17:08:20Z</time>
      </trkpt>
      <trkpt lat="44.41796" lon="5.27175">
        <ele>368.389</ele>
        <time>2013-05-06T17:08:32Z</time>
      </trkpt>
      <trkpt lat="44.41853" lon="5.27233">
        <ele>368.637</ele>
        <time>2013-05-06T17:08:45Z</time>
      </trkpt>
      <trkpt lat="44.41897" lon="5.27278">
        <ele>369.792</ele>
        <time>2013-05-06T17:08:55Z</time>
      </trkpt>
      <trkpt lat="44.41951" lon="5.27327">
        <ele>369.337</ele>
        <time>2013-05-06T17:09:07Z</time>
      </trkpt>
      <trkpt lat="44.41993" lon="5.27363">
        <ele>369.928</ele>
        <time>2013-05-06T17:09:16Z</time>
      </trkpt>
      <trkpt lat="44.42047" lon="5.27427">
        <ele>369.439</ele>
        <time>2013-05-06T17:09:29Z</time>
      </trkpt>
      <trkpt lat="44.42081" lon="5.27469">
        <ele>370.622</ele>
        <time>2013-05-06T17:09:38Z</time>
      </trkpt>
      <trkpt lat="44.42134" lon="5.27532">
        <ele>370.324</ele>
        <time>2013-05-06T17:09:51Z</time>
      </trkpt>
      <trkpt lat="44.42186" lon="5.27572">
        <ele>370.75</ele>
        <time>2013-05-06T17:10:02Z</time>
      </trkpt>
      <trkpt lat="44.42243" lon="5.27598">
        <ele>370.886</ele>
        <time>2013-05-06T17:10:13Z</time>
      </trkpt>
      <trkpt lat="44.42315" lon="5.27631">
        <ele>371.033</ele>
        <time>2013-05-06T17:10:27Z</time>
      </trkpt>
      <trkpt lat="44.42371" lon="5.27656">
        <ele>371.952</ele>
        <time>2013-05-06T17:10:38Z</time>
      </trkpt>
      <trkpt lat="44.42428" lon="5.27683">
        <ele>371.301</ele>
        <time>2013-05-06T17:10:49Z</time>
      </trkpt>
      <trkpt lat="44.42477" lon="5.27712">
        <ele>372.342</ele>
        <time>2013-05-06T17:10:59Z</time>
      </trkpt>
      <trkpt lat="44.42533" lon="5.27746">
        <ele>372.519</ele>
        <time>2013-05-06T17:11:10Z</time>
      </trkpt>
      <trkpt lat="44.42597" lon="5.27791">
        <ele>373.665</ele>
        <time>2013-05-06T17:11:23Z</time>
      </trkpt>
      <trkpt lat="44.42648" lon="5.27835">
        <ele>373.458</ele>
        <time>2013-05-06T17:11:34Z</time>
      </trkpt>
      <trkpt lat="44.42661" lon="5.27847">
        <ele>374.782</ele>
        <time>2013-05-06T17:11:37Z</time>
      </trkpt>
      <trkpt lat="44.42696" lon="5.27894">
        <ele>373.757</ele>
        <time>2013-05-06T17:11:46Z</time>
      </trkpt>
      <trkpt lat="44.4273" lon="5.27942">
        <ele>373.961</ele>
        <time>2013-05-06T17:11:55Z</time>
      </trkpt>
      <trkpt lat="44.42741" lon="5.27958">
        <ele>373.891</ele>
        <time>2013-05-06T17:11:58Z</time>
      </trkpt>
      <trkpt lat="44.42782" lon="5.27986">
        <ele>372.441</ele>
        <time>2013-05-06T17:12:06Z</time>
      </trkpt>
      <trkpt lat="44.42807" lon="5.27975">
        <ele>372.833</ele>
        <time>2013-05-06T17:12:11Z</time>
      </trkpt>
      <trkpt lat="44.42815" lon="5.27946">
        <ele>371.941</ele>
        <time>2013-05-06T17:12:15Z</time>
      </trkpt>
      <trkpt lat="44.4282" lon="5.27931">
        <ele>371.773</ele>
        <time>2013-05-06T17:12:17Z</time>
      </trkpt>
      <trkpt lat="44.42838" lon="5.27827">
        <ele>370.317</ele>
        <time>2013-05-06T17:12:29Z</time>
      </trkpt>
      <trkpt lat="44.42849" lon="5.27772">
        <ele>370.579</ele>
        <time>2013-05-06T17:12:36Z</time>
      </trkpt>
      <trkpt lat="44.42862" lon="5.27738">
        <ele>370.283</ele>
        <time>2013-05-06T17:12:41Z</time>
      </trkpt>
      <trkpt lat="44.42877" lon="5.27713">
        <ele>370.012</ele>
        <time>2013-05-06T17:12:45Z</time>
      </trkpt>
      <trkpt lat="44.42931" lon="5.2768">
        <ele>370.949</ele>
        <time>2013-05-06T17:12:55Z</time>
      </trkpt>
      <trkpt lat="44.42978" lon="5.27674">
        <ele>370.342</ele>
        <time>2013-05-06T17:13:03Z</time>
      </trkpt>
      <trkpt lat="44.43018" lon="5.27686">
        <ele>371.561</ele>
        <time>2013-05-06T17:13:10Z</time>
      </trkpt>
      <trkpt lat="44.43083" lon="5.27724">
        <ele>370.238</ele>
        <time>2013-05-06T17:13:22Z</time>
      </trkpt>
      <trkpt lat="44.43123" lon="5.27759">
        <ele>371.686</ele>
        <time>2013-05-06T17:13:30Z</time>
      </trkpt>
      <trkpt lat="44.43161" lon="5.2781">
        <ele>371.536</ele>
        <time>2013-05-06T17:13:39Z</time>
      </trkpt>
      <trkpt lat="44.4319" lon="5.27868">
        <ele>371.439</ele>
        <time>2013-05-06T17:13:48Z</time>
      </trkpt>
      <trkpt lat="44.43194" lon="5.27882">
        <ele>372.147</ele>
        <time>2013-05-06T17:13:50Z</time>
      </trkpt>
      <trkpt lat="44.43202" lon="5.27944">
        <ele>372.159</ele>
        <time>2013-05-06T17:13:58Z</time>
      </trkpt>
      <trkpt lat="44.43205" lon="5.27977">
        <ele>372.392</ele>
        <time>2013-05-06T17:14:02Z</time>
      </trkpt>
      <trkpt lat="44.43198" lon="5.28006">
        <ele>371.798</ele>
        <time>2013-05-06T17:14:06Z</time>
      </trkpt>
      <trkpt lat="44.4318" lon="5.2807">
        <ele>371.113</ele>
        <time>2013-05-06T17:14:15Z</time>
      </trkpt>
      <trkpt lat="44.43159" lon="5.28153">
        <ele>372.734</ele>
        <time>2013-05-06T17:14:27Z</time>
      </trkpt>
      <trkpt lat="44.43163" lon="5.28201">
        <ele>373.466</ele>
        <time>2013-05-06T17:14:34Z</time>
      </trkpt>
      <trkpt lat="44.4318" lon="5.28219">
        <ele>373.177</ele>
        <time>2013-05-06T17:14:39Z</time>
      </trkpt>
      <trkpt lat="44.43195" lon="5.28222">
        <ele>372.405</ele>
        <time>2013-05-06T17:14:42Z</time>
      </trkpt>
      <trkpt lat="44.4322" lon="5.2822">
        <ele>373.938</ele>
        <time>2013-05-06T17:14:47Z</time>
      </trkpt>
      <trkpt lat="44.43279" lon="5.28208">
        <ele>374.35</ele>
        <time>2013-05-06T17:14:58Z</time>
      </trkpt>
      <trkpt lat="44.43282" lon="5.2821">
        <ele>374.521</ele>
        <time>2013-05-06T17:14:59Z</time>
      </trkpt>
      <trkpt lat="44.43294" lon="5.28214">
        <ele>374.224</ele>
        <time>2013-05-06T17:15:01Z</time>
      </trkpt>
      <trkpt lat="44.43307" lon="5.28232">
        <ele>373.733</ele>
        <time>2013-05-06T17:15:04Z</time>
      </trkpt>
      <trkpt lat="44.43315" lon="5.28244">
        <ele>373.005</ele>
        <time>2013-05-06T17:15:06Z</time>
      </trkpt>
      <trkpt lat="44.43323" lon="5.28265">
        <ele>374.71</ele>
        <time>2013-05-06T17:15:09Z</time>
      </trkpt>
      <trkpt lat="44.43323" lon="5.2831">
        <ele>375.015</ele>
        <time>2013-05-06T17:15:14Z</time>
      </trkpt>
      <trkpt lat="44.43298" lon="5.2838">
        <ele>374.958</ele>
        <time>2013-05-06T17:15:24Z</time>
      </trkpt>
      <trkpt lat="44.43287" lon="5.28404">
        <ele>376.445</ele>
        <time>2013-05-06T17:15:28Z</time>
      </trkpt>
      <trkpt lat="44.4325" lon="5.28475">
        <ele>376.86</ele>
        <time>2013-05-06T17:15:40Z</time>
      </trkpt>
      <trkpt lat="44.43215" lon="5.28551">
        <ele>377.488</ele>
        <time>2013-05-06T17:15:52Z</time>
      </trkpt>
      <trkpt lat="44.43193" lon="5.28621">
        <ele>377.223</ele>
        <time>2013-05-06T17:16:02Z</time>
      </trkpt>
      <trkpt lat="44.43193" lon="5.28692">
        <ele>376.861</ele>
        <time>2013-05-06T17:16:11Z</time>
      </trkpt>
      <trkpt lat="44.43193" lon="5.2874">
        <ele>377.2</ele>
        <time>2013-05-06T17:16:17Z</time>
      </trkpt>
      <trkpt lat="44.43221" lon="5.28794">
        <ele>378.634</ele>
        <time>2013-05-06T17:16:28Z</time>
      </trkpt>
      <trkpt lat="44.4323" lon="5.28792">
        <ele>378.431</ele>
        <time>2013-05-06T17:16:31Z</time>
      </trkpt>
      <trkpt lat="44.43284" lon="5.28779">
        <ele>378.003</ele>
        <time>2013-05-06T17:16:41Z</time>
      </trkpt>
      <trkpt lat="44.43324" lon="5.28789">
        <ele>378.519</ele>
        <time>2013-05-06T17:16:48Z</time>
      </trkpt>
      <trkpt lat="44.43353" lon="5.28811">
        <ele>378.594</ele>
        <time>2013-05-06T17:16:54Z</time>
      </trkpt>
      <trkpt lat="44.43363" lon="5.28829">
        <ele>379.639</ele>
        <time>2013-05-06T17:16:57Z</time>
      </trkpt>
      <trkpt lat="44.43387" lon="5.28895">
        <ele>380.329</ele>
        <time>2013-05-06T17:17:07Z</time>
      </trkpt>
      <trkpt lat="44.43398" lon="5.28929">
        <ele>380.719</ele>
        <time>2013-05-06T17:17:12Z</time>
      </trkpt>
      <trkpt lat="44.43403" lon="5.28943">
        <ele>380.63</ele>
        <time>2013-05-06T17:17:14Z</time>
      </trkpt>
      <trkpt lat="44.43423" lon="5.29004">
        <ele>381.595</ele>
        <time>2013-05-06T17:17:23Z</time>
      </trkpt>
      <trkpt lat="44.43438" lon="5.29073">
        <ele>381.985</ele>
        <time>2013-05-06T17:17:32Z</time>
      </trkpt>
      <trkpt lat="44.43446" lon="5.2915">
        <ele>381.418</ele>
        <time>2013-05-06T17:17:42Z</time>
      </trkpt>
      <trkpt lat="44.43446" lon="5.29232">
        <ele>383.182</ele>
        <time>2013-05-06T17:17:53Z</time>
      </trkpt>
      <trkpt lat="44.43459" lon="5.29288">
        <ele>383.451</ele>
        <time>2013-05-06T17:18:01Z</time>
      </trkpt>
      <trkpt lat="44.43462" lon="5.29295">
        <ele>383.149</ele>
        <time>2013-05-06T17:18:02Z</time>
      </trkpt>
      <trkpt lat="44.43468" lon="5.29308">
        <ele>383.298</ele>
        <time>2013-05-06T17:18:04Z</time>
      </trkpt>
      <trkpt lat="44.43477" lon="5.29328">
        <ele>384.485</ele>
        <time>2013-05-06T17:18:07Z</time>
      </trkpt>
      <trkpt lat="44.43509" lon="5.29354">
        <ele>384.204</ele>
        <time>2013-05-06T17:18:14Z</time>
      </trkpt>
      <trkpt lat="44.43533" lon="5.29347">
        <ele>384.007</ele>
        <time>2013-05-06T17:18:19Z</time>
      </trkpt>
      <trkpt lat="44.43551" lon="5.29325">
        <ele>384.145</ele>
        <time>2013-05-06T17:18:23Z</time>
      </trkpt>
      <trkpt lat="44.43596" lon="5.29267">
        <ele>385.208</ele>
        <time>2013-05-06T17:18:34Z</time>
      </trkpt>
      <trkpt lat="44.43605" lon="5.29258">
        <ele>384.534</ele>
        <time>2013-05-06T17:18:36Z</time>
      </trkpt>
      <trkpt lat="44.4363" lon="5.29247">
        <ele>385.075</ele>
        <time>2013-05-06T17:18:41Z</time>
      </trkpt>
      <trkpt lat="44.43652" lon="5.29242">
        <ele>385.511</ele>
        <time>2013-05-06T17:18:45Z</time>
      </trkpt>
      <trkpt lat="44.43678" lon="5.29254">
        <ele>386.596</ele>
        <time>2013-05-06T17:18:52Z</time>
      </trkpt>
      <trkpt lat="44.4369" lon="5.29264">
        <ele>385.993</ele>
        <time>2013-05-06T17:19:00Z</time>
      </trkpt>
      <trkpt lat="44.4369" lon="5.29264">
        <ele>386.06</ele>
        <time>2013-05-06T17:19:28Z</time>
      </trkpt>
      <trkpt lat="44.4369" lon="5.29264">
        <ele>387.079</ele>
        <time>2013-05-06T17:24:46Z</time>
      </trkpt>
      <trkpt lat="44.43694" lon="5.29267">
        <ele>387.388</ele>
        <time>2013-05-06T17:25:16Z</time>
      </trkpt>
      <trkpt lat="44.43706" lon="5.29278">
        <ele>387.166</ele>
        <time>2013-05-06T17:25:22Z</time>
      </trkpt>
      <trkpt lat="44.43723" lon="5.29311">
        <ele>387.406</ele>
        <time>2013-05-06T17:25:29Z</time>
      </trkpt>
      <trkpt lat="44.43743" lon="5.29351">
        <ele>387.627</ele>
        <time>2013-05-06T17:25:37Z</time>
      </trkpt>
      <trkpt lat="44.43747" lon="5.29378">
        <ele>388.013</ele>
        <time>2013-05-06T17:25:41Z</time>
      </trkpt>
      <trkpt lat="44.43734" lon="5.29435">
        <ele>387.544</ele>
        <time>2013-05-06T17:25:51Z</time>
      </trkpt>
      <trkpt lat="44.43708" lon="5.29492">
        <ele>388.324</ele>
        <time>2013-05-06T17:26:00Z</time>
      </trkpt>
      <trkpt lat="44.43672" lon="5.29543">
        <ele>388.866</ele>
        <time>2013-05-06T17:26:09Z</time>
      </trkpt>
      <trkpt lat="44.43614" lon="5.2961">
        <ele>389.451</ele>
        <time>2013-05-06T17:26:21Z</time>
      </trkpt>
      <trkpt lat="44.43568" lon="5.29664">
        <ele>390.26</ele>
        <time>2013-05-06T17:26:31Z</time>
      </trkpt>
      <trkpt lat="44.43533" lon="5.29711">
        <ele>391.443</ele>
        <time>2013-05-06T17:26:40Z</time>
      </trkpt>
      <trkpt lat="44.43492" lon="5.2976">
        <ele>392.508</ele>
        <time>2013-05-06T17:26:52Z</time>
      </trkpt>
      <trkpt lat="44.43488" lon="5.29763">
        <ele>392.313</ele>
        <time>2013-05-06T17:26:53Z</time>
      </trkpt>
      <trkpt lat="44.43465" lon="5.2977">
        <ele>393.108</ele>
        <time>2013-05-06T17:26:59Z</time>
      </trkpt>
      <trkpt lat="44.43422" lon="5.29761">
        <ele>392.47</ele>
        <time>2013-05-06T17:27:08Z</time>
      </trkpt>
      <trkpt lat="44.43396" lon="5.29767">
        <ele>392.471</ele>
        <time>2013-05-06T17:27:13Z</time>
      </trkpt>
      <trkpt lat="44.43375" lon="5.29774">
        <ele>392.498</ele>
        <time>2013-05-06T17:27:17Z</time>
      </trkpt>
      <trkpt lat="44.43358" lon="5.29777">
        <ele>391.465</ele>
        <time>2013-05-06T17:27:20Z</time>
      </trkpt>
      <trkpt lat="44.4331" lon="5.2977">
        <ele>392.094</ele>
        <time>2013-05-06T17:27:29Z</time>
      </trkpt>
      <trkpt lat="44.43264" lon="5.29754">
        <ele>392.751</ele>
        <time>2013-05-06T17:27:37Z</time>
      </trkpt>
      <trkpt lat="44.43237" lon="5.29762">
        <ele>392.759</ele>
        <time>2013-05-06T17:27:42Z</time>
      </trkpt>
      <trkpt lat="44.43224" lon="5.2977">
        <ele>392.153</ele>
        <time>2013-05-06T17:27:45Z</time>
      </trkpt>
      <trkpt lat="44.43213" lon="5.29779">
        <ele>392.815</ele>
        <time>2013-05-06T17:27:48Z</time>
      </trkpt>
      <trkpt lat="44.43206" lon="5.29789">
        <ele>392.338</ele>
        <time>2013-05-06T17:27:50Z</time>
      </trkpt>
      <trkpt lat="44.43194" lon="5.29806">
        <ele>393.131</ele>
        <time>2013-05-06T17:27:53Z</time>
      </trkpt>
      <trkpt lat="44.43177" lon="5.29857">
        <ele>392.481</ele>
        <time>2013-05-06T17:28:02Z</time>
      </trkpt>
      <trkpt lat="44.43158" lon="5.29915">
        <ele>392.671</ele>
        <time>2013-05-06T17:28:10Z</time>
      </trkpt>
      <trkpt lat="44.43146" lon="5.29949">
        <ele>392.773</ele>
        <time>2013-05-06T17:28:15Z</time>
      </trkpt>
      <trkpt lat="44.43131" lon="5.29976">
        <ele>392.706</ele>
        <time>2013-05-06T17:28:20Z</time>
      </trkpt>
      <trkpt lat="44.43103" lon="5.30039">
        <ele>392.829</ele>
        <time>2013-05-06T17:28:29Z</time>
      </trkpt>
      <trkpt lat="44.43091" lon="5.30102">
        <ele>392.992</ele>
        <time>2013-05-06T17:28:38Z</time>
      </trkpt>
      <trkpt lat="44.4309" lon="5.30174">
        <ele>393.517</ele>
        <time>2013-05-06T17:28:48Z</time>
      </trkpt>
      <trkpt lat="44.43099" lon="5.3024">
        <ele>393.893</ele>
        <time>2013-05-06T17:28:57Z</time>
      </trkpt>
      <trkpt lat="44.43116" lon="5.30286">
        <ele>393.995</ele>
        <time>2013-05-06T17:29:04Z</time>
      </trkpt>
      <trkpt lat="44.43145" lon="5.3033">
        <ele>394.231</ele>
        <time>2013-05-06T17:29:12Z</time>
      </trkpt>
      <trkpt lat="44.43173" lon="5.30354">
        <ele>394.99</ele>
        <time>2013-05-06T17:29:19Z</time>
      </trkpt>
      <trkpt lat="44.43204" lon="5.30372">
        <ele>395.865</ele>
        <time>2013-05-06T17:29:25Z</time>
      </trkpt>
      <trkpt lat="44.43232" lon="5.30396">
        <ele>396.142</ele>
        <time>2013-05-06T17:29:31Z</time>
      </trkpt>
      <trkpt lat="44.43243" lon="5.30422">
        <ele>394.987</ele>
        <time>2013-05-06T17:29:35Z</time>
      </trkpt>
      <trkpt lat="44.43255" lon="5.30481">
        <ele>396.667</ele>
        <time>2013-05-06T17:29:43Z</time>
      </trkpt>
      <trkpt lat="44.43262" lon="5.30518">
        <ele>397.296</ele>
        <time>2013-05-06T17:29:48Z</time>
      </trkpt>
      <trkpt lat="44.43273" lon="5.30575">
        <ele>397.904</ele>
        <time>2013-05-06T17:29:56Z</time>
      </trkpt>
      <trkpt lat="44.43287" lon="5.30643">
        <ele>398.66</ele>
        <time>2013-05-06T17:30:05Z</time>
      </trkpt>
      <trkpt lat="44.43288" lon="5.3065">
        <ele>398.77</ele>
        <time>2013-05-06T17:30:06Z</time>
      </trkpt>
      <trkpt lat="44.43291" lon="5.30665">
        <ele>399.366</ele>
        <time>2013-05-06T17:30:08Z</time>
      </trkpt>
      <trkpt lat="44.43299" lon="5.30718">
        <ele>399.789</ele>
        <time>2013-05-06T17:30:15Z</time>
      </trkpt>
      <trkpt lat="44.433" lon="5.30725">
        <ele>400.795</ele>
        <time>2013-05-06T17:30:16Z</time>
      </trkpt>
      <trkpt lat="44.43292" lon="5.30761">
        <ele>400.133</ele>
        <time>2013-05-06T17:30:21Z</time>
      </trkpt>
      <trkpt lat="44.43275" lon="5.30804">
        <ele>400.912</ele>
        <time>2013-05-06T17:30:27Z</time>
      </trkpt>
      <trkpt lat="44.43267" lon="5.30817">
        <ele>401.543</ele>
        <time>2013-05-06T17:30:30Z</time>
      </trkpt>
      <trkpt lat="44.43249" lon="5.30845">
        <ele>402.157</ele>
        <time>2013-05-06T17:30:37Z</time>
      </trkpt>
      <trkpt lat="44.43236" lon="5.30865">
        <ele>402.137</ele>
        <time>2013-05-06T17:30:41Z</time>
      </trkpt>
      <trkpt lat="44.43216" lon="5.30895">
        <ele>402.846</ele>
        <time>2013-05-06T17:30:48Z</time>
      </trkpt>
      <trkpt lat="44.43204" lon="5.30911">
        <ele>403.491</ele>
        <time>2013-05-06T17:30:52Z</time>
      </trkpt>
      <trkpt lat="44.43176" lon="5.30963">
        <ele>404.096</ele>
        <time>2013-05-06T17:31:00Z</time>
      </trkpt>
      <trkpt lat="44.43174" lon="5.30972">
        <ele>404.208</ele>
        <time>2013-05-06T17:31:01Z</time>
      </trkpt>
      <trkpt lat="44.43169" lon="5.31024">
        <ele>404.094</ele>
        <time>2013-05-06T17:31:09Z</time>
      </trkpt>
      <trkpt lat="44.43171" lon="5.31046">
        <ele>405.148</ele>
        <time>2013-05-06T17:31:12Z</time>
      </trkpt>
      <trkpt lat="44.43178" lon="5.31081">
        <ele>405.156</ele>
        <time>2013-05-06T17:31:17Z</time>
      </trkpt>
      <trkpt lat="44.43186" lon="5.31118">
        <ele>405.609</ele>
        <time>2013-05-06T17:31:22Z</time>
      </trkpt>
      <trkpt lat="44.43191" lon="5.31146">
        <ele>405.901</ele>
        <time>2013-05-06T17:31:26Z</time>
      </trkpt>
      <trkpt lat="44.43197" lon="5.31229">
        <ele>406.22</ele>
        <time>2013-05-06T17:31:36Z</time>
      </trkpt>
      <trkpt lat="44.43191" lon="5.31284">
        <ele>406.944</ele>
        <time>2013-05-06T17:31:43Z</time>
      </trkpt>
      <trkpt lat="44.4318" lon="5.3132">
        <ele>407.691</ele>
        <time>2013-05-06T17:31:48Z</time>
      </trkpt>
      <trkpt lat="44.43137" lon="5.31383">
        <ele>407.767</ele>
        <time>2013-05-06T17:31:59Z</time>
      </trkpt>
      <trkpt lat="44.43082" lon="5.31438">
        <ele>408.869</ele>
        <time>2013-05-06T17:32:11Z</time>
      </trkpt>
      <trkpt lat="44.43028" lon="5.3148">
        <ele>409.15</ele>
        <time>2013-05-06T17:32:22Z</time>
      </trkpt>
      <trkpt lat="44.43001" lon="5.31495">
        <ele>409.452</ele>
        <time>2013-05-06T17:32:27Z</time>
      </trkpt>
      <trkpt lat="44.42959" lon="5.3152">
        <ele>410.277</ele>
        <time>2013-05-06T17:32:36Z</time>
      </trkpt>
      <trkpt lat="44.42918" lon="5.31534">
        <ele>411.077</ele>
        <time>2013-05-06T17:32:44Z</time>
      </trkpt>
      <trkpt lat="44.42865" lon="5.31552">
        <ele>411.277</ele>
        <time>2013-05-06T17:32:54Z</time>
      </trkpt>
      <trkpt lat="44.4286" lon="5.31555">
        <ele>411.683</ele>
        <time>2013-05-06T17:32:55Z</time>
      </trkpt>
      <trkpt lat="44.42826" lon="5.3157">
        <ele>412.412</ele>
        <time>2013-05-06T17:33:02Z</time>
      </trkpt>
      <trkpt lat="44.4279" lon="5.3157">
        <ele>413.072</ele>
        <time>2013-05-06T17:33:09Z</time>
      </trkpt>
      <trkpt lat="44.42731" lon="5.3154">
        <ele>414.899</ele>
        <time>2013-05-06T17:33:21Z</time>
      </trkpt>
      <trkpt lat="44.42684" lon="5.31512">
        <ele>415.084</ele>
        <time>2013-05-06T17:33:31Z</time>
      </trkpt>
      <trkpt lat="44.42654" lon="5.31507">
        <ele>415.346</ele>
        <time>2013-05-06T17:33:37Z</time>
      </trkpt>
      <trkpt lat="44.42612" lon="5.31525">
        <ele>415.299</ele>
        <time>2013-05-06T17:33:45Z</time>
      </trkpt>
      <trkpt lat="44.42588" lon="5.3154">
        <ele>415.443</ele>
        <time>2013-05-06T17:33:50Z</time>
      </trkpt>
      <trkpt lat="44.42574" lon="5.31555">
        <ele>415.66</ele>
        <time>2013-05-06T17:33:53Z</time>
      </trkpt>
      <trkpt lat="44.42552" lon="5.31601">
        <ele>416.043</ele>
        <time>2013-05-06T17:34:01Z</time>
      </trkpt>
      <trkpt lat="44.42541" lon="5.31659">
        <ele>415.793</ele>
        <time>2013-05-06T17:34:09Z</time>
      </trkpt>
      <trkpt lat="44.42528" lon="5.31733">
        <ele>416.594</ele>
        <time>2013-05-06T17:34:19Z</time>
      </trkpt>
      <trkpt lat="44.42525" lon="5.31746">
        <ele>416.68</ele>
        <time>2013-05-06T17:34:21Z</time>
      </trkpt>
      <trkpt lat="44.42504" lon="5.31804">
        <ele>416.789</ele>
        <time>2013-05-06T17:34:30Z</time>
      </trkpt>
      <trkpt lat="44.4249" lon="5.31861">
        <ele>418.471</ele>
        <time>2013-05-06T17:34:38Z</time>
      </trkpt>
      <trkpt lat="44.42476" lon="5.3192">
        <ele>419.052</ele>
        <time>2013-05-06T17:34:46Z</time>
      </trkpt>
      <trkpt lat="44.42448" lon="5.31966">
        <ele>419.983</ele>
        <time>2013-05-06T17:34:54Z</time>
      </trkpt>
      <trkpt lat="44.42399" lon="5.32024">
        <ele>421.177</ele>
        <time>2013-05-06T17:35:06Z</time>
      </trkpt>
      <trkpt lat="44.42385" lon="5.32036">
        <ele>421.181</ele>
        <time>2013-05-06T17:35:09Z</time>
      </trkpt>
      <trkpt lat="44.42363" lon="5.32039">
        <ele>420.977</ele>
        <time>2013-05-06T17:35:13Z</time>
      </trkpt>
      <trkpt lat="44.42316" lon="5.32029">
        <ele>421.782</ele>
        <time>2013-05-06T17:35:22Z</time>
      </trkpt>
      <trkpt lat="44.42311" lon="5.32028">
        <ele>421.854</ele>
        <time>2013-05-06T17:35:23Z</time>
      </trkpt>
      <trkpt lat="44.42255" lon="5.32035">
        <ele>423.165</ele>
        <time>2013-05-06T17:35:34Z</time>
      </trkpt>
      <trkpt lat="44.42227" lon="5.32059">
        <ele>423.506</ele>
        <time>2013-05-06T17:35:40Z</time>
      </trkpt>
      <trkpt lat="44.42175" lon="5.32122">
        <ele>423.738</ele>
        <time>2013-05-06T17:35:52Z</time>
      </trkpt>
      <trkpt lat="44.42163" lon="5.32137">
        <ele>423.22</ele>
        <time>2013-05-06T17:35:55Z</time>
      </trkpt>
      <trkpt lat="44.42145" lon="5.32168">
        <ele>424.028</ele>
        <time>2013-05-06T17:36:00Z</time>
      </trkpt>
      <trkpt lat="44.42144" lon="5.32183">
        <ele>423.731</ele>
        <time>2013-05-06T17:36:02Z</time>
      </trkpt>
      <trkpt lat="44.42143" lon="5.32213">
        <ele>423.552</ele>
        <time>2013-05-06T17:36:06Z</time>
      </trkpt>
      <trkpt lat="44.42144" lon="5.32228">
        <ele>422.666</ele>
        <time>2013-05-06T17:36:08Z</time>
      </trkpt>
      <trkpt lat="44.42151" lon="5.32299">
        <ele>423.51</ele>
        <time>2013-05-06T17:36:17Z</time>
      </trkpt>
      <trkpt lat="44.42154" lon="5.32371">
        <ele>424.368</ele>
        <time>2013-05-06T17:36:26Z</time>
      </trkpt>
      <trkpt lat="44.42154" lon="5.32487">
        <ele>425.265</ele>
        <time>2013-05-06T17:36:40Z</time>
      </trkpt>
      <trkpt lat="44.42161" lon="5.32572">
        <ele>425.555</ele>
        <time>2013-05-06T17:36:51Z</time>
      </trkpt>
      <trkpt lat="44.42163" lon="5.32579">
        <ele>425.269</ele>
        <time>2013-05-06T17:36:52Z</time>
      </trkpt>
      <trkpt lat="44.42194" lon="5.32628">
        <ele>425.81</ele>
        <time>2013-05-06T17:37:00Z</time>
      </trkpt>
      <trkpt lat="44.42216" lon="5.32658">
        <ele>426.296</ele>
        <time>2013-05-06T17:37:05Z</time>
      </trkpt>
      <trkpt lat="44.42256" lon="5.32693">
        <ele>425.862</ele>
        <time>2013-05-06T17:37:13Z</time>
      </trkpt>
      <trkpt lat="44.42293" lon="5.32716">
        <ele>426.201</ele>
        <time>2013-05-06T17:37:20Z</time>
      </trkpt>
      <trkpt lat="44.42315" lon="5.32727">
        <ele>425.033</ele>
        <time>2013-05-06T17:37:24Z</time>
      </trkpt>
      <trkpt lat="44.42338" lon="5.32756">
        <ele>425.948</ele>
        <time>2013-05-06T17:37:30Z</time>
      </trkpt>
      <trkpt lat="44.42332" lon="5.32789">
        <ele>425.919</ele>
        <time>2013-05-06T17:37:34Z</time>
      </trkpt>
      <trkpt lat="44.42329" lon="5.32801">
        <ele>426.548</ele>
        <time>2013-05-06T17:37:36Z</time>
      </trkpt>
      <trkpt lat="44.42323" lon="5.32822">
        <ele>426.823</ele>
        <time>2013-05-06T17:37:44Z</time>
      </trkpt>
      <trkpt lat="44.42323" lon="5.32822">
        <ele>427.041</ele>
        <time>2013-05-06T17:37:57Z</time>
      </trkpt>
      <trkpt lat="44.42318" lon="5.32832">
        <ele>427.538</ele>
        <time>2013-05-06T17:38:43Z</time>
      </trkpt>
      <trkpt lat="44.42306" lon="5.32855">
        <ele>427.496</ele>
        <time>2013-05-06T17:38:50Z</time>
      </trkpt>
      <trkpt lat="44.423" lon="5.32868">
        <ele>427.523</ele>
        <time>2013-05-06T17:38:56Z</time>
      </trkpt>
      <trkpt lat="44.42287" lon="5.32887">
        <ele>428.139</ele>
        <time>2013-05-06T17:39:05Z</time>
      </trkpt>
      <trkpt lat="44.42276" lon="5.32899">
        <ele>428.225</ele>
        <time>2013-05-06T17:39:11Z</time>
      </trkpt>
    </trkseg>
  </trk>
</gpx>